[[{"header":{"parameterUnit":"m.s-1","parameterCategory":1,"la1":30.6,"la2":29.2853,"lo1":-89.7004,"lo2":-87.6739,"dy":0.0162,"dx":0.0183,"nx":112,"ny":82,"refTime":"2023-04-08T12:00:00:Z","depth":0,"parameterNumber":2,"parameterNumberName":"U-component_of_WINDS"},"data":[0.0,0.0,0.0,0.0,0.0,0.0,0.0,0.0,0.0,0.0,0.0,0.0,0.0,0.0,0.0,0.0,0.0,0.0,0.0,0.0,0.0,0.0,0.0,0.0,0.0,0.0,0.0,0.0,0.0,0.0,0.0,0.0,0.0,0.0,0.0,0.0,0.0,0.0,0.0,0.0,0.0,0.0,0.0,0.0,0.0,0.0,0.0,0.0,0.0,0.0,0.0,0.0,0.0,0.0,0.0,0.0,0.0,0.0,0.0,0.0,0.0,0.0,0.0,0.0,0.0,0.0,0.0,0.0,0.0,0.0,0.0,0.0,0.0,0.0,0.0,0.0,0.0,0.0,0.0,0.0,0.0,0.0,0.0,0.0,0.0,0.0,0.0,0.0,0.0,0.0,2.9722,3.0401,3.0688,3.0723,3.0498,3.0016,2.9441,2.8747,0.0,0.0,0.0,0.0,0.0,0.0,0.0,0.0,0.0,0.0,0.0,0.0,0.0,0.0,0.0,0.0,0.0,0.0,0.0,0.0,0.0,0.0,0.0,0.0,0.0,0.0,0.0,0.0,0.0,0.0,0.0,0.0,0.0,0.0,0.0,0.0,0.0,0.0,0.0,0.0,0.0,0.0,0.0,0.0,0.0,0.0,0.0,0.0,0.0,0.0,0.0,0.0,0.0,0.0,0.0,0.0,0.0,0.0,0.0,0.0,0.0,0.0,0.0,0.0,0.0,0.0,0.0,0.0,0.0,0.0,0.0,0.0,0.0,0.0,0.0,0.0,0.0,0.0,0.0,0.0,0.0,0.0,0.0,0.0,0.0,0.0,0.0,0.0,0.0,0.0,0.0,0.0,0.0,0.0,0.0,0.0,0.0,0.0,0.0,0.0,0.0,0.0,0.0,0.0,2.9586,3.0681,3.0626,3.0585,3.0873,2.9985,2.9184,2.8719,0.0,0.0,0.0,0.0,0.0,0.0,0.0,0.0,0.0,0.0,0.0,0.0,0.0,0.0,0.0,0.0,0.0,0.0,0.0,0.0,0.0,0.0,0.0,0.0,0.0,0.0,0.0,0.0,0.0,0.0,0.0,0.0,0.0,0.0,0.0,0.0,0.0,0.0,0.0,0.0,0.0,0.0,0.0,0.0,0.0,0.0,0.0,0.0,0.0,0.0,0.0,0.0,0.0,0.0,0.0,0.0,0.0,0.0,0.0,0.0,0.0,0.0,0.0,0.0,0.0,0.0,0.0,0.0,0.0,0.0,0.0,0.0,0.0,0.0,0.0,0.0,0.0,0.0,0.0,0.0,0.0,0.0,0.0,0.0,0.0,0.0,0.0,0.0,0.0,0.0,0.0,0.0,0.0,0.0,0.0,0.0,0.0,0.0,0.0,0.0,0.0,0.0,0.0,2.9426,2.9933,3.0868,3.0816,3.0666,3.0528,3.0027,2.9298,2.8275,2.7837,0.0,0.0,0.0,0.0,0.0,0.0,0.0,0.0,0.0,0.0,0.0,0.0,0.0,0.0,0.0,0.0,0.0,0.0,0.0,0.0,0.0,0.0,0.0,0.0,0.0,0.0,0.0,0.0,0.0,0.0,0.0,0.0,0.0,0.0,0.0,0.0,0.0,0.0,0.0,0.0,0.0,0.0,0.0,0.0,0.0,0.0,0.0,0.0,0.0,0.0,0.0,0.0,0.0,0.0,0.0,0.0,0.0,0.0,0.0,0.0,0.0,0.0,0.0,0.0,0.0,0.0,0.0,0.0,0.0,0.0,0.0,0.0,0.0,0.0,0.0,0.0,0.0,0.0,0.0,0.0,0.0,0.0,0.0,0.0,0.0,0.0,0.0,0.0,0.0,0.0,0.0,0.0,0.0,0.0,0.0,0.0,0.0,0.0,0.0,0.0,0.0,0.0,3.013,3.0437,3.1065,3.106,3.0819,3.0293,3.0079,2.9365,2.7895,2.7793,0.0,0.0,0.0,0.0,0.0,0.0,0.0,0.0,0.0,0.0,0.0,0.0,0.0,0.0,0.0,0.0,0.0,0.0,0.0,0.0,0.0,0.0,0.0,0.0,0.0,0.0,0.0,0.0,0.0,0.0,0.0,0.0,0.0,0.0,0.0,0.0,0.0,0.0,0.0,0.0,0.0,0.0,0.0,0.0,0.0,0.0,0.0,0.0,0.0,0.0,0.0,0.0,0.0,0.0,0.0,0.0,0.0,0.0,0.0,0.0,0.0,0.0,0.0,0.0,0.0,0.0,0.0,0.0,0.0,0.0,0.0,0.0,0.0,0.0,0.0,0.0,0.0,0.0,0.0,0.0,0.0,0.0,0.0,0.0,0.0,0.0,0.0,0.0,0.0,0.0,0.0,0.0,0.0,0.0,0.0,0.0,0.0,0.0,0.0,0.0,0.0,0.0,3.0493,3.1015,3.1496,3.1329,3.1023,3.0704,3.0045,2.9108,2.7867,2.7793,0.0,0.0,0.0,0.0,0.0,0.0,0.0,0.0,0.0,0.0,0.0,0.0,0.0,0.0,0.0,0.0,0.0,0.0,0.0,0.0,0.0,0.0,0.0,0.0,0.0,0.0,0.0,0.0,0.0,0.0,0.0,0.0,0.0,0.0,0.0,0.0,0.0,0.0,0.0,0.0,0.0,0.0,0.0,0.0,0.0,0.0,0.0,0.0,0.0,0.0,0.0,0.0,0.0,0.0,0.0,0.0,0.0,0.0,0.0,0.0,0.0,0.0,0.0,0.0,0.0,0.0,0.0,0.0,0.0,0.0,0.0,0.0,0.0,0.0,0.0,0.0,0.0,0.0,0.0,0.0,0.0,0.0,0.0,0.0,0.0,0.0,0.0,0.0,0.0,0.0,0.0,0.0,0.0,0.0,0.0,0.0,0.0,0.0,0.0,0.0,0.0,0.0,3.0246,3.0778,3.1249,3.1263,3.104,3.0439,3.015,2.9372,2.7885,0.0,0.0,0.0,0.0,0.0,0.0,0.0,0.0,0.0,0.0,0.0,0.0,0.0,0.0,0.0,0.0,0.0,0.0,0.0,0.0,0.0,0.0,0.0,0.0,0.0,0.0,0.0,0.0,0.0,0.0,0.0,0.0,0.0,0.0,0.0,0.0,0.0,0.0,0.0,0.0,0.0,0.0,0.0,0.0,0.0,0.0,0.0,0.0,0.0,0.0,0.0,0.0,0.0,0.0,0.0,0.0,0.0,0.0,0.0,0.0,0.0,0.0,0.0,0.0,0.0,0.0,0.0,0.0,0.0,0.0,0.0,0.0,0.0,0.0,0.0,0.0,0.0,0.0,0.0,0.0,0.0,0.0,0.0,0.0,0.0,0.0,0.0,0.0,0.0,0.0,0.0,0.0,0.0,0.0,0.0,0.0,0.0,0.0,0.0,0.0,0.0,0.0,2.9603,3.0296,3.0885,3.1119,3.1352,3.1175,3.0455,3.0277,2.9617,2.8271,0.0,0.0,0.0,0.0,0.0,0.0,0.0,0.0,0.0,0.0,0.0,0.0,0.0,0.0,0.0,0.0,0.0,0.0,0.0,0.0,0.0,0.0,0.0,0.0,0.0,0.0,0.0,0.0,0.0,0.0,0.0,0.0,0.0,0.0,0.0,0.0,0.0,0.0,0.0,0.0,0.0,0.0,0.0,0.0,0.0,0.0,0.0,0.0,0.0,0.0,0.0,0.0,0.0,0.0,0.0,0.0,0.0,0.0,0.0,0.0,0.0,0.0,0.0,0.0,0.0,0.0,0.0,0.0,0.0,0.0,0.0,0.0,0.0,0.0,0.0,0.0,0.0,0.0,0.0,0.0,0.0,0.0,0.0,0.0,0.0,0.0,0.0,0.0,0.0,0.0,0.0,0.0,0.0,0.0,0.0,0.0,0.0,0.0,0.0,0.0,0.0,0.0,2.9699,3.0813,3.1527,3.1308,3.1654,3.1583,3.0859,3.0424,2.9855,0.0,0.0,0.0,0.0,0.0,0.0,0.0,0.0,0.0,0.0,0.0,0.0,0.0,0.0,0.0,0.0,0.0,0.0,0.0,0.0,0.0,0.0,0.0,0.0,0.0,0.0,0.0,0.0,0.0,0.0,0.0,0.0,0.0,0.0,0.0,0.0,0.0,0.0,0.0,0.0,0.0,0.0,0.0,0.0,0.0,0.0,0.0,0.0,0.0,0.0,0.0,0.0,0.0,0.0,0.0,0.0,0.0,0.0,0.0,0.0,0.0,0.0,0.0,0.0,0.0,0.0,0.0,0.0,0.0,0.0,0.0,0.0,0.0,0.0,0.0,0.0,0.0,0.0,0.0,0.0,0.0,0.0,0.0,0.0,0.0,0.0,0.0,0.0,0.0,0.0,0.0,0.0,0.0,0.0,0.0,0.0,0.0,0.0,0.0,0.0,0.0,0.0,0.0,2.9783,3.0494,3.1064,3.1276,3.1221,3.0974,3.0479,2.9861,2.9131,2.8343,0.0,0.0,0.0,0.0,0.0,0.0,0.0,0.0,0.0,0.0,0.0,0.0,0.0,0.0,0.0,0.0,0.0,0.0,0.0,0.0,0.0,0.0,0.0,0.0,0.0,0.0,0.0,0.0,0.0,0.0,0.0,0.0,0.0,0.0,0.0,0.0,0.0,0.0,0.0,0.0,0.0,0.0,0.0,0.0,0.0,0.0,0.0,0.0,0.0,0.0,0.0,0.0,0.0,0.0,0.0,0.0,0.0,0.0,0.0,0.0,0.0,0.0,0.0,0.0,0.0,0.0,0.0,0.0,0.0,0.0,0.0,0.0,0.0,0.0,0.0,0.0,0.0,0.0,0.0,0.0,0.0,0.0,0.0,0.0,0.0,0.0,0.0,0.0,0.0,0.0,0.0,0.0,0.0,0.0,0.0,0.0,0.0,0.0,0.0,0.0,0.0,0.0,2.9858,3.0391,3.081,3.1119,3.0992,3.0757,3.0362,2.9778,2.9155,2.8534,0.0,0.0,0.0,0.0,0.0,0.0,0.0,0.0,0.0,0.0,0.0,0.0,0.0,0.0,0.0,0.0,0.0,0.0,0.0,0.0,0.0,0.0,0.0,0.0,0.0,0.0,0.0,0.0,0.0,0.0,0.0,0.0,0.0,0.0,0.0,0.0,0.0,0.0,0.0,0.0,0.0,0.0,0.0,0.0,0.0,0.0,0.0,0.0,0.0,0.0,0.0,0.0,0.0,0.0,0.0,0.0,0.0,0.0,0.0,0.0,0.0,0.0,0.0,0.0,0.0,0.0,0.0,0.0,0.0,0.0,0.0,0.0,0.0,0.0,0.0,0.0,0.0,0.0,0.0,0.0,0.0,0.0,0.0,0.0,0.0,0.0,0.0,0.0,0.0,0.0,0.0,0.0,0.0,0.0,0.0,0.0,0.0,0.0,0.0,0.0,0.0,0.0,2.9911,3.0383,3.0722,3.0886,3.0847,3.0685,3.0361,2.9942,2.9535,2.9132,0.0,0.0,0.0,0.0,0.0,0.0,0.0,0.0,0.0,0.0,0.0,0.0,0.0,0.0,0.0,0.0,0.0,0.0,0.0,0.0,0.0,0.0,0.0,0.0,0.0,0.0,0.0,0.0,0.0,0.0,0.0,0.0,0.0,0.0,0.0,0.0,0.0,0.0,0.0,0.0,0.0,0.0,0.0,0.0,0.0,0.0,0.0,0.0,0.0,0.0,0.0,0.0,0.0,0.0,0.0,0.0,0.0,0.0,0.0,0.0,2.2371,2.2375,0.0,0.0,0.0,0.0,0.0,0.0,0.0,0.0,0.0,0.0,0.0,0.0,0.0,0.0,0.0,0.0,0.0,0.0,0.0,0.0,0.0,0.0,0.0,0.0,0.0,0.0,0.0,0.0,0.0,0.0,0.0,0.0,0.0,0.0,0.0,0.0,0.0,0.0,0.0,0.0,3.007,3.0299,3.0515,3.0858,3.0375,3.0018,2.992,2.9362,2.882,2.8441,2.7699,0.0,0.0,0.0,0.0,0.0,0.0,0.0,0.0,0.0,0.0,0.0,0.0,0.0,0.0,0.0,0.0,0.0,0.0,0.0,0.0,0.0,0.0,0.0,0.0,0.0,0.0,0.0,0.0,0.0,0.0,0.0,0.0,0.0,0.0,0.0,0.0,0.0,0.0,0.0,0.0,0.0,0.0,0.0,0.0,0.0,0.0,0.0,0.0,0.0,0.0,0.0,0.0,0.0,0.0,0.0,0.0,0.0,0.0,0.0,2.3002,2.2873,0.0,0.0,0.0,0.0,0.0,0.0,0.0,0.0,0.0,0.0,0.0,0.0,0.0,0.0,0.0,0.0,0.0,0.0,0.0,0.0,0.0,0.0,0.0,0.0,0.0,0.0,0.0,0.0,0.0,0.0,0.0,0.0,0.0,0.0,0.0,0.0,0.0,0.0,0.0,0.0,3.0182,3.0415,3.0556,3.0657,3.0474,3.021,2.9872,2.9517,2.9076,2.8511,2.796,0.0,0.0,0.0,0.0,0.0,0.0,0.0,0.0,0.0,0.0,0.0,0.0,0.0,0.0,0.0,0.0,0.0,0.0,0.0,0.0,0.0,0.0,0.0,0.0,0.0,0.0,0.0,0.0,0.0,0.0,0.0,0.0,0.0,0.0,0.0,0.0,0.0,0.0,0.0,0.0,0.0,0.0,0.0,0.0,0.0,0.0,0.0,0.0,0.0,0.0,0.0,0.0,0.0,2.341,2.3588,2.3852,2.3852,2.416,2.4645,2.382,2.3581,2.3788,2.3848,0.0,0.0,0.0,0.0,0.0,0.0,0.0,0.0,0.0,0.0,0.0,0.0,0.0,0.0,0.0,0.0,0.0,0.0,0.0,0.0,0.0,0.0,2.7606,2.7677,2.8152,2.8505,2.8101,0.0,0.0,0.0,0.0,0.0,0.0,0.0,0.0,0.0,0.0,0.0,3.0203,3.0542,3.0657,3.05,3.0731,3.0631,3.0052,2.9984,2.9676,2.8922,2.8563,2.8017,0.0,0.0,0.0,0.0,0.0,0.0,0.0,0.0,0.0,0.0,0.0,0.0,0.0,0.0,0.0,0.0,0.0,0.0,0.0,0.0,0.0,0.0,0.0,0.0,0.0,0.0,0.0,0.0,0.0,0.0,0.0,0.0,1.7662,1.8264,0.0,0.0,0.0,0.0,0.0,0.0,0.0,0.0,0.0,0.0,0.0,0.0,0.0,2.1963,2.2804,2.3188,2.3698,2.4319,2.4654,2.4851,2.4895,2.4895,2.4958,2.5021,2.4878,0.0,2.4483,2.4765,0.0,0.0,0.0,0.0,0.0,0.0,0.0,0.0,0.0,0.0,0.0,0.0,0.0,0.0,0.0,0.0,0.0,0.0,0.0,0.0,0.0,0.0,2.8442,2.8778,2.8964,2.8995,2.895,2.8884,2.8858,2.8858,2.8553,2.8425,0.0,0.0,0.0,0.0,0.0,0.0,3.0283,3.0397,3.0584,3.0885,3.065,3.0446,3.0327,3.0327,3.0002,2.9282,2.9196,2.869,2.7657,2.6965,0.0,0.0,0.0,0.0,0.0,0.0,0.0,0.0,0.0,0.0,0.0,0.0,0.0,0.0,0.0,0.0,0.0,0.0,0.0,0.0,0.0,0.0,0.0,0.0,0.0,0.0,0.0,0.0,0.0,1.7769,1.8437,1.8704,1.9025,1.9225,0.0,0.0,0.0,0.0,0.0,0.0,0.0,0.0,0.0,2.1595,2.225,2.2912,2.3507,2.3994,2.4578,2.5297,2.566,2.5958,2.6185,2.6185,2.6082,2.5906,2.5906,2.5692,2.539,2.5199,2.5144,2.5139,0.0,0.0,0.0,0.0,2.5073,2.5416,2.5568,2.5851,2.6185,2.6307,0.0,0.0,0.0,0.0,0.0,0.0,0.0,2.8047,2.8406,2.8899,2.9327,2.9533,2.9855,3.0175,3.0175,3.0301,3.0153,2.9236,2.89,2.8846,2.9038,2.9074,0.0,0.0,0.0,3.039,3.0647,3.0883,3.101,3.0995,3.1047,3.0977,3.0772,3.072,3.0481,2.9933,2.9357,2.882,2.8352,2.7407,2.6606,0.0,0.0,0.0,0.0,0.0,0.0,0.0,0.0,0.0,0.0,0.0,0.0,0.0,0.0,0.0,0.0,0.0,0.0,0.0,0.0,0.0,0.0,0.0,0.0,0.0,0.0,0.0,0.0,1.8744,1.9263,1.9359,1.9826,2.0134,0.0,0.0,0.0,0.0,0.0,0.0,2.1537,2.2124,2.2479,2.2479,2.3261,2.386,2.4216,2.4735,2.5335,2.5957,2.6404,2.679,2.7085,2.7195,2.71,2.6866,2.6866,2.6735,2.6427,2.575,2.5728,2.6039,2.5727,2.572,2.5834,2.5676,2.596,2.6359,2.6359,2.6712,2.7132,2.7229,2.7144,2.7073,2.7294,0.0,0.0,0.0,0.0,2.9093,2.9179,2.9693,3.0189,3.0189,3.0685,3.1132,3.1045,3.1215,3.1032,2.9927,2.9641,2.9605,2.9694,2.9641,0.0,3.0392,3.0465,3.0612,3.0958,3.1219,3.1323,3.1183,3.144,3.1492,3.1183,3.1148,3.0959,3.0429,2.9648,2.9044,2.8693,2.7751,2.6918,2.6171,0.0,0.0,0.0,0.0,0.0,0.0,0.0,0.0,0.0,0.0,0.0,0.0,0.0,0.0,0.0,0.0,0.0,0.0,0.0,0.0,0.0,0.0,0.0,0.0,0.0,0.0,0.0,0.0,0.0,2.0561,2.0855,0.0,0.0,0.0,0.0,2.1871,2.1924,2.2198,2.2773,2.3388,2.371,2.371,2.4249,2.469,2.5021,2.5459,2.5811,2.6098,2.6857,2.7287,2.7287,2.7679,2.7853,2.7838,2.7838,2.7838,2.7759,2.6879,2.6324,2.606,2.6731,2.682,2.6606,2.6972,2.7105,2.7154,2.7154,2.717,2.7253,2.7551,2.7866,2.8131,2.8131,2.8378,0.0,0.0,2.9529,2.9915,3.0224,3.0617,3.096,3.096,3.1269,3.1475,3.1063,3.1029,3.1098,3.1327,3.109,3.0915,3.132,0.0,3.0851,3.0953,3.0955,3.0958,3.1012,3.0994,3.1183,3.1543,3.1595,3.1595,3.1577,3.1577,3.123,3.0456,3.0371,2.9725,2.8369,2.7895,2.7358,2.6662,2.6278,0.0,0.0,0.0,0.0,0.0,0.0,0.0,0.0,0.0,0.0,0.0,0.0,0.0,0.0,0.0,0.0,0.0,0.0,0.0,0.0,0.0,0.0,0.0,0.0,0.0,0.0,0.0,0.0,2.1489,2.1777,0.0,2.2251,2.2265,2.2519,2.3121,2.3174,2.3394,2.3968,2.4396,2.4646,2.4646,2.5184,2.5569,2.5677,2.6168,2.662,2.7004,2.7776,2.827,2.8547,2.8763,2.8754,2.8549,2.8306,2.8101,2.7882,2.7563,2.74,2.729,2.7331,2.7605,2.7955,2.8096,2.8341,2.8551,2.8551,2.8551,2.8586,2.8691,2.8954,2.9216,2.9216,2.9476,2.9856,3.0267,3.066,3.102,3.1385,3.1799,3.209,3.209,3.2193,3.228,3.2107,3.209,3.2127,3.2275,3.1375,3.0613,3.0785,3.0665,3.0752,3.1288,3.1374,3.1563,3.204,3.209,3.2141,3.2297,3.2073,3.1829,3.1614,3.1358,3.0978,3.042,2.9942,2.9467,2.8964,2.8143,2.7509,2.7026,2.6663,2.6408,0.0,0.0,0.0,0.0,0.0,0.0,0.0,0.0,0.0,0.0,0.0,0.0,0.0,0.0,0.0,0.0,0.0,0.0,0.0,0.0,0.0,0.0,0.0,0.0,0.0,2.1269,2.1924,2.2546,2.2846,2.314,2.3434,2.346,2.371,2.4205,2.4302,2.4569,2.505,2.5451,2.5665,2.5665,2.6185,2.6439,2.6439,2.6774,2.7136,2.7432,2.823,2.8734,2.9003,2.9392,2.9467,2.9247,2.9003,2.8798,2.8554,2.8554,2.8615,2.8578,2.8037,2.8151,2.8627,2.8788,2.8992,2.9247,2.9393,2.9538,2.9647,2.9647,2.9776,2.9994,2.9994,3.0247,3.0625,3.0877,3.1332,3.175,3.204,3.2494,3.2915,3.2915,3.2981,3.3032,3.2949,3.2915,3.288,3.2743,3.1867,3.1183,3.1183,3.1183,3.1354,3.1903,3.1972,3.216,3.2657,3.2689,3.2689,3.2689,3.2467,3.2185,3.1786,3.1414,3.0981,3.0444,2.9851,2.9395,2.9125,2.8467,2.7868,2.7391,2.6914,2.6664,2.6615,0.0,0.0,0.0,0.0,0.0,0.0,0.0,0.0,0.0,0.0,0.0,0.0,0.0,0.0,0.0,0.0,0.0,0.0,0.0,0.0,0.0,0.0,0.0,2.1636,2.2385,2.3161,2.3777,2.4062,2.4356,2.4613,2.4653,2.4773,2.5117,2.5398,2.5678,2.6024,2.6533,2.6841,2.6841,2.7121,2.7322,2.7322,2.7322,2.7336,2.7377,2.8233,2.864,2.8681,2.9517,2.9921,2.9921,2.9906,2.9906,2.9906,2.9906,2.9906,2.9815,2.8898,2.8559,2.8597,2.8988,2.9138,2.9213,2.961,3.0021,3.0341,3.0341,3.0341,3.0378,3.0378,3.0654,3.0968,3.0968,3.1507,3.2134,3.2171,3.2736,3.3323,3.336,3.3597,3.373,3.3409,3.336,3.324,3.2863,3.2758,3.2777,3.2689,3.2689,3.2689,3.2726,3.2707,0.0,3.2724,3.2724,3.2724,3.2724,3.2707,3.256,3.212,3.1801,3.122,3.0442,3.0065,2.9567,2.884,2.8809,2.8456,2.7723,2.7073,2.6712,2.6632,0.0,0.0,0.0,0.0,0.0,0.0,0.0,0.0,0.0,0.0,0.0,0.0,0.0,0.0,0.0,0.0,0.0,0.0,0.0,0.0,0.0,2.2311,2.2832,2.2832,2.3233,2.3857,2.466,2.497,2.5264,2.5558,2.5785,2.6026,2.6319,2.6413,2.6587,2.6934,2.7095,2.7148,2.7148,2.7428,2.7575,2.7575,2.7831,2.8118,2.8411,2.898,2.9451,2.9783,3.0115,3.0258,3.0243,3.0009,2.9906,2.9906,2.9906,2.9906,2.9862,2.963,2.9695,2.9972,3.0066,3.0287,3.0563,3.0681,3.1019,3.1371,3.1371,3.1567,3.184,3.184,3.1918,3.2035,3.2323,3.2595,3.2906,3.3525,3.3879,3.4118,3.4466,3.459,3.4642,3.4539,3.4543,3.4509,3.4406,3.4389,3.4029,3.2878,3.2689,3.2812,3.3103,3.3155,3.3203,3.3494,3.3491,3.3491,3.3491,3.3011,3.2561,3.2114,3.1486,3.0754,3.0021,2.9872,2.9629,2.9171,2.8936,2.8551,2.8056,2.79,2.7799,0.0,0.0,0.0,0.0,0.0,0.0,0.0,0.0,0.0,0.0,0.0,0.0,0.0,0.0,0.0,0.0,0.0,0.0,0.0,0.0,0.0,0.0,2.3193,2.3861,2.4356,2.4476,2.4783,2.5531,2.5879,2.6172,2.6519,2.6693,2.6827,2.7001,2.7241,2.7455,2.767,2.7869,2.8003,2.8003,2.8177,2.8257,2.8257,2.8643,2.8937,2.9193,2.9831,3.0311,3.0608,3.0869,3.1005,3.0991,3.08,3.0712,3.0712,3.0712,3.0712,3.0627,0.0,0.0,0.0,0.0,3.051,3.0831,3.0831,3.1152,3.1551,3.1751,3.195,3.2173,3.2332,3.2412,3.2451,3.2666,3.2864,3.3118,3.3615,3.4025,3.4379,3.4654,3.485,3.5023,3.5023,3.5023,3.5023,3.5023,3.5023,0.0,3.384,3.3648,3.3717,3.3995,3.4029,3.4008,3.4059,3.4076,3.3932,3.3572,3.3179,3.2668,3.2118,3.1511,0.0,0.0,0.0,2.987,2.9536,2.9043,0.0,0.0,0.0,2.8191,2.8189,2.875,0.0,0.0,2.8814,2.9025,0.0,0.0,0.0,0.0,0.0,0.0,0.0,0.0,0.0,0.0,0.0,0.0,0.0,0.0,0.0,0.0,2.4022,2.4783,2.5931,2.5919,2.5972,2.644,2.6774,2.7081,2.7376,2.7469,2.751,2.751,2.7991,2.8328,2.837,2.8837,0.0,0.0,0.0,2.9162,2.9162,2.9596,2.9813,2.9857,3.0678,3.1124,3.1196,3.1626,3.1798,3.1798,3.1798,3.1798,3.1798,3.1798,3.1798,3.1681,3.058,3.0126,3.0126,3.0126,3.0329,3.0668,3.0668,0.0,0.0,3.1823,3.1953,3.2042,3.2483,3.2555,3.2523,3.2523,3.2778,3.3072,3.3112,3.3707,3.43,3.4339,3.4694,3.5065,3.5065,3.5104,3.5104,3.5104,3.5104,3.5104,3.5104,3.5075,3.5023,3.5023,3.5023,3.4886,3.4505,3.4415,3.4124,3.3403,3.3255,0.0,3.2134,3.1728,3.135,3.0946,3.0521,3.0187,2.9849,2.9282,2.8984,2.8984,2.863,2.8421,2.8421,2.9116,2.9679,3.0097,3.0054,3.0069,0.0,0.0,0.0,0.0,0.0,0.0,0.0,0.0,0.0,0.0,0.0,0.0,0.0,0.0,0.0,2.4596,2.5275,2.5904,2.656,2.7215,2.7536,2.7175,2.7603,2.7951,2.8005,2.8417,2.8655,2.8655,2.8761,2.8988,2.9376,2.9528,2.977,3.0203,3.0203,3.0203,3.0203,3.029,3.0506,3.0808,3.1023,0.0,3.1669,3.1755,3.1798,3.1798,3.1798,3.1798,3.1798,3.1798,3.1798,3.1768,3.152,3.1417,3.1417,3.1417,3.1474,3.1559,3.1559,3.1841,3.2306,3.2769,3.2963,3.3078,3.3533,3.3508,0.0,3.3286,3.3326,3.3489,3.3799,3.4002,3.4245,3.4626,3.5013,3.5312,3.5312,3.5634,3.5874,3.5874,3.5874,3.5874,3.5874,3.5378,3.5023,3.5023,3.5023,3.4989,3.4864,3.4535,3.4284,3.4082,3.3457,3.2856,3.2446,3.2055,3.1551,3.094,3.0521,3.0246,3.0219,3.0092,3.0013,3.0013,2.9949,2.9881,2.9881,3.0373,3.0807,3.1185,3.09,3.1131,0.0,0.0,0.0,0.0,0.0,0.0,0.0,0.0,0.0,0.0,0.0,2.296,2.3073,0.0,2.4836,2.5462,2.6172,2.6854,2.7402,2.8003,2.8245,2.7804,2.8272,2.8591,2.8591,2.9074,2.9336,2.9336,2.9733,3.0033,3.0295,3.0433,3.0604,3.0911,3.0911,3.0911,3.0911,3.113,3.1363,3.1538,3.1801,3.2062,3.228,3.228,3.228,3.228,3.228,3.228,3.228,3.228,3.228,3.228,3.228,3.209,3.1798,3.1798,3.1798,3.1798,3.1798,3.1969,3.2269,3.2996,3.3214,3.3371,3.4045,3.4128,3.4001,3.4001,3.4001,3.4042,3.4234,3.4484,3.4707,3.4956,3.5328,3.5601,3.5601,3.5765,3.5947,3.5947,3.5947,3.5947,3.5947,3.5628,3.5436,3.5561,3.5333,3.5146,3.4942,3.453,3.409,3.3687,3.3276,3.2839,3.2488,3.2132,3.1776,3.1411,3.0886,3.0585,3.0585,3.041,3.0315,3.0315,3.0315,3.0315,3.0315,3.0702,3.1304,3.2043,3.2086,3.2198,0.0,0.0,0.0,0.0,0.0,0.0,0.0,2.1689,2.2372,2.2372,2.3268,2.4084,2.4138,2.497,2.5812,2.6265,2.7055,2.7808,2.8399,2.8791,2.8985,2.8771,2.9047,2.9256,2.9343,2.9776,3.0021,3.0021,3.0592,3.0995,3.1097,3.1378,3.1563,3.1596,3.1653,3.1653,3.1596,3.1966,3.2143,3.2143,3.2586,3.2822,3.2822,3.2822,3.2822,3.2822,3.2822,3.2822,3.2822,3.2837,3.2866,3.2866,3.2939,3.2632,3.2149,3.2032,3.1988,3.1988,3.1988,3.2074,3.229,3.3135,3.3389,3.3557,3.435,3.4557,3.4509,3.4509,3.4509,3.4509,3.4509,3.4762,3.5058,3.5058,3.5394,3.5689,3.5689,3.5731,3.5814,3.5814,3.5814,3.5814,3.5814,3.5814,3.5867,3.6021,3.5733,3.5355,3.5026,3.4557,3.4024,3.3281,3.3153,3.2922,3.2563,3.2205,3.2015,3.2015,3.1474,3.1195,3.1195,3.0886,3.0728,3.0728,3.0728,3.0728,3.0728,3.1028,3.175,3.2819,3.3147,3.3247,1.918,1.9828,2.0494,2.0592,2.1216,2.1844,0.0,2.2773,2.3603,2.3603,2.4338,2.501,2.5264,2.5852,2.656,2.7375,2.8191,2.8905,2.9449,3.0182,3.0624,3.0582,3.0302,3.0211,3.065,3.0931,3.1128,3.1128,3.1201,3.1451,3.1864,3.2164,3.243,3.2645,3.2863,3.2877,3.2631,3.2675,3.2719,3.2719,3.2763,3.2822,3.2822,3.2822,3.2822,3.2822,3.2822,3.2822,3.2837,3.3071,3.3143,3.3172,3.3464,3.3537,3.3406,3.288,3.2705,3.2705,3.2705,3.2969,3.3409,3.3935,3.4114,3.4283,3.4798,3.4763,3.4509,3.4509,3.4509,3.4509,3.4509,3.4551,3.4594,3.4594,3.4931,3.5268,3.5268,3.5563,3.5814,3.5814,3.5814,3.5814,3.5814,3.5814,3.5823,3.5824,3.5766,3.565,3.5303,3.4883,3.4464,3.4009,3.3651,3.3319,3.296,3.2571,3.2348,3.2348,3.2285,3.2237,3.2237,3.2205,3.2173,3.2173,3.2173,3.2173,3.2173,3.2213,3.271,3.3595,3.3618,3.4054,2.0198,2.0893,2.1483,2.1643,2.2365,2.3054,2.3054,2.3843,2.4619,2.4756,2.5344,2.5932,2.6226,2.7149,2.7947,2.8327,2.935,3.0132,3.0382,3.0805,3.1292,3.18,3.1636,3.1432,3.1147,3.165,3.2013,3.2013,3.2453,3.2779,3.2974,3.3135,3.324,3.3334,3.3406,3.3421,3.3334,3.3334,3.3334,3.3334,3.3334,3.3334,3.3334,3.3334,3.3334,3.3334,3.3334,3.3334,3.3334,3.3421,3.3479,3.3494,3.364,3.3684,3.3654,3.3422,3.3334,3.3334,3.3334,3.3649,3.4142,3.4635,3.4974,3.5322,3.5807,3.5701,3.543,3.543,3.5287,3.5129,3.5129,3.5129,3.5129,3.5129,3.5301,3.543,3.543,3.5558,3.5687,3.5687,3.5687,3.5687,3.5687,3.5687,3.5687,3.5687,3.5544,3.5388,3.5241,3.4848,3.4468,3.4074,3.3877,3.3651,3.3342,3.2976,3.277,3.277,3.2523,3.2412,3.2412,3.2412,3.2412,3.2412,3.2412,3.2412,3.2412,3.2412,3.2961,3.4064,3.4064,3.4718,2.1216,2.1844,2.2311,2.2699,2.3407,2.4035,2.4151,2.4847,2.5504,2.5705,2.6226,2.676,2.7176,2.8166,2.8976,2.9268,3.0291,3.1129,3.1199,3.157,3.2031,3.2633,3.2793,3.2615,3.2013,3.2468,3.2837,3.2837,3.3371,3.3684,3.3684,3.3771,3.3786,3.3684,3.3771,3.3771,3.3684,3.3684,3.3684,3.3684,3.3684,3.3684,3.3684,3.3684,3.3684,3.3684,3.3684,3.3684,3.3698,3.3786,3.3815,3.383,3.3917,3.3993,3.3993,3.3993,3.3844,3.3729,3.3866,3.4244,3.4789,3.5226,3.5707,3.6142,3.6501,3.6431,3.6241,3.6241,3.605,3.5859,3.5859,3.5859,3.5859,3.5859,3.5859,3.5859,3.5859,3.5859,3.5828,3.5748,3.5716,3.5701,3.5633,3.5617,3.5617,3.5617,3.543,3.5273,3.5177,3.4784,3.4414,3.4175,3.4144,3.4016,3.3667,3.3438,3.3247,3.3151,3.2857,3.2698,3.2698,3.2698,3.2698,3.2698,3.2698,3.2761,3.2857,3.2961,3.3637,3.4725,3.4847,3.5577,2.2118,2.2605,2.3014,2.3616,2.4168,2.4653,2.497,2.5718,2.6346,2.636,2.6827,2.7499,2.8208,2.866,2.924,3.0193,3.1063,3.1653,3.1909,3.267,3.3142,3.3201,3.3479,3.3669,3.3609,3.3669,3.3669,3.3669,3.3684,3.3684,3.3684,3.4036,3.4066,3.3698,3.4036,3.4051,3.3684,3.3684,3.3684,3.3684,3.3684,3.3684,3.3684,3.3684,3.3684,3.3684,3.3684,3.3684,3.3713,3.4066,3.4197,3.4241,3.4549,3.468,3.468,3.468,3.4271,3.3775,3.429,3.4789,3.5287,3.5752,3.6186,3.6606,3.659,3.659,3.659,3.659,3.6574,3.6574,3.6574,3.6574,3.6574,3.6574,3.6574,3.6574,3.6574,3.6574,3.6479,3.6145,3.6082,3.5987,3.5681,3.5617,3.5617,3.5617,3.5601,3.5458,3.5065,3.4716,3.4493,3.4493,3.4493,3.435,3.4032,3.3985,3.3826,3.3492,3.346,3.346,3.346,3.346,3.346,3.346,3.346,3.3619,3.3969,3.4394,3.5029,3.5865,3.6325,3.676,2.2844,2.3492,2.4182,2.4783,2.5371,2.5879,2.6172,2.6613,2.7149,2.7636,2.788,2.8276,2.898,2.9804,3.0481,3.0823,3.1728,3.2498,3.2774,3.3039,3.3362,3.3801,3.3947,3.4139,3.4358,3.4183,3.4005,3.4005,3.4256,3.4373,3.4373,3.4475,3.449,3.4388,3.449,3.449,3.4373,3.4373,3.4373,3.4373,3.4373,3.4373,3.4373,3.4373,3.4373,3.4373,3.4373,3.4373,3.4388,3.449,3.4549,3.4549,3.4666,3.471,3.471,3.471,3.4563,3.4419,3.4914,3.5422,3.5929,3.6435,3.6894,3.7305,3.7305,3.7146,3.6956,3.6956,3.6781,3.659,3.659,3.659,3.659,3.659,3.659,3.659,3.659,3.659,3.6574,3.6447,3.6431,3.64,3.6273,3.6257,3.6257,3.6257,3.5875,3.5526,3.5415,3.5287,3.5129,3.4874,3.4816,3.4716,3.4366,3.4334,3.4287,3.4159,3.4159,3.4159,3.4159,3.4159,3.4159,3.4159,3.4159,3.4391,3.4812,3.4964,3.549,3.6376,3.6543,3.6971,2.3688,2.4319,2.5053,2.5678,2.6186,2.6667,2.7069,2.7459,2.7893,2.8496,2.8703,2.8966,2.9621,3.0382,3.1024,3.131,3.2077,3.2749,3.3143,3.3304,3.3567,3.4154,3.4314,3.4475,3.468,3.4519,3.4388,3.4388,3.4592,3.471,3.471,3.471,3.471,3.471,3.471,3.471,3.471,3.471,3.471,3.471,3.471,3.471,3.471,3.471,3.471,3.471,3.471,3.471,3.471,3.471,3.471,3.471,3.471,3.471,3.471,3.471,3.4909,3.5232,3.5551,3.5894,3.6312,3.6962,3.744,3.7717,3.7717,3.7512,3.7321,3.7321,3.7162,3.6988,3.6988,3.6988,3.6988,3.6988,3.6988,3.6988,3.6988,3.6988,3.694,3.6813,3.6781,3.6749,3.6622,3.659,3.659,3.659,3.6225,3.5907,3.578,3.5653,3.5494,3.5256,3.5224,3.5081,3.4731,3.47,3.4636,3.4509,3.4509,3.4509,3.4509,3.4509,3.4509,3.4509,3.4678,3.4953,3.5378,3.5717,3.6247,3.6972,3.7141,3.7487,2.4506,2.5079,2.5705,2.6346,2.6707,2.7068,2.7826,2.8235,2.8565,2.9033,2.934,2.9635,3.0109,3.045,3.0851,3.1653,3.2076,3.2515,3.3128,3.3494,3.3815,3.4197,3.4519,3.471,3.471,3.471,3.471,3.471,3.471,3.471,3.471,3.471,3.471,3.471,3.471,3.471,3.471,3.471,3.471,3.4724,3.4724,3.4724,3.4724,3.4724,3.4724,3.471,3.471,3.471,3.471,3.471,3.471,3.471,3.471,3.471,3.471,3.4724,3.5291,3.6018,3.6186,3.6265,3.6451,3.7441,3.7765,3.7749,3.7749,3.7733,3.7717,3.7717,3.7717,3.7717,3.7717,3.7717,3.7717,3.7717,3.7717,3.7717,3.7717,3.7717,3.7575,3.7226,3.7101,3.7051,3.6702,3.6654,3.6654,3.6654,3.6638,3.6511,3.6177,3.5844,3.5637,3.5637,3.5665,3.5462,3.507,3.5022,3.4879,3.4588,3.4557,3.4557,3.4557,3.4557,3.4557,3.4599,3.5022,3.5411,3.5826,3.6723,3.735,3.773,3.816,3.8349,2.5436,2.5892,2.6439,2.7581,2.7921,2.8181,2.8938,2.9147,2.9272,2.9502,2.9599,2.978,3.0275,3.0563,3.0971,3.171,3.2076,3.2588,3.3435,3.364,3.3949,3.4519,3.4651,3.471,3.471,3.471,3.471,3.471,3.471,3.471,3.471,3.471,3.471,3.471,3.471,3.471,3.471,3.471,3.4827,3.5093,3.5093,3.5093,3.5093,3.5093,3.4914,3.471,3.471,3.471,3.471,3.471,3.471,3.471,3.471,3.471,3.4739,3.4958,3.5469,3.6093,3.6733,3.7221,3.7647,3.8245,3.8259,3.8068,3.8068,3.7877,3.7717,3.7717,3.7717,3.7717,3.7717,3.7717,3.7717,3.7717,3.7717,3.7717,3.7717,3.7717,3.7685,3.7544,3.7528,3.7512,3.7417,3.7401,3.7401,3.7401,3.7162,3.686,3.6511,3.64,3.6336,3.6336,3.6114,3.5939,3.5844,3.5589,3.5399,3.5303,3.5303,3.5303,3.5303,3.5303,3.5476,3.5822,3.5951,3.6518,3.7575,3.7792,3.8281,3.9048,3.9136,3.9179,2.6486,2.7132,2.777,2.8537,2.88,2.9035,2.9662,2.9675,2.9658,2.9941,2.9879,2.9902,3.032,3.0536,3.0876,3.1666,3.1959,3.2456,3.3523,3.3684,3.3932,3.4622,3.471,3.471,3.471,3.471,3.471,3.471,3.471,3.471,3.471,3.471,3.471,3.471,3.471,3.4768,3.49,3.5093,3.5255,3.5416,3.5416,3.5416,3.5416,3.5416,3.5255,3.49,3.49,3.4827,3.471,3.471,3.471,3.471,3.471,3.4783,3.4929,3.5137,3.5863,3.6815,3.7252,3.8046,3.8797,3.8704,3.856,3.8417,3.8417,3.8274,3.8084,3.7941,3.7909,3.7877,3.7765,3.7717,3.7717,3.7717,3.7717,3.7717,3.7717,3.7717,3.7717,3.7717,3.7717,3.7717,3.7717,3.7717,3.7717,3.7717,3.7496,3.7289,3.7099,3.6797,3.659,3.659,3.6431,3.632,3.632,3.6145,3.6018,3.6018,3.6018,3.6018,3.6018,3.6018,3.6239,3.6739,3.6959,3.7496,3.8443,3.8663,3.9045,3.9515,3.9515,3.9515,2.7617,2.8383,2.9116,2.9213,2.941,2.9691,3.0122,2.9975,2.9883,3.0191,3.0038,2.9921,3.0214,3.0343,3.0722,3.1605,3.1868,3.2396,3.3617,3.3852,3.4147,3.475,3.4821,3.4789,3.4789,3.4756,3.471,3.471,3.471,3.471,3.471,3.471,3.4724,3.4768,3.4812,3.4958,3.5269,3.5548,3.5709,3.5753,3.5753,3.5753,3.5753,3.5753,3.5577,3.5269,3.5269,3.5093,3.4768,3.4768,3.4739,3.471,3.4753,3.4929,3.5211,3.5299,3.6319,3.7699,3.7745,3.8689,3.9705,3.9037,3.8799,3.8767,3.8767,3.8735,3.864,3.8354,3.8274,3.8195,3.7893,3.7812,3.7796,3.7796,3.7749,3.7717,3.7717,3.7717,3.7717,3.7717,3.7717,3.7717,3.7717,3.7717,3.7717,3.7717,3.7717,3.7717,3.7717,3.7131,3.6749,3.6749,3.6702,3.667,3.667,3.6622,3.659,3.659,3.659,3.659,3.659,3.659,3.6875,3.7367,3.7768,3.8336,3.8946,3.9362,3.9617,3.9669,3.9669,3.9669,2.8615,2.8949,2.9255,2.9855,3.0053,3.0149,3.0331,3.0311,3.0162,2.9661,2.954,2.9511,2.9569,3.0059,3.0717,3.1458,3.2321,3.3226,3.3911,3.4561,3.5106,3.5455,3.5356,3.5273,3.5273,3.4929,3.471,3.471,3.471,3.471,3.471,3.471,3.4827,3.5123,3.5386,3.5548,3.5606,3.5665,3.5826,3.6041,3.6041,3.6041,3.6041,3.6041,3.5866,3.5606,3.5606,3.543,3.5123,3.5105,3.4944,3.4724,3.5035,3.5152,3.5269,3.5749,3.6706,3.773,3.802,3.8843,3.9785,3.9673,3.9371,3.9132,3.9132,3.8926,3.8672,3.8624,3.8608,3.8592,3.8529,3.8306,3.81,3.81,3.7877,3.7717,3.7717,3.7717,3.7717,3.7717,3.7717,3.7717,3.7717,3.7717,3.7717,3.7717,3.7717,3.7717,3.7717,3.7606,3.7526,3.7526,3.721,3.699,3.699,3.6765,3.659,3.659,3.659,3.659,3.659,3.659,3.7009,3.7858,3.7947,3.8586,3.9799,3.9888,4.0087,4.0395,4.0395,4.0395,2.9489,2.9811,3.0047,3.0413,3.0499,3.0495,3.0422,3.0258,2.9994,2.9511,2.9449,2.9493,2.9671,3.0341,3.1058,3.1722,3.2597,3.3395,3.4023,3.4709,3.5318,3.5654,3.579,3.5693,3.5413,3.5195,3.4976,3.471,3.471,3.471,3.471,3.4856,3.5137,3.5445,3.5767,3.5895,3.5895,3.6056,3.6217,3.6363,3.6363,3.6363,3.6363,3.6363,3.6202,3.5895,3.5895,3.5753,3.546,3.5474,3.5386,3.5255,3.5401,3.5562,3.5738,3.6303,3.711,3.8023,3.8485,3.9134,3.9817,3.9817,3.9641,3.9498,3.9498,3.9387,3.9212,3.9021,3.8958,3.8926,3.8735,3.8765,3.8889,3.8889,3.8994,3.9052,3.9052,3.9052,3.9052,3.9052,3.9052,3.8958,3.8678,3.8632,3.8538,3.8242,3.8211,3.8211,3.8211,3.8211,3.8068,3.7765,3.7512,3.7401,3.7401,3.7258,3.7162,3.7162,3.7162,3.7162,3.7162,3.7162,3.7601,3.8552,3.8552,3.9148,4.0327,4.0327,4.0412,4.0583,4.0583,4.0583,3.0356,3.079,3.1123,3.1123,3.1022,3.089,3.0647,3.0321,2.9941,2.9616,2.9585,2.9715,2.9985,3.0657,3.1404,3.1936,3.2719,3.348,3.4114,3.4806,3.5436,3.5851,3.6098,3.6081,3.5786,3.5646,3.5381,3.4882,3.48,3.4797,3.4797,3.5163,3.5533,3.5782,3.6056,3.6217,3.6217,3.648,3.6597,3.6597,3.6597,3.6597,3.6597,3.6597,3.6466,3.6217,3.6217,3.6041,3.5797,3.5797,3.5801,3.5838,3.5912,3.6137,3.6519,3.6983,3.7666,3.8433,3.8874,3.9362,3.9817,3.9817,3.9817,3.9817,3.9817,3.9817,3.9704,3.9418,3.9339,3.9275,3.9133,3.9354,3.9621,3.9682,3.9979,4.0309,4.0309,4.0309,4.0309,4.0309,4.0309,4.0121,3.9602,3.9524,3.9319,3.8782,3.8688,3.8688,3.8688,3.8688,3.8481,3.7941,3.7893,3.7893,3.7893,3.7893,3.7893,3.7893,3.7893,3.7893,3.7893,3.7893,3.8341,3.931,3.9356,3.9816,4.0823,4.0823,4.0823,4.0823,4.0823,4.0823,3.1193,3.1704,3.205,3.205,3.1822,3.1447,3.1209,3.0819,3.043,3.0096,3.0043,3.0067,3.0097,3.0739,3.1409,3.1782,3.2745,3.3701,3.4382,3.5094,3.5791,3.644,3.6457,3.6465,3.6745,3.6405,3.5894,3.5366,3.5227,3.5167,3.5167,3.569,3.6041,3.607,3.6392,3.6553,3.6553,3.6583,3.6597,3.6597,3.6597,3.6597,3.6597,3.6597,3.6583,3.6553,3.6553,3.6378,3.607,3.607,3.6185,3.6397,3.6695,3.7072,3.7584,3.7937,3.8467,3.8923,3.8971,3.9362,3.9817,3.9817,3.9817,3.9817,3.9817,3.9817,3.9801,3.9769,3.9769,3.985,4.0239,4.0141,4.0025,4.0203,4.0262,4.0309,4.0309,4.0309,4.0309,4.0309,4.0309,4.0121,3.9602,3.9524,3.9319,3.8782,3.8688,3.8688,3.8688,3.8688,3.8672,3.8608,3.8592,3.8592,3.8592,3.8592,3.8592,3.8592,3.8592,3.8592,3.8592,3.8592,3.9064,4.0099,4.0099,4.0568,4.1594,4.1594,4.1594,4.1594,4.1594,4.1594,3.1491,3.1883,3.2128,3.1915,3.1721,3.1477,3.0968,3.07,3.0441,2.9892,3.02,3.0431,3.0192,3.098,3.1779,3.2126,3.2894,3.373,3.4414,3.5129,3.5828,3.6511,3.6727,3.6846,3.6884,3.673,3.6482,3.6214,3.6026,3.6008,3.6216,3.6128,3.6202,3.6407,3.6539,3.6597,3.6597,3.6597,3.6597,3.6597,3.6597,3.6597,3.6597,3.6597,3.6809,3.7106,3.7106,3.7179,3.7354,3.7354,3.7425,3.7515,3.7651,3.7794,3.8069,3.8534,3.8825,3.9069,3.9362,3.9622,3.9817,3.9817,3.9817,3.9817,3.9817,3.9817,3.9865,4.0141,4.0238,4.0336,4.0869,4.1092,4.1345,4.172,4.1781,4.1781,4.1781,4.1781,4.1781,4.1781,4.1781,4.1543,4.0732,4.0588,4.03,3.9483,3.9339,3.9339,3.9339,3.9339,3.9339,3.9339,3.8958,3.8688,3.8688,3.8688,3.8688,3.8688,3.8688,3.8688,3.8688,3.8688,3.9161,4.0198,4.0198,4.0715,4.1697,4.1697,4.1697,4.1697,4.1697,4.1697,3.1618,3.1971,3.2175,3.1928,3.1749,3.1564,3.1071,3.0848,3.0554,3.0076,3.0451,3.0736,3.0447,3.1117,3.1903,3.2332,3.2841,3.3476,3.4382,3.4938,3.5558,3.6352,3.6765,3.6933,3.6959,3.6993,3.7071,3.7035,3.6896,3.694,3.7286,3.696,3.6657,3.6597,3.6597,3.6597,3.6597,3.6597,3.6711,3.6859,3.6859,3.6908,3.7056,3.7056,3.7303,3.7647,3.7647,3.7859,3.8203,3.8203,3.8301,3.8448,3.8448,3.8546,3.8742,3.9118,3.9264,3.9313,3.967,3.9817,3.9817,3.9817,3.9914,3.9995,3.9995,3.9995,4.0093,4.061,4.0853,4.1046,4.1449,4.1931,4.2364,4.2717,4.2813,4.2813,4.2813,4.2813,4.2813,4.2813,4.2813,4.2477,4.1449,4.1304,4.0982,3.9963,3.9817,3.9817,3.9817,3.9817,3.9817,3.9817,3.9355,3.9005,3.9005,3.9005,3.9005,3.9005,3.9005,3.9005,3.9005,3.9005,3.9483,4.0528,4.0528,4.1002,4.2039,4.2039,4.2039,4.2039,4.2039,4.2039,3.1619,3.211,3.2388,3.2372,3.2134,3.1896,3.188,3.1379,3.0871,3.0908,3.0908,3.0908,3.0893,3.1157,3.1617,3.2301,3.2412,3.2904,3.4302,3.4509,3.4906,3.5987,3.64,3.6749,3.7053,3.7256,3.7522,3.7865,3.779,3.7837,3.8173,3.8203,3.7697,3.6661,3.6597,3.6597,3.6597,3.6597,3.6859,3.7401,3.7401,3.7647,3.8203,3.8203,3.8203,3.8203,3.8203,3.8203,3.8203,3.8203,3.8482,3.902,3.902,3.9313,3.9768,3.9817,3.9817,3.9817,3.9817,3.9817,3.9817,3.9817,4.0093,4.0513,4.0513,4.0513,4.061,4.1159,4.169,4.2076,4.2076,4.2412,4.2813,4.2813,4.2813,4.2813,4.2813,4.2813,4.2813,4.2813,4.2813,4.2477,4.1449,4.1304,4.0982,3.9963,3.9817,3.9817,3.9817,3.9817,3.9817,3.9817,3.9817,3.9801,3.9801,3.9801,3.9801,3.9801,3.9801,3.9801,3.9801,3.9801,4.0238,4.1256,4.1304,4.1787,4.2796,4.2796,4.2796,4.2796,4.2796,4.2796,3.1895,3.22,3.2376,3.2117,3.1808,3.149,3.1252,3.0823,3.0426,3.0203,3.0537,3.0829,3.0537,3.0982,3.1617,3.2301,3.2412,3.2904,3.4302,3.4509,3.4906,3.5971,3.6606,3.7099,3.7464,3.7786,3.8103,3.8435,3.827,3.8322,3.8711,3.8399,3.8056,3.7697,3.7697,3.7697,3.7697,3.7697,3.781,3.7957,3.7957,3.8056,3.8203,3.8203,3.8399,3.8727,3.8727,3.8923,3.928,3.928,3.9378,3.9557,3.9557,3.967,3.9817,3.9817,3.9817,3.9817,3.9817,3.9995,4.0287,4.0287,4.0627,4.1111,4.1497,4.1353,4.1159,4.169,4.2172,4.2556,4.2556,4.2717,4.2813,4.2813,4.2813,4.2813,4.2813,4.2813,4.2813,4.2813,4.2813,4.2477,4.1449,4.1304,4.0982,3.9963,3.9817,3.9817,3.9817,3.9817,3.9817,3.9817,3.9817,3.9817,3.9817,3.9817,3.9817,3.9817,3.9817,3.9817,3.9817,3.9817,4.0255,4.1256,4.1304,4.1787,4.2813,4.2813,4.2813,4.2813,4.2813,4.2813,3.1764,3.194,3.2043,3.1813,3.15,3.1161,3.0937,3.0506,3.0113,3.0052,3.0489,3.09,3.0771,3.1356,3.2081,3.2791,3.2904,3.3387,3.4822,3.4889,3.5125,3.6145,3.6781,3.7274,3.7685,3.81,3.8481,3.8672,3.8812,3.9045,3.9298,3.8987,3.8791,3.8791,3.8399,3.8203,3.8203,3.8203,3.8301,3.8482,3.8482,3.8595,3.8791,3.8791,3.8971,3.9313,3.9313,3.946,0.0,3.9817,3.9817,3.9817,3.9817,3.9817,3.9817,3.9817,3.9817,3.9817,3.9995,4.0287,4.0513,4.0756,4.1159,4.169,4.222,4.2124,4.1948,4.2268,4.2573,4.2813,4.2813,4.2813,4.2813,4.2813,4.2813,4.2813,4.2813,4.2813,4.2813,4.2813,4.2813,4.2525,4.1739,4.1449,4.1014,4.019,3.9914,3.9817,3.9817,3.9928,4.0008,4.0008,4.007,4.0198,4.0198,4.0087,4.0008,4.0008,4.0008,3.9911,3.9817,3.9817,4.0255,4.1256,4.1304,4.1787,4.2813,4.2813,4.2813,4.2813,4.2813,4.2813,0.0,3.1485,3.1482,3.1515,3.1203,3.0891,3.0891,3.0375,0.0,3.032,3.0754,3.1125,3.1441,3.2109,3.2835,3.3595,3.371,3.4222,3.57,3.5586,3.5714,3.6581,3.6998,3.7365,3.7763,3.8353,3.8751,3.8735,3.9419,3.9817,3.9817,3.9817,3.9817,3.9817,3.884,3.8301,3.8301,3.8301,3.8546,3.9069,3.9069,3.9313,3.9817,3.9817,3.9817,3.9817,3.9817,3.9817,3.9817,3.9817,3.9817,3.9817,3.9817,3.9817,3.9817,3.9817,3.9817,3.9914,4.0319,4.0562,4.0707,4.1208,4.1739,4.222,4.2669,4.2813,4.2813,4.2813,4.2813,4.2813,4.2813,4.2813,4.2813,4.2813,4.283,4.2847,4.2847,4.2864,4.2899,4.2899,4.2899,4.2737,4.2256,4.1725,4.1193,4.0643,4.0157,3.988,3.988,4.0133,4.0324,4.0324,4.0594,4.0801,4.0817,4.0515,4.0324,4.0324,4.0324,4.0165,3.9864,3.9848,4.0319,4.1256,4.1369,4.1852,4.2813,4.2813,4.2813,4.2813,4.2813,4.2813,3.1006,0.0,3.1496,3.1485,3.1227,3.0993,0.0,3.0605,3.0287,3.0395,3.094,3.1421,3.1478,3.2109,3.2835,3.3595,3.371,3.4222,3.57,3.6497,3.7124,3.7598,3.799,3.8373,3.8593,3.9014,3.9195,3.9069,3.9514,3.9817,3.9817,3.9817,3.9817,3.9817,3.9573,3.9427,3.9427,3.9427,3.9475,3.9622,3.9622,3.967,3.9817,3.9817,3.9817,3.9817,3.9817,3.9817,3.9817,3.9817,3.9817,3.9817,3.9817,3.9817,3.9817,3.9817,4.0044,4.0368,4.0465,4.1046,4.1787,4.2268,4.2525,4.2669,4.2765,4.2813,4.2813,4.2813,4.2813,4.2813,4.2813,4.2813,4.2813,4.2813,4.3018,4.3272,4.3272,4.3512,4.3734,4.3734,4.3734,4.357,4.3015,4.2474,4.1949,4.1405,4.0894,4.0546,4.0546,4.061,4.0674,4.0674,4.0737,4.0896,4.1166,4.0864,4.0674,4.0674,4.0674,4.0515,4.0181,4.0558,4.0968,4.1272,4.2044,4.2573,4.2813,4.2813,4.2813,4.2813,4.2813,4.2813,3.0617,3.1127,3.1561,3.1548,3.1268,3.1009,3.1009,3.0681,3.0491,3.0871,3.139,3.1896,3.2265,3.2923,3.3612,3.42,3.4586,3.5244,3.6492,3.7465,3.8108,3.8234,3.8597,3.8951,3.9249,3.9579,3.9796,3.9915,4.0287,4.0497,4.0497,4.0497,4.0497,4.0497,4.0238,3.9995,3.9817,3.9817,3.9817,3.9817,3.9817,3.9817,3.9817,3.9817,3.9817,3.9817,3.9817,3.9817,3.9817,3.9817,3.9817,3.9817,3.9817,3.9817,3.9817,4.0044,4.0271,4.0562,4.1046,4.1787,4.246,4.2717,4.2813,4.2813,4.2813,4.2813,4.2813,4.2813,4.2813,4.2813,4.2813,4.2933,4.3052,4.3052,4.3392,4.3683,4.3683,4.3837,4.3991,4.3991,4.3991,4.3893,4.3629,4.2938,4.2295,4.1997,4.1284,4.0785,4.0785,4.0928,4.1023,4.1023,4.1166,4.1442,4.1903,4.1794,4.15,4.1039,4.1274,4.123,4.0894,4.1406,4.1784,4.1908,4.2514,4.2813,4.2813,4.2813,4.2813,4.2813,4.2813,4.2813,3.0292,3.0943,3.1526,3.1577,3.1347,3.1133,3.1149,3.0916,3.0874,3.1618,3.2045,3.2527,3.3252,3.3922,3.4556,3.507,3.5823,3.6676,3.7579,3.8363,3.8808,3.8801,3.9171,3.954,3.9875,4.0223,4.054,4.0873,4.1139,4.1304,4.1304,4.1304,4.1304,4.1304,4.0869,4.0433,4.0011,3.9865,3.9817,3.9817,3.9817,3.9817,3.9817,3.9817,3.9817,3.9817,3.9817,3.9817,3.9817,3.9817,3.9817,3.9817,3.9817,3.9865,3.9947,4.0368,4.061,4.0901,4.1883,4.246,4.2813,4.2813,4.2813,4.2813,4.2813,4.2813,4.2813,4.2813,4.2813,4.283,4.2881,4.3121,4.3426,4.3477,4.3786,4.4077,4.4077,4.4128,4.4162,4.4162,4.4162,4.4162,4.4162,4.3354,4.2658,4.2559,4.1695,4.1044,4.0944,4.1264,4.149,4.149,4.1812,4.2259,4.277,4.2821,4.2487,4.1674,4.2047,4.2187,4.1945,4.2328,4.2591,4.2829,4.2945,4.2984,4.2984,4.2916,4.2899,4.2899,4.283,4.2813,3.0292,3.072,3.1183,3.1526,3.1559,3.1574,3.1863,3.1876,3.1979,3.2445,3.2838,3.3231,3.3645,3.4094,3.4727,3.5755,3.6857,3.769,3.8126,3.8904,3.9474,3.976,4.0425,4.0848,4.0755,4.1077,4.1271,4.1253,4.1288,4.1304,4.1304,4.1304,4.1304,4.1304,4.1208,4.1111,4.1079,4.0255,3.9817,3.9817,3.9817,3.9817,3.9817,3.9817,3.9817,3.9817,3.9817,3.9817,3.9817,3.9817,3.9817,3.9817,3.9817,4.0044,4.0416,4.0465,4.1046,4.1931,4.2508,4.2765,4.2813,4.2813,4.2813,4.2813,4.2813,4.2813,4.2813,4.2813,4.2813,4.2881,4.3238,4.3358,4.3495,4.382,4.4179,4.4436,4.4436,4.471,4.495,4.495,4.495,4.495,4.495,4.443,4.3824,4.3403,4.2795,4.2251,4.1726,4.2131,4.2485,4.2485,4.2925,4.3263,4.3365,4.3365,4.3349,4.3181,4.3232,4.332,4.3357,4.3188,4.33,4.3758,4.3805,4.382,4.382,4.3477,4.3323,4.3323,4.295,4.2813,3.0292,3.0686,3.1148,3.173,3.1867,3.1919,3.2054,3.2259,3.2535,3.2966,3.3306,3.3683,3.4059,3.4779,3.5686,3.6857,3.7604,3.8272,3.8854,3.9419,3.9984,4.0583,4.096,4.1296,4.1642,4.1815,4.1975,4.2107,4.2141,4.2141,4.2141,4.2141,4.2141,4.2141,4.1835,4.1739,4.1739,4.0966,4.0594,4.0594,4.0594,4.0594,4.0594,4.0594,4.0594,4.0594,4.0594,4.0594,4.0594,4.0594,4.0594,4.0594,4.0594,4.0724,4.0966,4.1256,4.1835,4.2508,4.2717,4.2813,4.2813,4.2813,4.2813,4.2813,4.2813,4.2813,4.2847,4.3052,4.3104,4.3186,4.3358,4.37,4.406,4.4248,4.4573,4.4847,4.4847,4.4984,4.5104,4.5104,4.5104,4.5104,4.5104,4.4667,4.4211,4.3991,4.3483,4.3009,4.2754,4.2958,4.3111,4.3111,4.3365,4.3619,4.389,4.3941,4.3941,4.3941,4.3941,4.406,4.4446,4.4122,4.4017,4.4282,4.4094,4.3991,4.3991,4.382,4.3717,4.3717,4.3546,4.3477,3.0563,3.0892,3.1339,3.206,3.2177,3.214,3.2328,3.2689,3.3066,3.346,3.3837,3.4248,3.471,3.572,3.6799,3.7741,3.822,3.8734,3.9488,3.9933,4.0412,4.1143,4.1366,4.1662,4.2244,4.2364,4.2488,4.2779,4.2813,4.2813,4.2813,4.2813,4.2813,4.2813,4.246,4.2268,4.2268,4.1835,4.1546,4.1304,4.1304,4.1304,4.1304,4.1304,4.1304,4.1304,4.1304,4.1304,4.1304,4.1304,4.1304,4.1304,4.1304,4.1353,4.1546,4.2076,4.246,4.2813,4.2813,4.2813,4.2813,4.2813,4.2813,4.2813,4.2813,4.2864,4.3001,4.3323,4.3529,4.3666,4.3666,4.4094,4.4506,4.4642,4.4899,4.5104,4.5104,4.5104,4.5104,4.5104,4.5104,4.5104,4.5104,4.4768,4.4464,4.4312,4.3941,4.3619,4.3518,4.3619,4.367,4.367,4.3772,4.4042,4.4464,4.4515,4.4515,4.4515,4.4515,4.4667,4.5054,4.483,4.4659,4.4659,4.4402,4.4265,4.4265,4.4162,4.4128,4.4111,4.4025,4.3991,3.1324,3.1474,3.1722,3.2488,3.2376,3.2313,3.3032,3.3477,3.3816,3.4231,3.4663,3.5121,3.584,3.6926,3.7817,3.822,3.8614,3.9128,3.9837,4.031,4.0703,4.116,4.1782,4.2227,4.2279,4.2556,4.2779,4.2813,4.2813,4.2813,4.2813,4.2813,4.2813,4.2813,4.2765,4.2765,4.2765,4.2717,4.2237,4.1304,4.1304,4.1304,4.1304,4.1304,4.1304,4.1304,4.1304,4.1304,4.1304,4.1304,4.1304,4.1304,4.1304,4.1594,4.2124,4.2573,4.2765,4.2813,4.2813,4.2813,4.2813,4.2813,4.2813,4.2813,4.2813,4.3052,4.3375,4.3409,4.3906,4.4436,4.4436,4.4438,4.4575,4.4984,4.5087,4.5104,4.5104,4.5104,4.5104,4.5104,4.5104,4.5104,4.5104,4.5071,4.4852,4.4363,4.4262,4.4042,4.3569,4.3941,4.4262,4.4262,4.47,4.5003,4.5054,4.5054,4.5054,4.5054,4.5054,4.5054,4.5104,4.5087,4.507,4.507,4.5036,4.5036,4.5036,4.4659,4.4438,4.4471,4.4145,4.3991,3.1462,3.2066,3.2791,3.3302,3.3503,3.3532,3.36,3.3905,3.4299,3.4676,3.5241,3.5977,3.6995,3.7672,3.8238,3.8588,3.917,3.9666,3.9957,4.0566,4.108,4.1457,4.1971,4.2381,4.2574,4.2727,4.2813,4.2813,4.2813,4.2813,4.2813,4.2813,4.2813,4.2813,4.2813,4.2813,4.2813,4.2813,4.2621,4.222,4.222,4.222,4.222,4.222,4.222,4.222,4.222,4.222,4.222,4.222,4.222,4.222,4.222,4.2381,4.2556,4.2717,4.2813,4.2813,4.2813,4.2813,4.2813,4.2813,4.2813,4.2847,4.3087,4.3289,4.3512,4.3974,4.4299,4.4522,4.4522,4.471,4.4933,4.507,4.5104,4.5104,4.5104,4.5104,4.5104,4.5104,4.5104,4.5104,4.5104,4.5104,4.5003,4.4818,4.4818,4.47,4.4549,4.465,4.4818,4.4818,4.497,4.5104,4.5104,4.5104,4.5104,4.5104,4.5104,4.5104,4.5104,4.5104,4.5104,4.5104,4.5104,4.5104,4.5104,4.4967,4.4899,4.4882,4.4745,4.4693,3.1868,3.2659,3.3589,3.3964,3.4346,3.4641,3.4741,3.4852,3.5001,3.5275,3.6011,3.6885,3.7775,3.8255,3.8639,3.9136,3.9649,4.0025,4.019,4.0857,4.1423,4.1679,4.2159,4.257,4.2779,4.2813,4.2813,4.2813,4.2813,4.2813,4.2813,4.2813,4.2813,4.2813,4.2813,4.2813,4.2813,4.2813,4.2813,4.2813,4.2813,4.2813,4.2813,4.2813,4.2813,4.2813,4.2813,4.2813,4.2813,4.2813,4.2813,4.2813,4.2813,4.2813,4.2813,4.2813,4.2813,4.2813,4.2813,4.2813,4.2813,4.2813,4.2899,4.3035,4.334,4.3563,4.3871,4.4385,4.4608,4.471,4.471,4.4916,4.5104,4.5104,4.5104,4.5104,4.5104,4.5104,4.5104,4.5104,4.5104,4.5104,4.5104,4.5104,4.5104,4.5104,4.5104,4.5104,4.5104,4.5104,4.5104,4.5104,4.5104,4.5104,4.5104,4.5104,4.5104,4.5104,4.5104,4.5104,4.5104,4.5104,4.5104,4.5104,4.5104,4.5104,4.5104,4.5104,4.5104,4.5104,4.5104,4.5104,3.2606,3.3264,3.3981,3.4325,3.4752,3.5419,3.6571,3.6463,3.6097,3.6097,3.7029,3.792,3.8272,3.8666,3.9162,3.9916,4.0036,4.0173,4.0577,4.1234,4.1697,4.1697,4.2381,4.2813,4.2813,4.2813,4.2813,4.2813,4.2813,4.2813,4.2813,4.2813,4.2813,4.2813,4.2813,4.2813,4.2813,4.2813,4.2813,4.2813,4.2813,4.2813,4.2813,4.2813,4.2813,4.2813,4.2813,4.2813,4.2813,4.2813,4.2813,4.2813,4.2813,4.2813,4.2813,4.2813,4.2813,4.2813,4.2813,4.2813,4.2813,4.2813,4.3052,4.3409,4.3409,4.394,4.4522,4.4472,4.4813,4.5104,4.5104,4.5104,4.5104,4.5104,4.5104,4.5104,4.5104,4.5104,4.5104,4.5104,4.5104,4.5104,4.5104,4.5104,4.5104,4.5104,4.5104,4.5104,4.5104,4.5104,4.5104,4.5104,4.5104,4.5104,4.5104,4.5104,4.5104,4.5104,4.5104,4.5104,4.5104,4.5104,4.5104,4.5104,4.5104,4.5104,4.5104,4.5104,4.5104,4.5104,4.5104,4.5104,3.3303,3.4042,3.4829,3.5504,3.597,3.6533,3.7428,3.7317,3.7153,3.7687,3.8289,3.8827,3.9123,4.0036,4.0825,4.1009,4.1228,4.1456,4.1561,4.2246,4.2737,4.2737,4.3439,4.3912,4.3912,4.3578,4.3387,4.3387,4.3387,4.3387,4.3387,4.3722,4.3912,4.3912,4.3912,4.3912,4.3912,4.3912,4.3912,4.3912,4.3912,4.3531,4.2813,4.3196,4.3387,4.3387,4.3387,4.3387,4.334,4.2957,4.2813,4.2813,4.2813,4.2813,4.2813,4.2813,4.2813,4.2813,4.2813,4.2813,4.2813,4.2813,4.3052,4.346,4.3734,4.4145,4.459,4.4864,4.5019,4.5104,4.5104,4.5104,4.5104,4.5104,4.5104,4.5104,4.5104,4.5104,4.5104,4.5104,4.5104,4.5104,4.5104,4.5104,4.5104,4.5104,4.5104,4.5104,4.5104,4.5104,4.5104,4.5104,4.5104,4.5104,4.5104,4.5104,4.5104,4.5104,4.5104,4.5104,4.5104,4.5104,4.5104,4.5104,4.5104,4.5104,4.5104,4.5104,4.5104,4.5104,4.5104,4.5104,3.3596,3.4368,3.5174,3.6017,3.6745,3.7571,3.8737,3.863,3.8495,3.9109,3.9542,3.9929,4.0272,4.0993,4.1542,4.1684,4.187,4.1984,4.1984,4.2703,4.32,4.32,4.3909,4.4388,4.4388,4.4103,4.3912,4.3912,4.3912,4.3912,4.3912,4.4246,4.4388,4.4388,4.4388,4.4388,4.4388,4.4388,4.4388,4.4388,4.4388,4.4055,4.3435,4.3769,4.3912,4.3912,4.3674,4.3626,4.3578,4.3005,4.2813,4.2813,4.2813,4.2813,4.2813,4.2813,4.2813,4.2813,4.2813,4.2813,4.2878,4.3225,4.3631,4.4059,4.4685,4.5099,4.5396,4.5656,4.5759,4.5658,4.5457,4.5407,4.5356,4.5155,4.5104,4.5104,4.5104,4.5104,4.5104,4.5104,4.5104,4.5104,4.5104,4.5104,4.5104,4.5104,4.5104,4.5104,4.5104,4.5104,4.5104,4.5104,4.5104,4.5104,4.5104,4.5104,4.5104,4.5104,4.5104,4.5104,4.5104,4.5104,4.5104,4.5104,4.5104,4.5104,4.5104,4.5104,4.5104,4.5104,4.5104,4.5104,3.3688,3.446,3.5247,3.6109,3.7246,3.8585,4.0203,4.0229,4.0012,4.0289,4.0698,4.1124,4.1506,4.1639,4.1782,4.2111,4.2119,4.2119,4.2119,4.284,4.3339,4.3339,4.405,4.4531,4.4531,4.4483,4.4483,4.4483,4.4483,4.4483,4.4483,4.4531,4.4531,4.4531,4.4531,4.4531,4.4531,4.4531,4.4531,4.4531,4.4531,4.4531,4.4531,4.4483,4.4483,4.4436,4.3912,4.3674,4.3578,4.3005,4.2813,4.2813,4.2813,4.2813,4.2813,4.2813,4.2813,4.2813,4.2861,4.2878,4.306,4.3966,4.4578,4.5077,4.5854,4.6392,4.6711,4.6711,4.6711,4.6561,4.601,4.5909,4.5759,4.5222,4.5104,4.5104,4.5104,4.5104,4.5104,4.5104,4.5104,4.5104,4.5104,4.5104,4.5104,4.5104,4.5104,4.5104,4.5104,4.5104,4.5104,4.5104,4.5104,4.5104,4.5104,4.5104,4.5104,4.5104,4.5104,4.5104,4.5104,4.5104,4.5104,4.5104,4.5104,4.5104,4.5104,4.5104,4.5104,4.5104,4.5104,4.5104,3.4331,3.5083,3.5724,3.6841,3.831,3.9703,4.0754,4.1373,4.1553,4.0973,4.1409,4.193,4.202,4.2601,4.3077,4.3169,4.3169,4.3169,4.3169,4.386,4.4398,4.4398,4.5109,4.5554,4.5554,4.5176,4.4939,4.4939,4.4939,4.4939,4.4939,4.5365,4.5554,4.5554,4.5554,4.5554,4.5554,4.5554,4.5554,4.5554,4.5554,4.5554,4.5554,4.5129,4.4939,4.4939,4.4436,4.4008,4.3578,4.3005,4.2813,4.2813,4.2813,4.2813,4.2813,4.2813,4.2813,4.2861,4.3292,4.3626,4.4031,4.4631,4.5271,4.5854,4.6041,4.6392,4.6711,4.6711,4.6711,4.6561,4.601,4.5909,4.5759,4.5222,4.5104,4.5104,4.5104,4.5104,4.5104,4.5104,4.5104,4.5104,4.5104,4.5104,4.5104,4.5104,4.5104,4.5104,4.5104,4.5104,4.5104,4.5104,4.5104,4.5104,4.5104,4.5104,4.5104,4.5104,4.5104,4.5104,4.5104,4.5104,4.5104,4.5104,4.5104,4.5104,4.5104,4.5104,4.5104,4.5104,4.5104,4.5104,3.4835,3.5429,3.6017,3.7812,3.9061,4.0129,4.1176,4.1873,4.2227,4.1974,4.2396,4.2815,4.2815,4.3175,4.3499,4.3499,4.3499,4.3499,4.3499,4.4178,4.4719,4.4719,4.5388,4.5883,4.5883,4.5648,4.5459,4.5459,4.5459,4.5459,4.5459,4.5742,4.5883,4.5883,4.5883,4.5883,4.5883,4.5883,4.5883,4.5883,4.5883,4.5883,4.5883,4.5601,4.5459,4.5459,4.472,4.4246,4.3912,4.3148,4.2813,4.2813,4.2813,4.2813,4.2813,4.31,4.33,4.3551,4.408,4.4517,4.5015,4.5695,4.6181,4.6588,4.7032,4.728,4.746,4.746,4.726,4.6961,4.6411,4.611,4.5759,4.5222,4.5104,4.5104,4.5104,4.5104,4.5104,4.5104,4.5104,4.5104,4.5104,4.5104,4.5104,4.5104,4.5104,4.5104,4.5104,4.5104,4.5104,4.5104,4.5104,4.5104,4.5104,4.5104,4.5104,4.5104,4.5104,4.5104,4.5104,4.5104,4.5104,4.5104,4.5104,4.5104,4.5104,4.5104,4.5104,4.5104,4.5104,4.5104,3.5153,3.5758,3.6438,3.8768,3.9593,4.0221,4.15,4.2051,4.2417,4.292,4.3261,4.3499,4.3499,4.3499,4.3499,4.3499,4.3499,4.3499,4.3499,4.4123,4.4645,4.4701,4.5333,4.581,4.5883,4.5883,4.5883,4.5883,4.5883,4.5883,4.5883,4.5883,4.5883,4.5883,4.5883,4.5883,4.5883,4.5883,4.5883,4.5883,4.5883,4.5883,4.5883,4.5883,4.5883,4.5836,4.4892,4.4483,4.4341,4.334,4.2861,4.2813,4.2813,4.2861,4.3005,4.3505,4.3971,4.4425,4.5027,4.5504,4.5976,4.6788,4.7098,4.7305,4.8077,4.8286,4.8286,4.8286,4.7907,4.7378,4.6811,4.6311,4.5759,4.5222,4.5104,4.5104,4.5104,4.5104,4.5104,4.5104,4.5104,4.5104,4.5104,4.5104,4.5104,4.5104,4.5104,4.5104,4.5104,4.5104,4.5104,4.5104,4.5104,4.5104,4.5104,4.5104,4.5104,4.5104,4.5104,4.5104,4.5104,4.5104,4.5138,4.5207,4.5138,4.5104,4.5104,4.5104,4.5104,4.5104,4.5104,4.5104,3.5224,3.6349,3.7594,3.9377,3.9836,4.0295,4.1873,4.2234,4.2491,4.3261,4.3463,4.3499,4.3499,4.3499,4.3499,4.3499,4.3499,4.3499,4.3499,4.3884,4.4333,4.4682,4.5095,4.5517,4.5865,4.5883,4.5883,4.5883,4.5883,4.5883,4.5883,4.5883,4.5883,4.5883,4.5883,4.5883,4.5883,4.5883,4.5883,4.5883,4.5883,4.5883,4.5883,4.5883,4.5883,4.5883,4.527,4.475,4.4341,4.3769,4.3244,4.2813,4.2813,4.31,4.3518,4.3992,4.4421,4.4991,4.583,4.6402,4.6824,4.7387,4.7821,4.8113,4.8267,4.8286,4.8286,4.8286,4.7907,4.7378,4.6811,4.6311,4.5759,4.5222,4.5104,4.5104,4.5104,4.5104,4.5104,4.5104,4.5104,4.5104,4.5104,4.5104,4.5104,4.5104,4.5104,4.5104,4.5104,4.5104,4.5104,4.5104,4.5104,4.5104,4.5104,4.5104,4.5104,4.5104,4.5104,4.5104,4.5104,4.5104,4.5258,4.5635,4.5275,4.5104,4.5104,4.5104,4.5104,4.5104,4.5104,4.5104,3.5575,3.6831,3.803,3.9193,3.9707,4.0313,4.1947,4.2314,4.2509,4.3316,4.3499,4.3499,4.3499,4.3499,4.3499,4.3499,4.3499,4.3499,4.3499,4.3829,4.4233,4.4664,4.504,4.5462,4.5847,4.5883,4.5883,4.5883,4.5883,4.5883,4.5883,4.5883,4.5883,4.5883,4.5883,4.5883,4.5883,4.5883,4.5883,4.5883,4.5883,4.5883,4.5883,4.5883,4.5883,4.5883,4.5318,4.4987,4.4703,4.396,4.3483,4.3244,4.3244,4.3387,4.3709,4.4652,4.5321,4.5879,4.6761,4.7356,4.7715,4.798,4.8139,4.8286,4.8286,4.8286,4.8286,4.8286,4.7708,4.7011,4.6761,4.606,4.5407,4.5155,4.5104,4.5104,4.5104,4.5104,4.5104,4.5104,4.5104,4.5104,4.5104,4.5104,4.5104,4.5104,4.5104,4.5104,4.5104,4.5104,4.5104,4.5104,4.5104,4.5104,4.5104,4.5104,4.5104,4.5104,4.5104,4.5104,4.5104,4.5104,4.5293,4.5703,4.5549,4.5532,4.5738,4.5532,4.543,4.5412,4.5207,4.5104,3.6161,3.7147,3.8076,3.8967,3.9546,4.0258,4.169,4.2167,4.2472,4.3188,4.3426,4.3499,4.3499,4.3499,4.3499,4.3499,4.3499,4.3499,4.3499,4.3756,4.4123,4.4664,4.4948,4.5333,4.5847,4.5883,4.5883,4.5883,4.5883,4.5883,4.5883,4.5883,4.5883,4.5883,4.5883,4.5883,4.5883,4.5883,4.5883,4.5883,4.5883,4.5883,4.5883,4.5883,4.5883,4.5883,4.5459,4.5223,4.5034,4.4275,4.3912,4.3817,4.3817,4.3865,4.4156,4.54,4.6115,4.6634,4.7534,4.8029,4.8286,4.8286,4.8286,4.8286,4.8286,4.8286,4.8286,4.8286,4.7541,4.6711,4.6711,4.5909,4.5104,4.5104,4.5104,4.5104,4.5104,4.5104,4.5104,4.5104,4.5104,4.5104,4.5104,4.5104,4.5104,4.5104,4.5104,4.5104,4.5104,4.5104,4.5104,4.5104,4.5104,4.5104,4.5104,4.5104,4.5104,4.5104,4.5104,4.5155,4.5306,4.5306,4.558,4.6267,4.6267,4.6251,4.6183,4.5943,4.5857,4.5806,4.5532,4.5395,3.7017,3.7347,3.7725,3.8896,3.9566,4.0111,4.0974,4.1763,4.2443,4.2846,4.3224,4.3499,4.3499,4.3499,4.3499,4.3499,4.3499,4.3499,4.3499,4.3518,4.3811,4.4627,4.4737,4.5068,4.581,4.5883,4.5883,4.5883,4.5883,4.5883,4.5883,4.5883,4.5883,4.5883,4.5883,4.5883,4.5883,4.5883,4.5883,4.5883,4.5883,4.5883,4.5883,4.5883,4.5883,4.5883,4.5883,4.5554,4.5081,4.5034,4.475,4.4388,4.4388,4.4608,4.5124,4.5946,4.6592,4.7174,4.7992,4.8267,4.8286,4.8286,4.8286,4.8286,4.8286,4.8286,4.8286,4.8286,4.7541,4.6711,4.6711,4.5909,4.5104,4.5104,4.5104,4.5104,4.5104,4.5104,4.5104,4.5104,4.5104,4.5104,4.5104,4.5104,4.5104,4.5104,4.5104,4.5104,4.5104,4.5104,4.5104,4.5104,4.5104,4.5104,4.5104,4.5104,4.5104,4.5104,4.5104,4.5323,4.5809,4.5859,4.6478,4.7744,4.7813,4.7248,4.6183,4.6166,4.6148,4.6148,4.6131,4.6114,3.6755,3.7332,3.8026,3.9008,3.9349,3.9792,4.1184,4.1492,4.1727,4.2387,4.2803,4.3096,4.3096,4.3316,4.3499,4.3499,4.3499,4.3499,4.3499,4.3499,4.3701,4.4233,4.4554,4.4893,4.5462,4.5737,4.5883,4.5883,4.5883,4.5883,4.5883,4.5883,4.5883,4.5883,4.5883,4.5883,4.5883,4.5883,4.5883,4.5883,4.5883,4.5883,4.5883,4.5883,4.5883,4.5883,4.5883,4.5789,4.5601,4.5223,4.4987,4.4845,4.4845,4.4939,4.5183,4.6107,4.6729,4.7185,4.7717,4.8066,4.8286,4.8286,4.8286,4.8286,4.8286,4.8286,4.8286,4.8286,4.7541,4.6711,4.6711,4.5909,4.5104,4.5104,4.5104,4.5104,4.5104,4.5104,4.5104,4.5104,4.5104,4.5104,4.5104,4.5104,4.5104,4.5104,4.5104,4.5104,4.5104,4.5104,4.5205,4.5558,4.5608,4.5759,4.611,4.611,4.611,4.611,4.611,4.6211,4.6411,4.6411,4.6882,4.7882,4.7899,4.7924,4.7983,4.779,4.7685,4.7685,4.7422,4.73,3.6561,3.7215,3.7937,3.8689,3.9141,3.9729,4.0834,4.1217,4.146,4.1971,4.2419,4.2718,4.2718,4.3048,4.3334,4.3481,4.3499,4.3499,4.3499,4.3499,4.3646,4.4031,4.4352,4.4691,4.5242,4.5535,4.5737,4.5883,4.5883,4.5883,4.5883,4.5883,4.5883,4.5883,4.5883,4.5883,4.5883,4.5883,4.5883,4.5883,4.5883,4.5883,4.5883,4.5883,4.5883,4.5883,4.5883,4.5883,4.5883,4.5506,4.5365,4.5365,4.5365,4.5365,4.5467,4.6228,4.6654,4.6965,4.7516,4.7864,4.8102,4.8249,4.8286,4.8286,4.8286,4.8286,4.8286,4.8088,4.741,4.6661,4.6461,4.5759,4.5104,4.5104,4.5104,4.5104,4.5104,4.5104,4.5104,4.5104,4.5104,4.5104,4.5104,4.5104,4.5155,4.5356,4.5373,4.5407,4.5608,4.5658,4.5759,4.611,4.616,4.6311,4.6679,4.6711,4.6711,4.6711,4.6711,4.6761,4.6961,4.7086,4.7579,4.8427,4.8588,4.8965,4.9541,4.8977,4.8644,4.8644,4.8361,4.8288,0.0,0.0,0.0,3.7893,3.8937,3.9845,3.9902,4.0806,4.1635,4.1672,4.1983,4.2296,4.2296,4.2626,4.303,4.3389,4.3481,4.3499,4.3499,4.3499,4.3646,4.4013,4.4068,4.4398,4.5187,4.5278,4.5443,4.5828,4.5847,4.5847,4.5847,4.5847,4.5847,4.5847,4.5847,4.5865,4.5865,4.5865,4.5883,4.5883,4.5883,4.5883,4.5883,4.5883,4.5883,4.5883,4.5883,4.5883,4.5883,4.5883,4.5883,4.5883,4.5883,4.5883,4.5938,4.6324,4.647,4.658,4.7387,4.7681,4.7754,4.8139,4.8267,4.8286,4.8286,4.8286,4.8187,4.7659,4.7129,4.6561,4.601,4.5507,4.5104,4.5104,4.5104,4.5104,4.5104,4.5104,4.5104,4.5104,4.5104,4.5104,4.5104,4.5104,4.5306,4.5809,4.5909,4.611,4.6611,4.6711,4.6729,4.6711,4.6711,4.6711,4.6761,4.6761,4.6761,4.6761,4.6761,4.6979,4.7546,4.7906,4.8538,4.9514,4.9918,5.0321,5.0725,4.9593,4.9069,4.9069,4.9069,4.9069,3.6499,0.0,0.0,0.0,0.0,0.0,4.0065,4.036,4.0567,4.114,4.1588,4.1883,4.188,4.2179,4.2472,4.2601,4.3114,4.3499,4.3499,4.3499,4.3536,4.3646,4.3903,4.4178,4.4398,4.4673,4.4893,4.5003,4.5003,4.5003,4.5003,4.5003,4.5003,4.5003,4.5003,4.515,4.5462,4.5462,4.5608,4.5883,4.5883,4.5883,4.5883,4.5883,4.5883,4.5883,4.5883,4.5883,4.5883,4.5883,4.5883,4.5883,4.5883,4.5883,4.5902,4.6012,4.6232,4.6507,4.6727,4.7204,4.7717,4.7827,4.8047,4.8286,4.8286,4.8038,4.7708,4.7509,4.6811,4.601,4.5457,4.5205,4.5104,4.5104,4.5104,4.5104,4.5104,4.5104,4.5104,4.5104,4.5104,4.5104,4.5104,4.5407,4.5708,4.5859,4.6211,4.6511,4.6661,4.6711,4.6879,4.7228,4.7278,4.746,4.7839,4.7839,4.7839,4.7839,4.7839,4.8035,4.8494,4.8604,4.9088,4.9936,5.0013,5.0321,5.0725,5.0394,5.0238,5.0238,5.0238,5.0238,0.0,0.0,3.6929,3.7848,0.0,0.0,3.9699,4.0086,4.0287,4.0768,4.1188,4.1387,4.1212,4.1687,4.199,4.1818,4.2454,4.3041,4.3206,4.3389,4.3499,4.3499,4.3701,4.3903,4.4068,4.4288,4.4535,4.4701,4.4719,4.4719,4.4719,4.4719,4.4719,4.4719,4.4719,4.4783,4.504,4.5205,4.5425,4.5645,4.581,4.5883,4.5883,4.5883,4.5883,4.5883,4.5883,4.5883,4.5883,4.5883,4.5883,4.5883,4.5883,4.5883,4.5883,4.5883,4.603,4.625,4.6415,4.691,4.7479,4.7644,4.7956,4.8286,4.8286,4.7957,4.7478,4.7228,4.6361,4.5507,4.5155,4.5104,4.5104,4.5104,4.5104,4.5104,4.5104,4.5104,4.5104,4.5104,4.5104,4.5155,4.5407,4.5708,4.606,4.6511,4.6811,4.7111,4.736,4.736,4.7509,4.7808,4.7858,4.7957,4.8286,4.8286,4.8286,4.8286,4.8451,4.8653,4.8909,4.9239,4.9643,5.0068,5.0233,5.0486,5.0725,5.0725,5.0725,5.0725,5.0725,5.0725,0.0,0.0,0.0,3.7129,3.7829,0.0,3.9004,3.9736,4.0298,4.0413,4.071,4.086,4.0572,4.1043,4.1379,4.1081,4.1616,4.2296,4.2773,4.3114,4.3371,4.3426,4.3426,4.3573,4.3976,4.4013,4.416,4.4554,4.459,4.459,4.459,4.459,4.459,4.459,4.459,4.4609,4.4645,4.4985,4.5205,4.5297,4.5645,4.5847,4.5883,4.5883,4.5883,4.5883,4.5883,4.5883,4.5883,4.5883,4.5883,4.5883,4.5883,4.5883,4.5883,4.5883,4.5883,4.5938,4.6287,4.669,4.7112,4.7497,4.7901,4.8231,4.8267,4.7907,4.7278,4.6661,4.5809,4.5104,4.5104,4.5104,4.5104,4.5104,4.5104,4.5104,4.5155,4.5222,4.5222,4.5273,4.5222,4.5356,4.5909,4.601,4.6411,4.7378,4.7577,4.7758,4.8236,4.8286,4.8286,4.8286,4.8286,4.8286,4.8286,4.8286,4.8286,4.8286,4.8689,4.8928,4.8983,4.9716,5.0105,5.0141,5.0541,5.0725,5.0725,5.0725,5.0725,5.0725,5.0725,5.0725,3.5982,3.6094,3.625,3.668,3.6949,0.0,3.8493,3.8869,3.9152,3.9798,4.0009,4.0139,4.0428,4.0331,4.0272,4.0566,4.0759,4.1231,4.2296,4.2454,4.2637,4.2993,4.303,4.3195,4.3573,4.3609,4.3646,4.3719,4.3719,4.3719,4.3719,4.3719,4.3719,4.3719,4.3719,4.3884,4.4196,4.427,4.4655,4.5297,4.5388,4.559,4.5883,4.5883,4.5883,4.5883,4.5883,4.5883,4.5883,4.5883,4.5883,4.5883,4.5883,4.5883,4.5883,4.5883,4.5883,4.5902,4.5975,4.6269,4.6672,4.7094,4.7479,4.7864,4.8194,4.7591,4.6661,4.5658,4.5255,4.5104,4.5104,4.5104,4.5104,4.5104,4.5104,4.5205,4.5658,4.5759,4.5859,4.6311,4.601,4.5909,4.6461,4.6911,4.7278,4.7478,4.7858,4.8187,4.8286,4.8286,4.8286,4.8286,4.8286,4.8286,4.8286,4.8286,4.8286,4.8286,4.8689,4.9056,4.9368,4.9812,5.0233,5.0596,5.0688,5.0725,5.0725,5.0725,5.0725,5.0725,5.0725,5.0725,3.5982,3.5982,3.6133,3.6562,3.6714,0.0,0.0,3.8105,3.8365,3.8786,3.9214,3.9526,3.9548,3.9696,3.9801,3.9869,4.003,4.0357,4.0967,4.1591,4.2124,4.2571,4.2608,4.27,4.2858,4.3059,4.3261,4.3481,4.3499,4.3499,4.3499,4.3499,4.3499,4.3499,4.3499,4.3591,4.3793,4.3995,4.438,4.4985,4.5205,4.5517,4.5883,4.5883,4.5883,4.5883,4.5883,4.5883,4.5883,4.5883,4.5883,4.5883,4.5883,4.5883,4.5883,4.5883,4.5883,4.5883,4.5883,4.614,4.6544,4.6965,4.7369,4.7772,4.8157,4.7541,4.6511,4.5708,4.5323,4.5104,4.5104,4.5306,4.5507,4.5507,4.5708,4.596,4.6211,4.6311,4.6461,4.6961,4.6861,4.6761,4.7061,4.7328,4.7559,4.7858,4.8137,4.8286,4.8286,4.8286,4.8286,4.8286,4.8286,4.8286,4.8286,4.8286,4.8286,4.8286,4.8873,4.9294,4.9496,5.0101,5.0523,5.0706,5.0725,5.0725,5.0725,5.0725,5.0725,5.0725,5.0725,5.0725,3.6001,3.5982,3.6094,3.6465,3.6577,3.666,0.0,0.0,0.0,3.7793,3.8359,3.8757,3.8522,3.8932,3.9261,3.9127,3.9287,3.9498,3.9666,4.0555,4.1394,4.1892,4.2039,4.2112,4.2204,4.2571,4.2938,4.3243,4.3334,4.3371,4.3371,4.3444,4.3499,4.3499,4.3499,4.3499,4.3499,4.3811,4.4178,4.4609,4.4985,4.5388,4.5773,4.5847,4.5883,4.5883,4.5883,4.5883,4.5883,4.5883,4.5883,4.5883,4.5883,4.5883,4.5883,4.5883,4.5883,4.5883,4.5883,4.6103,4.6434,4.6855,4.7314,4.7772,4.8077,4.7559,4.6711,4.6211,4.5759,4.5424,4.5424,4.5708,4.606,4.606,4.6361,4.6729,4.6811,4.6861,4.7011,4.7559,4.7659,4.7659,4.7659,4.7659,4.7808,4.8236,4.8286,4.8286,4.8286,4.8286,4.8286,4.8286,4.8286,4.8286,4.8286,4.8286,4.8286,4.8286,4.8983,4.9423,4.9496,5.0285,5.0725,5.0725,5.0725,5.0725,5.0725,5.0725,5.0725,5.0725,5.0725,5.0725,3.6133,3.5982,3.6001,3.6074,3.6094,3.6211,3.6641,0.0,3.6949,3.7285,0.0,3.7617,3.7936,0.0,0.0,3.8551,3.8405,3.8444,3.916,3.9385,3.9804,4.0616,4.1029,4.1396,4.1721,4.2106,4.2406,4.2417,4.2791,4.2975,4.2975,4.3298,4.3499,4.3499,4.3499,4.3499,4.3499,4.3536,4.3756,4.416,4.4609,4.4966,4.5388,4.5737,4.5883,4.5883,4.5883,4.5883,4.5883,4.5883,4.5883,4.5883,4.5883,4.5883,4.5883,4.5883,4.5883,4.5883,4.5883,4.592,4.603,4.6415,4.7075,4.7674,4.76,4.7528,4.7328,4.6761,4.6561,4.6511,4.6511,4.6561,4.6629,4.6629,4.6661,4.6811,4.7328,4.7428,4.7559,4.8088,4.8187,4.8187,4.8187,4.8187,4.8236,4.8286,4.8286,4.8286,4.8286,4.8286,4.8286,4.8286,4.8286,4.8286,4.8286,4.8286,4.8286,4.8286,4.8726,4.9129,4.9478,5.0285,5.0725,5.0725,5.0725,5.0725,5.0725,5.0725,5.0725,5.0725,5.0725,5.0725,3.6523,3.6406,3.6397,3.6293,3.6302,3.6409,3.6811,3.6748,3.6617,3.6794,0.0,0.0,0.0,0.0,0.0,0.0,3.7703,3.7698,3.8041,3.8102,3.8498,3.9591,4.0125,4.0501,4.0956,4.1378,4.1708,4.1922,4.2307,4.2571,4.2571,4.2913,4.3133,4.3133,4.3371,4.3499,4.3499,4.3499,4.3701,4.4086,4.4535,4.4893,4.5315,4.57,4.5883,4.5883,4.5883,4.5883,4.5883,4.5883,4.5883,4.5883,4.5883,4.5883,4.5883,4.5883,4.5883,4.5883,4.5883,4.5883,4.5957,4.6342,4.702,4.7668,4.7606,4.7577,4.7478,4.7228,4.6911,4.6711,4.6711,4.6911,4.7179,4.7179,4.741,4.7708,4.7907,4.7957,4.8038,4.8236,4.8286,4.8286,4.8286,4.8286,4.8286,4.8286,4.8286,4.8286,4.8286,4.8286,4.8286,4.8286,4.8286,4.8286,4.8286,4.8286,4.8286,4.8286,4.8891,4.9441,4.9845,5.0413,5.0725,5.0725,5.0725,5.0725,5.0725,5.0725,5.0725,5.0725,5.0725,5.0725,3.7093,3.7029,3.7015,3.6884,3.6867,3.6915,3.7065,3.6856,3.6654,3.6654,3.666,0.0,0.0,0.0,3.6992,3.7109,0.0,3.7173,3.7289,3.7307,3.7704,3.8758,3.9335,3.9789,4.0257,4.0566,4.0856,4.1194,4.169,4.1984,4.1984,4.2479,4.2791,4.2901,4.3169,4.3371,4.3499,4.3499,4.3646,4.3921,4.4325,4.4728,4.515,4.5535,4.5792,4.5883,4.5883,4.5883,4.5883,4.5883,4.5883,4.5883,4.5883,4.5883,4.5883,4.5883,4.5883,4.5883,4.5883,4.5883,4.5957,4.6342,4.6965,4.7552,4.7662,4.7728,4.7708,4.7708,4.746,4.7161,4.7161,4.741,4.7708,4.7708,4.8007,4.8286,4.8286,4.8286,4.8286,4.8286,4.8286,4.8286,4.8286,4.8286,4.8286,4.8286,4.8286,4.8286,4.8286,4.8286,4.8286,4.8286,4.8286,4.8286,4.8286,4.8286,4.8286,4.8286,4.8946,4.9533,4.9936,5.034,5.0615,5.0725,5.0725,5.0725,5.0725,5.0725,5.0725,5.0725,5.0725,5.0725,3.7861,3.7867,3.7853,3.7774,3.7757,3.7656,3.7213,3.7079,3.7079,3.7079,3.6775,3.6505,3.6505,3.6239,0.0,0.0,3.6734,0.0,0.0,3.7289,3.749,3.797,3.8727,3.9364,3.9751,3.9804,3.9869,3.995,4.068,4.1139,4.1139,4.191,4.2516,4.2901,4.292,4.3122,4.3499,4.3499,4.3499,4.3518,4.3921,4.4306,4.471,4.5132,4.5535,4.5883,4.5883,4.5883,4.5883,4.5883,4.5883,4.5883,4.5883,4.5883,4.5883,4.5883,4.5883,4.5883,4.5883,4.5883,4.5957,4.6342,4.6764,4.7204,4.7571,4.7974,4.8286,4.8286,4.8286,4.8236,4.8236,4.8286,4.8286,4.8286,4.8286,4.8286,4.8286,4.8286,4.8286,4.8286,4.8286,4.8286,4.8286,4.8286,4.8286,4.8286,4.8286,4.8286,4.8286,4.8286,4.8286,4.8286,4.8286,4.8286,4.8286,4.8286,4.8286,4.8286,4.8689,4.9111,4.9514,4.9936,5.027,5.0706,5.0725,5.0725,5.0725,5.0725,5.0725,5.0725,5.0725,5.0725,3.8387,3.848,3.8678,3.8618,3.8342,3.8167,3.8207,3.7807,3.7415,3.7415,3.7146,3.6823,3.6553,3.62,0.0,0.0,0.0,3.541,0.0,3.6074,3.6517,3.6665,3.745,3.8179,3.8574,3.9384,3.989,3.9921,4.0406,4.0818,4.1096,4.1339,4.1708,4.2069,4.2644,4.2975,4.3122,4.3353,4.3499,4.3499,4.3903,4.4288,4.4737,4.5113,4.5517,4.5883,4.5883,4.5883,4.5883,4.5883,4.5883,4.5883,4.5883,4.5883,4.5883,4.5883,4.5883,4.5883,4.5883,4.5883,4.5902,4.6048,4.636,4.6764,4.7185,4.7589,4.7956,4.8212,4.8286,4.8286,4.8286,4.8286,4.8286,4.8286,4.8286,4.8286,4.8286,4.8286,4.8286,4.8286,4.8286,4.8286,4.8286,4.8286,4.8286,4.8286,4.8286,4.8286,4.8286,4.8286,4.8286,4.8286,4.8286,4.8286,4.8286,4.8286,4.8286,4.8286,4.8689,4.9093,4.9478,4.99,5.027,5.0706,5.0725,5.0725,5.0725,5.0725,5.0725,5.0725,5.0725,5.0725,3.9494,3.9589,3.9734,3.9476,3.9212,3.8979,3.902,3.865,3.8234,3.807,3.776,3.7395,3.6964,3.6329,0.0,0.0,0.0,0.0,0.0,3.5195,3.5547,3.5547,3.6614,3.7523,3.7948,3.8728,3.926,3.9448,3.9965,4.0328,4.0428,4.087,4.1192,4.1488,4.2277,4.2773,4.2901,4.3279,4.3499,4.3499,4.3756,4.416,4.4719,4.4948,4.537,4.5883,4.5883,4.5883,4.5883,4.5883,4.5883,4.5883,4.5883,4.5883,4.5883,4.5883,4.5883,4.5883,4.5883,4.5883,4.5883,4.5883,4.6158,4.6562,4.6984,4.7387,4.7772,4.8176,4.8286,4.8286,4.8286,4.8286,4.8286,4.8286,4.8286,4.8286,4.8286,4.8286,4.8286,4.8286,4.8286,4.8286,4.8286,4.8286,4.8286,4.8286,4.8286,4.8286,4.8286,4.8286,4.8286,4.8286,4.8286,4.8286,4.8286,4.8286,4.8286,4.8286,4.8543,4.8928,4.9478,4.9771,5.0156,5.0706,5.0725,5.0725,5.0725,5.0725,5.0725,5.0725,5.0725,5.0725]},{"header":{"parameterUnit":"m.s-1","parameterCategory":1,"la1":30.6,"la2":29.2853,"lo1":-89.7004,"lo2":-87.6739,"dy":0.0162,"dx":0.0183,"nx":112,"ny":82,"refTime":"2023-04-08T12:00:00:Z","depth":0,"parameterNumber":3,"parameterNumberName":"V-component_of_WINDS"},"data":[0.0,0.0,0.0,0.0,0.0,0.0,0.0,0.0,0.0,0.0,0.0,0.0,0.0,0.0,0.0,0.0,0.0,0.0,0.0,0.0,0.0,0.0,0.0,0.0,0.0,0.0,0.0,0.0,0.0,0.0,0.0,0.0,0.0,0.0,0.0,0.0,0.0,0.0,0.0,0.0,0.0,0.0,0.0,0.0,0.0,0.0,0.0,0.0,0.0,0.0,0.0,0.0,0.0,0.0,0.0,0.0,0.0,0.0,0.0,0.0,0.0,0.0,0.0,0.0,0.0,0.0,0.0,0.0,0.0,0.0,0.0,0.0,0.0,0.0,0.0,0.0,0.0,0.0,0.0,0.0,0.0,0.0,0.0,0.0,0.0,0.0,0.0,0.0,0.0,0.0,4.904,5.091,5.2556,5.3618,5.3837,5.3122,5.237,5.1728,0.0,0.0,0.0,0.0,0.0,0.0,0.0,0.0,0.0,0.0,0.0,0.0,0.0,0.0,0.0,0.0,0.0,0.0,0.0,0.0,0.0,0.0,0.0,0.0,0.0,0.0,0.0,0.0,0.0,0.0,0.0,0.0,0.0,0.0,0.0,0.0,0.0,0.0,0.0,0.0,0.0,0.0,0.0,0.0,0.0,0.0,0.0,0.0,0.0,0.0,0.0,0.0,0.0,0.0,0.0,0.0,0.0,0.0,0.0,0.0,0.0,0.0,0.0,0.0,0.0,0.0,0.0,0.0,0.0,0.0,0.0,0.0,0.0,0.0,0.0,0.0,0.0,0.0,0.0,0.0,0.0,0.0,0.0,0.0,0.0,0.0,0.0,0.0,0.0,0.0,0.0,0.0,0.0,0.0,0.0,0.0,0.0,0.0,0.0,0.0,0.0,0.0,0.0,0.0,4.9668,5.2741,5.3449,5.3922,5.4567,5.3543,5.2514,5.1744,0.0,0.0,0.0,0.0,0.0,0.0,0.0,0.0,0.0,0.0,0.0,0.0,0.0,0.0,0.0,0.0,0.0,0.0,0.0,0.0,0.0,0.0,0.0,0.0,0.0,0.0,0.0,0.0,0.0,0.0,0.0,0.0,0.0,0.0,0.0,0.0,0.0,0.0,0.0,0.0,0.0,0.0,0.0,0.0,0.0,0.0,0.0,0.0,0.0,0.0,0.0,0.0,0.0,0.0,0.0,0.0,0.0,0.0,0.0,0.0,0.0,0.0,0.0,0.0,0.0,0.0,0.0,0.0,0.0,0.0,0.0,0.0,0.0,0.0,0.0,0.0,0.0,0.0,0.0,0.0,0.0,0.0,0.0,0.0,0.0,0.0,0.0,0.0,0.0,0.0,0.0,0.0,0.0,0.0,0.0,0.0,0.0,0.0,0.0,0.0,0.0,0.0,0.0,4.94,5.1006,5.394,5.433,5.4549,5.5074,5.4591,5.361,5.2077,5.1337,0.0,0.0,0.0,0.0,0.0,0.0,0.0,0.0,0.0,0.0,0.0,0.0,0.0,0.0,0.0,0.0,0.0,0.0,0.0,0.0,0.0,0.0,0.0,0.0,0.0,0.0,0.0,0.0,0.0,0.0,0.0,0.0,0.0,0.0,0.0,0.0,0.0,0.0,0.0,0.0,0.0,0.0,0.0,0.0,0.0,0.0,0.0,0.0,0.0,0.0,0.0,0.0,0.0,0.0,0.0,0.0,0.0,0.0,0.0,0.0,0.0,0.0,0.0,0.0,0.0,0.0,0.0,0.0,0.0,0.0,0.0,0.0,0.0,0.0,0.0,0.0,0.0,0.0,0.0,0.0,0.0,0.0,0.0,0.0,0.0,0.0,0.0,0.0,0.0,0.0,0.0,0.0,0.0,0.0,0.0,0.0,0.0,0.0,0.0,0.0,0.0,0.0,5.1343,5.2521,5.4907,5.5179,5.5314,5.5648,5.5542,5.4507,5.2326,5.2203,0.0,0.0,0.0,0.0,0.0,0.0,0.0,0.0,0.0,0.0,0.0,0.0,0.0,0.0,0.0,0.0,0.0,0.0,0.0,0.0,0.0,0.0,0.0,0.0,0.0,0.0,0.0,0.0,0.0,0.0,0.0,0.0,0.0,0.0,0.0,0.0,0.0,0.0,0.0,0.0,0.0,0.0,0.0,0.0,0.0,0.0,0.0,0.0,0.0,0.0,0.0,0.0,0.0,0.0,0.0,0.0,0.0,0.0,0.0,0.0,0.0,0.0,0.0,0.0,0.0,0.0,0.0,0.0,0.0,0.0,0.0,0.0,0.0,0.0,0.0,0.0,0.0,0.0,0.0,0.0,0.0,0.0,0.0,0.0,0.0,0.0,0.0,0.0,0.0,0.0,0.0,0.0,0.0,0.0,0.0,0.0,0.0,0.0,0.0,0.0,0.0,0.0,5.2353,5.3991,5.574,5.6013,5.6184,5.6403,5.5916,5.4601,5.2341,5.2203,0.0,0.0,0.0,0.0,0.0,0.0,0.0,0.0,0.0,0.0,0.0,0.0,0.0,0.0,0.0,0.0,0.0,0.0,0.0,0.0,0.0,0.0,0.0,0.0,0.0,0.0,0.0,0.0,0.0,0.0,0.0,0.0,0.0,0.0,0.0,0.0,0.0,0.0,0.0,0.0,0.0,0.0,0.0,0.0,0.0,0.0,0.0,0.0,0.0,0.0,0.0,0.0,0.0,0.0,0.0,0.0,0.0,0.0,0.0,0.0,0.0,0.0,0.0,0.0,0.0,0.0,0.0,0.0,0.0,0.0,0.0,0.0,0.0,0.0,0.0,0.0,0.0,0.0,0.0,0.0,0.0,0.0,0.0,0.0,0.0,0.0,0.0,0.0,0.0,0.0,0.0,0.0,0.0,0.0,0.0,0.0,0.0,0.0,0.0,0.0,0.0,0.0,5.2586,5.4262,5.6014,5.6765,5.702,5.6724,5.648,5.5168,5.2375,0.0,0.0,0.0,0.0,0.0,0.0,0.0,0.0,0.0,0.0,0.0,0.0,0.0,0.0,0.0,0.0,0.0,0.0,0.0,0.0,0.0,0.0,0.0,0.0,0.0,0.0,0.0,0.0,0.0,0.0,0.0,0.0,0.0,0.0,0.0,0.0,0.0,0.0,0.0,0.0,0.0,0.0,0.0,0.0,0.0,0.0,0.0,0.0,0.0,0.0,0.0,0.0,0.0,0.0,0.0,0.0,0.0,0.0,0.0,0.0,0.0,0.0,0.0,0.0,0.0,0.0,0.0,0.0,0.0,0.0,0.0,0.0,0.0,0.0,0.0,0.0,0.0,0.0,0.0,0.0,0.0,0.0,0.0,0.0,0.0,0.0,0.0,0.0,0.0,0.0,0.0,0.0,0.0,0.0,0.0,0.0,0.0,0.0,0.0,0.0,0.0,0.0,5.1469,5.3277,5.5008,5.6576,5.7518,5.7792,5.7202,5.6943,5.5701,5.3099,0.0,0.0,0.0,0.0,0.0,0.0,0.0,0.0,0.0,0.0,0.0,0.0,0.0,0.0,0.0,0.0,0.0,0.0,0.0,0.0,0.0,0.0,0.0,0.0,0.0,0.0,0.0,0.0,0.0,0.0,0.0,0.0,0.0,0.0,0.0,0.0,0.0,0.0,0.0,0.0,0.0,0.0,0.0,0.0,0.0,0.0,0.0,0.0,0.0,0.0,0.0,0.0,0.0,0.0,0.0,0.0,0.0,0.0,0.0,0.0,0.0,0.0,0.0,0.0,0.0,0.0,0.0,0.0,0.0,0.0,0.0,0.0,0.0,0.0,0.0,0.0,0.0,0.0,0.0,0.0,0.0,0.0,0.0,0.0,0.0,0.0,0.0,0.0,0.0,0.0,0.0,0.0,0.0,0.0,0.0,0.0,0.0,0.0,0.0,0.0,0.0,0.0,5.2493,5.4601,5.644,5.7587,5.8376,5.8548,5.7961,5.7219,5.615,0.0,0.0,0.0,0.0,0.0,0.0,0.0,0.0,0.0,0.0,0.0,0.0,0.0,0.0,0.0,0.0,0.0,0.0,0.0,0.0,0.0,0.0,0.0,0.0,0.0,0.0,0.0,0.0,0.0,0.0,0.0,0.0,0.0,0.0,0.0,0.0,0.0,0.0,0.0,0.0,0.0,0.0,0.0,0.0,0.0,0.0,0.0,0.0,0.0,0.0,0.0,0.0,0.0,0.0,0.0,0.0,0.0,0.0,0.0,0.0,0.0,0.0,0.0,0.0,0.0,0.0,0.0,0.0,0.0,0.0,0.0,0.0,0.0,0.0,0.0,0.0,0.0,0.0,0.0,0.0,0.0,0.0,0.0,0.0,0.0,0.0,0.0,0.0,0.0,0.0,0.0,0.0,0.0,0.0,0.0,0.0,0.0,0.0,0.0,0.0,0.0,0.0,0.0,5.3387,5.5226,5.6696,5.7604,5.8565,5.8872,5.8162,5.7515,5.6485,5.4958,0.0,0.0,0.0,0.0,0.0,0.0,0.0,0.0,0.0,0.0,0.0,0.0,0.0,0.0,0.0,0.0,0.0,0.0,0.0,0.0,0.0,0.0,0.0,0.0,0.0,0.0,0.0,0.0,0.0,0.0,0.0,0.0,0.0,0.0,0.0,0.0,0.0,0.0,0.0,0.0,0.0,0.0,0.0,0.0,0.0,0.0,0.0,0.0,0.0,0.0,0.0,0.0,0.0,0.0,0.0,0.0,0.0,0.0,0.0,0.0,0.0,0.0,0.0,0.0,0.0,0.0,0.0,0.0,0.0,0.0,0.0,0.0,0.0,0.0,0.0,0.0,0.0,0.0,0.0,0.0,0.0,0.0,0.0,0.0,0.0,0.0,0.0,0.0,0.0,0.0,0.0,0.0,0.0,0.0,0.0,0.0,0.0,0.0,0.0,0.0,0.0,0.0,5.4283,5.5684,5.6967,5.822,5.8907,5.9162,5.8795,5.8129,5.7219,5.6001,0.0,0.0,0.0,0.0,0.0,0.0,0.0,0.0,0.0,0.0,0.0,0.0,0.0,0.0,0.0,0.0,0.0,0.0,0.0,0.0,0.0,0.0,0.0,0.0,0.0,0.0,0.0,0.0,0.0,0.0,0.0,0.0,0.0,0.0,0.0,0.0,0.0,0.0,0.0,0.0,0.0,0.0,0.0,0.0,0.0,0.0,0.0,0.0,0.0,0.0,0.0,0.0,0.0,0.0,0.0,0.0,0.0,0.0,0.0,0.0,0.0,0.0,0.0,0.0,0.0,0.0,0.0,0.0,0.0,0.0,0.0,0.0,0.0,0.0,0.0,0.0,0.0,0.0,0.0,0.0,0.0,0.0,0.0,0.0,0.0,0.0,0.0,0.0,0.0,0.0,0.0,0.0,0.0,0.0,0.0,0.0,0.0,0.0,0.0,0.0,0.0,0.0,5.5233,5.6177,5.7326,5.9095,5.9336,5.9419,5.9586,5.8923,5.8122,5.7406,0.0,0.0,0.0,0.0,0.0,0.0,0.0,0.0,0.0,0.0,0.0,0.0,0.0,0.0,0.0,0.0,0.0,0.0,0.0,0.0,0.0,0.0,0.0,0.0,0.0,0.0,0.0,0.0,0.0,0.0,0.0,0.0,0.0,0.0,0.0,0.0,0.0,0.0,0.0,0.0,0.0,0.0,0.0,0.0,0.0,0.0,0.0,0.0,0.0,0.0,0.0,0.0,0.0,0.0,0.0,0.0,0.0,0.0,0.0,0.0,5.1993,5.0926,0.0,0.0,0.0,0.0,0.0,0.0,0.0,0.0,0.0,0.0,0.0,0.0,0.0,0.0,0.0,0.0,0.0,0.0,0.0,0.0,0.0,0.0,0.0,0.0,0.0,0.0,0.0,0.0,0.0,0.0,0.0,0.0,0.0,0.0,0.0,0.0,0.0,0.0,0.0,0.0,5.6257,5.7285,5.8231,5.9198,5.9535,5.9716,5.9765,5.9214,5.8523,5.7752,5.6245,0.0,0.0,0.0,0.0,0.0,0.0,0.0,0.0,0.0,0.0,0.0,0.0,0.0,0.0,0.0,0.0,0.0,0.0,0.0,0.0,0.0,0.0,0.0,0.0,0.0,0.0,0.0,0.0,0.0,0.0,0.0,0.0,0.0,0.0,0.0,0.0,0.0,0.0,0.0,0.0,0.0,0.0,0.0,0.0,0.0,0.0,0.0,0.0,0.0,0.0,0.0,0.0,0.0,0.0,0.0,0.0,0.0,0.0,0.0,5.4272,5.284,0.0,0.0,0.0,0.0,0.0,0.0,0.0,0.0,0.0,0.0,0.0,0.0,0.0,0.0,0.0,0.0,0.0,0.0,0.0,0.0,0.0,0.0,0.0,0.0,0.0,0.0,0.0,0.0,0.0,0.0,0.0,0.0,0.0,0.0,0.0,0.0,0.0,0.0,0.0,0.0,5.7215,5.8195,5.909,6.0005,6.0623,6.0842,6.0574,6.0269,5.9615,5.8457,5.7248,0.0,0.0,0.0,0.0,0.0,0.0,0.0,0.0,0.0,0.0,0.0,0.0,0.0,0.0,0.0,0.0,0.0,0.0,0.0,0.0,0.0,0.0,0.0,0.0,0.0,0.0,0.0,0.0,0.0,0.0,0.0,0.0,0.0,0.0,0.0,0.0,0.0,0.0,0.0,0.0,0.0,0.0,0.0,0.0,0.0,0.0,0.0,0.0,0.0,0.0,0.0,0.0,0.0,5.8034,5.8383,5.9035,5.9035,5.9332,5.9682,5.6979,5.5469,5.4955,5.4929,0.0,0.0,0.0,0.0,0.0,0.0,0.0,0.0,0.0,0.0,0.0,0.0,0.0,0.0,0.0,0.0,0.0,0.0,0.0,0.0,0.0,0.0,5.4326,5.4465,5.488,5.483,5.341,0.0,0.0,0.0,0.0,0.0,0.0,0.0,0.0,0.0,0.0,0.0,5.8174,5.9142,6.0005,6.109,6.1805,6.2029,6.153,6.1476,6.0844,5.9299,5.8562,5.7524,0.0,0.0,0.0,0.0,0.0,0.0,0.0,0.0,0.0,0.0,0.0,0.0,0.0,0.0,0.0,0.0,0.0,0.0,0.0,0.0,0.0,0.0,0.0,0.0,0.0,0.0,0.0,0.0,0.0,0.0,0.0,0.0,4.8443,5.0095,0.0,0.0,0.0,0.0,0.0,0.0,0.0,0.0,0.0,0.0,0.0,0.0,0.0,5.7971,5.9406,5.9341,6.0064,6.1541,6.1407,6.1412,6.1521,6.1521,6.158,6.1638,6.1191,0.0,5.7505,5.7384,0.0,0.0,0.0,0.0,0.0,0.0,0.0,0.0,0.0,0.0,0.0,0.0,0.0,0.0,0.0,0.0,0.0,0.0,0.0,0.0,0.0,0.0,5.6048,5.6709,5.6922,5.6906,5.6666,5.5337,5.4203,5.4203,5.3701,5.346,0.0,0.0,0.0,0.0,0.0,0.0,5.9274,6.0224,6.1092,6.1946,6.2237,6.2337,6.2265,6.2265,6.1598,6.0036,5.9861,5.9151,5.7741,5.6297,0.0,0.0,0.0,0.0,0.0,0.0,0.0,0.0,0.0,0.0,0.0,0.0,0.0,0.0,0.0,0.0,0.0,0.0,0.0,0.0,0.0,0.0,0.0,0.0,0.0,0.0,0.0,0.0,0.0,4.882,5.0655,5.1389,5.227,5.2821,0.0,0.0,0.0,0.0,0.0,0.0,0.0,0.0,0.0,5.8734,5.9908,6.1078,6.2148,6.2506,6.3202,6.422,6.4623,6.4756,6.4707,6.4707,6.4454,6.4019,6.4019,6.3094,6.1487,6.0001,5.8879,5.7988,0.0,0.0,0.0,0.0,5.5497,5.5771,5.5701,5.5915,5.6234,5.6176,0.0,0.0,0.0,0.0,0.0,0.0,0.0,5.7031,5.7681,5.844,5.9144,5.9478,5.9797,6.003,6.003,5.9309,5.8155,5.6387,5.5813,5.5709,5.6005,5.6075,0.0,0.0,0.0,5.9483,6.0886,6.1773,6.2451,6.2938,6.3391,6.3512,6.3091,6.3073,6.2581,6.1457,6.0695,6.0,5.9358,5.7947,5.6813,0.0,0.0,0.0,0.0,0.0,0.0,0.0,0.0,0.0,0.0,0.0,0.0,0.0,0.0,0.0,0.0,0.0,0.0,0.0,0.0,0.0,0.0,0.0,0.0,0.0,0.0,0.0,0.0,5.1499,5.3015,5.3188,5.4473,5.5317,0.0,0.0,0.0,0.0,0.0,0.0,5.9171,6.0786,6.1655,6.1655,6.3157,6.4352,6.5094,6.5609,6.6217,6.6856,6.7353,6.7579,6.7461,6.7417,6.7076,6.6496,6.6496,6.617,6.541,6.2649,6.1262,6.0791,5.9522,5.8801,5.8452,5.7838,5.7882,5.826,5.826,5.8614,5.9023,5.8979,5.8544,5.7975,5.7871,0.0,0.0,0.0,0.0,5.965,5.9826,6.0879,6.1897,6.1897,6.2394,6.2783,6.2608,6.2436,6.1567,5.8974,5.8331,5.8261,5.8435,5.8331,0.0,6.0052,6.0278,6.0816,6.2346,6.3045,6.3517,6.3846,6.4373,6.4478,6.3934,6.3863,6.3564,6.2823,6.1812,6.1148,6.0839,5.9598,5.8305,5.7015,0.0,0.0,0.0,0.0,0.0,0.0,0.0,0.0,0.0,0.0,0.0,0.0,0.0,0.0,0.0,0.0,0.0,0.0,0.0,0.0,0.0,0.0,0.0,0.0,0.0,0.0,0.0,0.0,0.0,5.6492,5.7299,0.0,0.0,0.0,0.0,6.0089,6.0236,6.0884,6.2462,6.415,6.5031,6.5031,6.6623,6.7834,6.8628,6.855,6.8919,6.9687,6.9398,6.9272,6.9272,6.9159,6.9047,6.9011,6.9011,6.9011,6.8706,6.5395,6.3553,6.2817,6.2406,6.1773,6.1099,6.0938,6.0879,6.09,6.09,6.0936,6.0942,6.0807,6.062,6.0412,6.0412,6.034,0.0,0.0,6.1219,6.1336,6.2054,6.2862,6.3477,6.3477,6.4022,6.4356,6.3688,6.353,6.3148,6.1899,6.11,6.0838,6.1552,0.0,6.0958,6.1912,6.2086,6.2433,6.3408,6.3547,6.3846,6.4583,6.4689,6.4689,6.4654,6.4654,6.4388,6.3764,6.3674,6.3116,6.198,6.1123,6.038,5.9708,5.8082,0.0,0.0,0.0,0.0,0.0,0.0,0.0,0.0,0.0,0.0,0.0,0.0,0.0,0.0,0.0,0.0,0.0,0.0,0.0,0.0,0.0,0.0,0.0,0.0,0.0,0.0,0.0,0.0,5.8939,5.9832,0.0,6.1031,6.1068,6.1765,6.3417,6.3563,6.4273,6.5852,6.7026,6.76,6.76,6.9192,7.0132,7.0426,7.1411,7.2035,7.2226,7.2477,7.2579,7.2471,7.1754,7.1168,7.0661,7.017,6.9663,6.9119,6.79,6.687,6.5986,6.5376,6.4837,6.4388,6.4327,6.422,6.4126,6.4126,6.4126,6.4111,6.4064,6.3903,6.374,6.374,6.3664,6.3573,6.3724,6.4099,6.449,6.4617,6.5198,6.5794,6.5794,6.6005,6.6093,6.5829,6.5794,6.5689,6.5268,6.336,6.1907,6.217,6.2012,6.2274,6.3621,6.3796,6.4269,6.5601,6.5794,6.59,6.6128,6.5759,6.5531,6.5634,6.5194,6.4856,6.4775,6.4395,6.4012,6.3555,6.2383,6.1426,6.0701,5.9536,5.8538,0.0,0.0,0.0,0.0,0.0,0.0,0.0,0.0,0.0,0.0,0.0,0.0,0.0,0.0,0.0,0.0,0.0,0.0,0.0,0.0,0.0,0.0,0.0,0.0,0.0,5.8437,6.0236,6.1838,6.2768,6.3576,6.4383,6.4457,6.5031,6.6389,6.6769,6.7504,6.8825,6.9926,7.0513,7.0513,7.1821,7.2518,7.2518,7.356,7.4052,7.3984,7.4268,7.4368,7.4222,7.3438,7.2818,7.2275,7.1784,7.1277,7.0786,7.0786,7.0382,6.9637,6.8001,6.7235,6.7034,6.7007,6.6877,6.6765,6.6701,6.6637,6.6589,6.6589,6.6488,6.639,6.639,6.6275,6.6145,6.6028,6.6245,6.6566,6.6426,6.6901,6.7391,6.7391,6.762,6.7725,6.7462,6.7391,6.7321,6.704,6.5338,6.3934,6.3934,6.3934,6.4285,6.5321,6.5461,6.5847,6.6865,6.7023,6.7023,6.7023,6.6567,6.6356,6.6548,6.586,6.5504,6.5755,6.5125,6.4689,6.4468,6.3565,6.2592,6.1521,6.0451,5.9451,5.8487,0.0,0.0,0.0,0.0,0.0,0.0,0.0,0.0,0.0,0.0,0.0,0.0,0.0,0.0,0.0,0.0,0.0,0.0,0.0,0.0,0.0,0.0,0.0,5.9343,6.1398,6.3527,6.5215,6.6109,6.6916,6.7737,6.7847,6.8178,6.9009,6.9779,7.055,7.138,7.2899,7.3744,7.3744,7.4515,7.494,7.494,7.494,7.4977,7.4962,7.4643,7.4488,7.4473,7.4103,7.3941,7.3941,7.3905,7.3905,7.3905,7.3905,7.3905,7.3563,7.0308,6.9054,6.9038,6.8917,6.8854,6.8822,6.861,6.8431,6.8247,6.8247,6.8247,6.823,6.823,6.8149,6.8051,6.8051,6.776,6.7464,6.7447,6.7869,6.8322,6.8304,6.8884,6.9253,6.8498,6.8304,6.8058,6.7286,6.7164,6.7111,6.7023,6.7023,6.7023,6.7005,6.7058,0.0,6.7093,6.7093,6.7093,6.7093,6.7058,6.713,6.7341,6.6671,6.6384,6.6702,6.5972,6.5255,6.4682,6.461,6.3912,6.2357,6.0808,5.9557,5.8608,0.0,0.0,0.0,0.0,0.0,0.0,0.0,0.0,0.0,0.0,0.0,0.0,0.0,0.0,0.0,0.0,0.0,0.0,0.0,0.0,0.0,6.13,6.2732,6.2732,6.3833,6.5435,6.7637,6.8605,6.9412,7.022,7.0844,7.1505,7.2312,7.2569,7.3046,7.3876,7.4316,7.4588,7.4588,7.5359,7.5763,7.5763,7.6335,7.6604,7.6496,7.624,7.6101,7.5972,7.5126,7.4774,7.4738,7.4158,7.3905,7.3905,7.3905,7.3905,7.3796,7.2879,7.2472,7.2358,7.2362,7.2227,7.2111,7.2061,7.1873,7.172,7.172,7.1634,7.1513,7.1513,7.1479,7.1426,7.1339,7.1215,7.1072,7.0782,7.083,7.0932,7.0764,7.092,7.1026,7.0815,7.0726,7.0656,7.0445,7.041,6.9673,6.7409,6.7023,6.7181,6.7778,6.7883,6.8076,6.8673,6.8762,6.8762,6.8762,6.8343,6.817,6.8381,6.7812,6.7289,6.6935,6.6702,6.6255,6.5518,6.4896,6.4126,6.3107,6.2663,6.1981,0.0,0.0,0.0,0.0,0.0,0.0,0.0,0.0,0.0,0.0,0.0,0.0,0.0,0.0,0.0,0.0,0.0,0.0,0.0,0.0,0.0,0.0,6.3723,6.5558,6.6916,6.7247,6.8091,7.0146,7.1101,7.1908,7.2738,7.3215,7.3707,7.4184,7.4845,7.5432,7.5894,7.657,7.6937,7.6937,7.7414,7.7635,7.7635,7.8034,7.8175,7.808,7.7839,7.7695,7.7579,7.6886,7.662,7.6584,7.6114,7.5896,7.5896,7.5896,7.5896,7.5804,0.0,0.0,0.0,0.0,7.3658,7.3524,7.3524,7.3389,7.3218,7.3131,7.3044,7.2904,7.2833,7.2798,7.278,7.2727,7.2638,7.2565,7.2293,7.2144,7.1976,7.1845,7.175,7.1709,7.1709,7.1709,7.1709,7.1709,7.1709,0.0,6.9287,6.8989,6.913,6.9603,6.9673,6.9727,6.9832,6.9867,6.9764,6.9504,6.9173,6.907,6.9371,6.8747,0.0,0.0,0.0,6.7088,6.6339,6.5233,0.0,0.0,0.0,6.3132,6.2577,6.2364,0.0,0.0,5.9655,5.951,0.0,0.0,0.0,0.0,0.0,0.0,0.0,0.0,0.0,0.0,0.0,0.0,0.0,0.0,0.0,0.0,6.5999,6.8091,7.1123,7.1211,7.1358,7.2642,7.356,7.4404,7.5087,7.5344,7.5454,7.5454,7.6775,7.7567,7.7552,7.8961,0.0,0.0,0.0,7.9716,7.9716,7.9556,7.9475,7.9458,7.9145,7.9013,7.8942,7.8771,7.8702,7.8702,7.8702,7.8702,7.8702,7.8702,7.8702,7.8412,7.557,7.4448,7.4448,7.4448,7.4365,7.4268,7.4268,0.0,0.0,7.3738,7.3597,7.3473,7.3279,7.3119,7.3048,7.3048,7.2977,7.2886,7.2868,7.2595,7.2317,7.2298,7.2129,7.1993,7.1993,7.1974,7.1974,7.1974,7.1974,7.1974,7.1974,7.1814,7.1709,7.1709,7.1709,7.1428,7.0745,7.0658,7.0452,6.9932,6.9916,0.0,7.0309,6.9722,6.9292,6.9303,6.8551,6.7802,6.714,6.5768,6.5003,6.5003,6.4305,6.3928,6.3928,6.3614,6.3828,6.4452,6.2483,6.1652,0.0,0.0,0.0,0.0,0.0,0.0,0.0,0.0,0.0,0.0,0.0,0.0,0.0,0.0,0.0,6.7577,6.9325,7.105,7.2973,7.4771,7.5527,7.4536,7.5711,7.6665,7.6812,7.8075,7.8862,7.8862,7.9155,7.9239,7.9096,7.9373,7.9491,7.9327,7.9327,7.9327,7.9327,7.9294,7.9212,7.9094,7.901,0.0,7.8754,7.8719,7.8702,7.8702,7.8702,7.8702,7.8702,7.8702,7.8702,7.8629,7.8014,7.776,7.776,7.776,7.7779,7.7745,7.7745,7.7588,7.7395,7.72,7.6608,7.5962,7.5762,7.526,0.0,7.4761,7.4743,7.467,7.4487,7.4395,7.4283,7.4149,7.3924,7.3825,7.3825,7.367,7.3553,7.3553,7.3553,7.3553,7.3553,7.2535,7.1709,7.1709,7.1709,7.1639,7.1482,7.1598,7.1676,7.1555,7.185,7.1783,7.1197,7.116,7.0658,6.9391,6.8551,6.8033,6.7873,6.7588,6.741,6.741,6.7267,6.7212,6.7212,6.7034,6.6921,6.6875,6.4331,6.3828,0.0,0.0,0.0,0.0,0.0,0.0,0.0,0.0,0.0,0.0,0.0,6.2976,6.3392,0.0,6.8238,6.9839,7.1784,7.3656,7.5285,7.6937,7.7472,7.6261,7.7546,7.8552,7.8552,7.9207,7.9652,7.9652,7.9922,8.006,7.9961,8.0326,8.0512,8.0395,8.0395,8.0395,8.0395,8.031,8.0261,8.0193,8.0089,7.9985,7.9897,7.9897,7.9897,7.9897,7.9897,7.9897,7.9897,7.9897,7.9897,7.9897,7.9897,7.9426,7.8702,7.8702,7.8702,7.8702,7.8702,7.8632,7.851,7.8207,7.7775,7.7325,7.7031,7.6652,7.6367,7.6367,7.6367,7.6348,7.6219,7.6107,7.6048,7.5934,7.5761,7.5591,7.5591,7.5513,7.547,7.547,7.547,7.547,7.547,7.48,7.3982,7.3011,7.2948,7.2865,7.2443,7.2597,7.2589,7.2346,7.2493,7.2478,7.2122,7.1853,7.1371,7.055,6.9372,6.8694,6.8694,6.8302,6.8088,6.8088,6.8088,6.8088,6.8088,6.7957,6.8197,6.8716,6.7271,6.6567,0.0,0.0,0.0,0.0,0.0,0.0,0.0,5.949,6.1361,6.1361,6.382,6.6059,6.6206,6.8605,7.0917,7.2041,7.3956,7.5886,7.7499,7.8437,7.8699,7.7987,7.9134,7.9973,7.9941,7.9906,7.9897,7.9897,8.035,8.0614,8.0616,8.1345,8.1692,8.1512,8.1658,8.1658,8.1512,8.141,8.134,8.134,8.1163,8.1111,8.1111,8.1111,8.1111,8.1111,8.1111,8.1111,8.1111,8.1273,8.1346,8.1346,8.1527,8.0766,7.9571,7.9281,7.9173,7.9173,7.9173,7.9138,7.905,7.8657,7.8422,7.8223,7.7835,7.7615,7.7508,7.7508,7.7508,7.7508,7.7508,7.7395,7.7262,7.7262,7.7108,7.6972,7.6972,7.6953,7.6914,7.6914,7.6914,7.6914,7.6914,7.6914,7.6372,7.4784,7.4706,7.454,7.3745,7.3793,7.3697,7.3135,7.3064,7.3083,7.303,7.2334,7.1906,7.1906,7.0693,6.9962,6.9962,6.9372,6.9015,6.9015,6.9015,6.9015,6.9015,6.8881,6.9368,7.038,7.0183,6.9314,5.5407,5.58,5.6308,5.648,5.829,6.0015,0.0,6.2462,6.4738,6.4738,6.6756,6.8715,6.9412,7.1027,7.2973,7.5212,7.6286,7.7437,7.9027,7.9795,8.017,8.0061,8.0376,8.0535,8.0369,8.0973,8.1357,8.1357,8.1413,8.1401,8.1282,8.2046,8.2067,8.1182,8.1852,8.1888,8.1146,8.1128,8.111,8.111,8.1092,8.1111,8.1111,8.1111,8.1111,8.1111,8.1111,8.1111,8.1147,8.1853,8.2161,8.2233,8.2958,8.3139,8.2813,8.1382,8.0821,8.0821,8.0821,8.0713,8.0532,8.0312,7.9642,7.8845,7.8619,7.8079,7.7508,7.7508,7.7508,7.7508,7.7508,7.749,7.7471,7.7471,7.7319,7.7166,7.7166,7.7031,7.6914,7.6914,7.6914,7.6914,7.6914,7.6914,7.6824,7.6608,7.6592,7.6344,7.5601,7.5667,7.5515,7.4735,7.4811,7.4617,7.3922,7.3155,7.2655,7.2655,7.2513,7.2405,7.2405,7.2334,7.2263,7.2263,7.2263,7.2263,7.2263,7.2245,7.2193,7.2044,7.199,7.1698,5.7037,5.7992,5.9024,5.9465,6.1447,6.3233,6.3233,6.5398,6.7527,6.8017,6.9633,7.1248,7.2055,7.3839,7.5501,7.6527,7.798,7.9271,7.9928,8.0645,8.1253,8.1642,8.1748,8.1617,8.1141,8.1784,8.2188,8.2188,8.2519,8.2685,8.2649,8.2922,8.2922,8.2505,8.2813,8.2849,8.2505,8.2505,8.2505,8.2505,8.2505,8.2505,8.2505,8.2505,8.2505,8.2505,8.2505,8.2505,8.2505,8.2849,8.2994,8.303,8.3392,8.3501,8.3428,8.2722,8.2505,8.2505,8.2505,8.2377,8.2173,8.1967,8.1526,8.0992,8.0779,8.0185,7.9578,7.9578,7.9257,7.89,7.89,7.89,7.89,7.89,7.8823,7.8765,7.8765,7.8707,7.8649,7.8649,7.8649,7.8649,7.8649,7.8649,7.8649,7.8649,7.777,7.6982,7.6663,7.6799,7.6628,7.5863,7.5866,7.5581,7.4778,7.3958,7.3494,7.3494,7.3048,7.2798,7.2798,7.2798,7.2798,7.2798,7.2798,7.2798,7.2798,7.2798,7.2851,7.2946,7.2946,7.3199,5.8789,6.0015,6.13,6.2365,6.431,6.6035,6.6242,6.8151,7.0073,7.0624,7.2055,7.3399,7.4162,7.5837,7.7244,7.7635,7.9168,8.0437,8.0619,8.1313,8.1971,8.2448,8.2721,8.2666,8.2188,8.2556,8.283,8.283,8.3248,8.3501,8.3501,8.3718,8.3755,8.3501,8.3718,8.3718,8.3501,8.3501,8.3501,8.3501,8.3501,8.3501,8.3501,8.3501,8.3501,8.3501,8.3501,8.3501,8.3537,8.3755,8.3827,8.3863,8.4081,8.4135,8.4135,8.4135,8.3899,8.3483,8.3427,8.3315,8.3089,8.2862,8.2613,8.2382,8.2223,8.1826,8.1398,8.1398,8.097,8.0542,8.0542,8.0542,8.0542,8.0542,8.0542,8.0542,8.0542,8.0542,8.047,8.0292,8.0221,8.0185,7.9916,7.988,7.988,7.988,7.8765,7.785,7.7637,7.7557,7.7294,7.6759,7.6688,7.6402,7.5617,7.4992,7.4564,7.435,7.3797,7.344,7.344,7.344,7.344,7.344,7.344,7.3583,7.3797,7.3708,7.3917,7.4362,7.4305,7.4694,6.1079,6.2108,6.3123,6.4774,6.6402,6.7847,6.8605,7.066,7.2386,7.2422,7.3707,7.5042,7.5696,7.6528,7.7562,7.8913,7.975,8.0484,8.1264,8.1887,8.2287,8.2305,8.2994,8.3465,8.3447,8.3465,8.3465,8.3465,8.3501,8.3501,8.3501,8.4243,8.4316,8.3537,8.4243,8.4279,8.3501,8.3501,8.3501,8.3501,8.3501,8.3501,8.3501,8.3501,8.3501,8.3501,8.3501,8.3501,8.3573,8.4316,8.4642,8.475,8.5511,8.5837,8.5837,8.5837,8.4823,8.3464,8.3296,8.3089,8.2879,8.2594,8.2362,8.2219,8.2183,8.2183,8.2183,8.2183,8.2148,8.2148,8.2148,8.2148,8.2148,8.2148,8.2148,8.2148,8.2148,8.2148,8.1933,8.1184,8.1041,8.0827,8.0023,7.988,7.988,7.988,7.9844,7.9523,7.8757,7.7972,7.7473,7.7473,7.7473,7.7152,7.6438,7.6331,7.5974,7.5225,7.5153,7.5153,7.5153,7.5153,7.5153,7.5153,7.5153,7.551,7.6295,7.6019,7.6201,7.6804,7.6587,7.6423,6.2977,6.4653,6.6439,6.8091,6.9706,7.1101,7.1908,7.312,7.4213,7.4659,7.5193,7.5754,7.6366,7.7515,7.8509,7.9005,8.0034,8.1072,8.1888,8.216,8.2704,8.3791,8.4153,8.4497,8.504,8.4605,8.4298,8.4298,8.4786,8.5076,8.5076,8.533,8.5366,8.5112,8.5366,8.5366,8.5076,8.5076,8.5076,8.5076,8.5076,8.5076,8.5076,8.5076,8.5076,8.5076,8.5076,8.5076,8.5112,8.5366,8.5511,8.5511,8.5801,8.5909,8.5909,8.5909,8.5547,8.5057,8.4813,8.4602,8.4388,8.4171,8.3971,8.3789,8.3789,8.3432,8.3004,8.3004,8.2611,8.2183,8.2183,8.2183,8.2183,8.2183,8.2183,8.2183,8.2183,8.2183,8.2148,8.1862,8.1826,8.1755,8.147,8.1434,8.1434,8.1434,8.0577,7.9792,7.9543,7.9257,7.89,7.8329,7.8313,7.7972,7.7187,7.7116,7.7009,7.6723,7.6723,7.6723,7.6723,7.6723,7.6723,7.6723,7.6723,7.6791,7.6944,7.6832,7.6763,7.6693,7.6614,7.6755,6.5081,6.693,6.8949,7.055,7.1945,7.3142,7.3868,7.4682,7.5355,7.5713,7.6011,7.6329,7.6664,7.7751,7.8632,7.8855,7.9895,8.1056,8.2161,8.2559,8.3211,8.4533,8.4931,8.533,8.5837,8.5438,8.5112,8.5112,8.5619,8.5909,8.5909,8.5909,8.5909,8.5909,8.5909,8.5909,8.5909,8.5909,8.5909,8.5909,8.5909,8.5909,8.5909,8.5909,8.5909,8.5909,8.5909,8.5909,8.5909,8.5909,8.5909,8.5909,8.5909,8.5909,8.5909,8.5909,8.5997,8.6118,8.5564,8.5336,8.5159,8.4879,8.4712,8.4589,8.4589,8.4253,8.3825,8.3825,8.3468,8.3075,8.3075,8.3075,8.3075,8.3075,8.3075,8.3075,8.3075,8.3075,8.2968,8.2683,8.2611,8.254,8.2255,8.2183,8.2183,8.2183,8.1362,8.0649,8.0363,8.0078,7.9721,7.9186,7.9114,7.8793,7.8008,7.7937,7.7794,7.7508,7.7508,7.7508,7.7508,7.7508,7.7508,7.7508,7.7433,7.7481,7.7631,7.7476,7.7402,7.7405,7.7324,7.7503,6.7444,6.9022,7.0624,7.2261,7.3252,7.3993,7.4671,7.5394,7.5896,7.5634,7.6186,7.67,7.6558,7.7179,7.7945,7.8591,7.939,8.0476,8.2124,8.303,8.3827,8.4642,8.5438,8.5909,8.5909,8.5909,8.5909,8.5909,8.5909,8.5909,8.5909,8.5909,8.5909,8.5909,8.5909,8.5909,8.5909,8.5909,8.5909,8.5945,8.5945,8.5945,8.5945,8.5945,8.5945,8.5909,8.5909,8.5909,8.5909,8.5909,8.5909,8.5909,8.5909,8.5909,8.5909,8.5945,8.6263,8.6555,8.5637,8.5307,8.5227,8.484,8.4696,8.4661,8.4661,8.4625,8.4589,8.4589,8.4589,8.4589,8.4589,8.4589,8.4589,8.4589,8.4589,8.4589,8.4589,8.4589,8.4396,8.3611,8.3452,8.3218,8.2433,8.2326,8.2326,8.2326,8.229,8.2005,8.1255,8.0506,8.0042,8.0042,7.9987,7.965,7.8884,7.8777,7.8455,7.7687,7.7615,7.7615,7.7615,7.7615,7.7615,7.7597,7.7407,7.7702,7.85,7.8085,7.8306,7.8991,7.8784,7.8735,6.9765,7.1138,7.2393,7.4512,7.5178,7.5498,7.6131,7.6428,7.638,7.5621,7.5625,7.5722,7.5525,7.6125,7.714,7.8484,7.939,8.0658,8.2885,8.3392,8.4026,8.5438,8.5764,8.5909,8.5909,8.5909,8.5909,8.5909,8.5909,8.5909,8.5909,8.5909,8.5909,8.5909,8.5909,8.5909,8.5909,8.5909,8.6199,8.6723,8.6723,8.6723,8.6723,8.6723,8.6416,8.5909,8.5909,8.5909,8.5909,8.5909,8.5909,8.5909,8.5909,8.5909,8.5982,8.6525,8.6697,8.6735,8.6933,8.6895,8.6711,8.6406,8.593,8.5502,8.5502,8.5074,8.4589,8.4589,8.4589,8.4589,8.4589,8.4589,8.4589,8.4589,8.4589,8.4589,8.4589,8.4589,8.4518,8.4324,8.4289,8.4253,8.4039,8.4003,8.4003,8.4003,8.3468,8.279,8.2005,8.1755,8.1612,8.1612,8.1113,8.072,8.0506,7.9935,7.9507,7.9293,7.9293,7.9293,7.9293,7.9293,7.9215,7.906,7.9001,7.9214,7.967,7.9567,7.9809,8.0394,8.0351,8.033,7.1793,7.3054,7.415,7.5447,7.6016,7.6386,7.6648,7.6433,7.6021,7.5406,7.501,7.4833,7.5044,7.5462,7.642,7.8376,7.91,8.0332,8.3102,8.3501,8.4117,8.5692,8.5909,8.5909,8.5909,8.5909,8.5909,8.5909,8.5909,8.5909,8.5909,8.5909,8.5909,8.5909,8.5909,8.6054,8.638,8.6723,8.7121,8.752,8.752,8.752,8.752,8.752,8.7121,8.638,8.638,8.6199,8.5909,8.5909,8.5909,8.5909,8.5909,8.609,8.6452,8.6832,8.7253,8.7661,8.8028,8.8156,8.8042,8.7186,8.6608,8.6287,8.6287,8.5966,8.5538,8.5216,8.5145,8.5074,8.4696,8.4589,8.4589,8.4589,8.4589,8.4589,8.4589,8.4589,8.4589,8.4589,8.4589,8.4589,8.4589,8.4589,8.4589,8.4589,8.4217,8.3753,8.3325,8.2647,8.2183,8.2183,8.1826,8.1577,8.1577,8.1184,8.0899,8.0899,8.0899,8.0899,8.0899,8.0899,8.08,8.0617,8.0516,8.0526,8.0598,8.0493,8.0612,8.0905,8.0905,8.0905,7.3498,7.467,7.5603,7.5733,7.6243,7.6721,7.6469,7.5854,7.5261,7.4843,7.4231,7.3941,7.4665,7.4866,7.5682,7.7979,7.8505,7.9682,8.2685,8.3264,8.3988,8.5471,8.578,8.5835,8.5835,8.589,8.5909,8.5909,8.5909,8.5909,8.5909,8.5909,8.5945,8.6054,8.6163,8.6525,8.7158,8.7846,8.8244,8.8353,8.8353,8.8353,8.8353,8.8353,8.7918,8.7158,8.7158,8.6723,8.6054,8.6054,8.5982,8.5909,8.6018,8.6452,8.7013,8.723,8.7952,8.8814,8.8922,8.9112,8.9049,8.7679,8.7143,8.7072,8.7072,8.7001,8.6787,8.6144,8.5966,8.5787,8.5109,8.4803,8.4768,8.4768,8.4661,8.4589,8.4589,8.4589,8.4589,8.4589,8.4589,8.4589,8.4589,8.4589,8.4589,8.4589,8.4589,8.4589,8.4589,8.3397,8.254,8.254,8.2433,8.2362,8.2362,8.2255,8.2183,8.2183,8.2183,8.2183,8.2183,8.2183,8.2099,8.1876,8.1692,8.1513,8.131,8.1153,8.1115,8.1221,8.1221,8.1221,7.4665,7.5416,7.5717,7.6279,7.6538,7.6416,7.5545,7.5258,7.477,7.3414,7.2999,7.2927,7.3072,7.3589,7.4502,7.6182,7.7431,7.8873,8.0746,8.2168,8.3337,8.4292,8.5095,8.5553,8.5553,8.5778,8.5909,8.5909,8.5909,8.5909,8.5909,8.5909,8.6199,8.6795,8.7447,8.7846,8.799,8.8135,8.8534,8.9205,8.9205,8.9205,8.9205,8.9205,8.877,8.799,8.799,8.7556,8.6795,8.6887,8.6489,8.5945,8.6578,8.6868,8.7158,8.8481,8.8891,8.8886,8.9569,8.9599,8.9227,8.8977,8.8428,8.7893,8.7893,8.7429,8.6858,8.6751,8.6715,8.668,8.6537,8.6037,8.5573,8.5573,8.5074,8.4589,8.4589,8.4589,8.4589,8.4589,8.4589,8.4589,8.4589,8.4589,8.4589,8.4589,8.4589,8.4589,8.4589,8.434,8.4161,8.4161,8.3575,8.3203,8.3203,8.2576,8.2183,8.2183,8.2183,8.2183,8.2183,8.2183,8.2038,8.165,8.1609,8.1698,8.194,8.1896,8.219,8.2822,8.2822,8.2822,7.5709,7.6045,7.6036,7.6353,7.6445,7.6194,7.5297,7.4774,7.4122,7.2927,7.232,7.2091,7.2525,7.3136,7.4064,7.5649,7.7146,7.8674,8.0275,8.1893,8.3205,8.3996,8.4829,8.5378,8.5495,8.5627,8.5759,8.5909,8.5909,8.5909,8.5909,8.6271,8.6832,8.7592,8.8389,8.8843,8.8843,8.9241,8.964,9.0002,9.0002,9.0002,9.0002,9.0002,8.9603,8.8843,8.8843,8.8353,8.7628,8.7665,8.7447,8.7121,8.7483,8.7882,8.8316,8.9014,8.9316,8.9441,8.9711,8.96,8.9299,8.9299,8.9035,8.8714,8.8714,8.8464,8.8071,8.7643,8.75,8.7429,8.7001,8.656,8.6204,8.6204,8.5813,8.5444,8.5444,8.5444,8.5444,8.5444,8.5444,8.5486,8.5613,8.5635,8.5677,8.5767,8.5823,8.5823,8.5823,8.5823,8.5502,8.4696,8.4253,8.4003,8.4003,8.3682,8.3468,8.3468,8.3468,8.3468,8.3468,8.3468,8.3228,8.2792,8.2792,8.2771,8.2682,8.2682,8.2857,8.3208,8.3208,8.3208,7.6208,7.6328,7.6193,7.6193,7.6065,7.574,7.4911,7.4115,7.33,7.2505,7.1757,7.1408,7.2057,7.2665,7.3536,7.5008,7.65,7.8044,7.9642,8.1258,8.2603,8.3572,8.4401,8.5003,8.5339,8.5398,8.555,8.5797,8.5999,8.6126,8.6126,8.7032,8.7809,8.8425,8.9241,8.964,8.964,9.0292,9.0581,9.0581,9.0581,9.0581,9.0581,9.0581,9.0255,8.964,8.964,8.9205,8.8461,8.8461,8.8333,8.8149,8.833,8.8745,8.9264,8.9284,8.9549,8.986,8.9671,8.9457,8.9299,8.9299,8.9299,8.9299,8.9299,8.9299,8.9178,8.8535,8.8357,8.8214,8.7508,8.7109,8.6816,8.6573,8.635,8.6197,8.6197,8.6197,8.6197,8.6197,8.6197,8.6284,8.6524,8.6602,8.6653,8.6851,8.6894,8.6894,8.6894,8.6894,8.643,8.5216,8.5109,8.5109,8.5109,8.5109,8.5109,8.5109,8.5109,8.5109,8.5109,8.5109,8.4866,8.4421,8.44,8.4184,8.37,8.37,8.37,8.37,8.37,8.37,7.5658,7.5953,7.585,7.585,7.531,7.4536,7.3746,7.2936,7.2125,7.1333,7.1101,7.1048,7.112,7.1654,7.2343,7.3203,7.453,7.6029,7.7565,7.9172,8.0743,8.2207,8.3224,8.4115,8.4888,8.5119,8.5336,8.5514,8.6374,8.6904,8.6904,8.8336,8.9205,8.9277,9.0074,9.0473,9.0473,9.0545,9.0581,9.0581,9.0581,9.0581,9.0581,9.0581,9.0545,9.0473,9.0473,9.0038,8.9277,8.9277,8.8725,8.8005,8.8727,8.8951,8.8948,8.9647,8.9803,8.9649,8.9628,8.9457,8.9299,8.9299,8.9299,8.9299,8.9299,8.9299,8.9263,8.9192,8.9192,8.9112,8.8809,8.821,8.7447,8.6462,8.6219,8.6197,8.6197,8.6197,8.6197,8.6197,8.6197,8.6284,8.6524,8.6602,8.6653,8.6851,8.6894,8.6894,8.6894,8.6894,8.6858,8.6715,8.668,8.668,8.668,8.668,8.668,8.668,8.668,8.668,8.668,8.668,8.6468,8.5993,8.5993,8.5773,8.528,8.528,8.528,8.528,8.528,8.528,7.4984,7.5454,7.569,7.5186,7.4844,7.4269,7.2957,7.2434,7.1823,7.0528,7.061,7.0723,7.0273,7.1038,7.201,7.2796,7.4208,7.576,7.7294,7.89,8.047,8.2005,8.2977,8.3864,8.4828,8.498,8.5299,8.5965,8.6974,8.7742,8.8248,8.9001,8.9603,9.011,9.0436,9.0581,9.0581,9.0581,9.0581,9.0581,9.0581,9.0581,9.0581,9.0581,9.0537,9.0416,9.0416,9.0175,8.9764,8.9764,8.9523,8.9189,8.9513,8.958,8.9548,8.969,8.9692,8.9586,8.9457,8.9385,8.9299,8.9299,8.9299,8.9299,8.9299,8.9299,8.9277,8.911,8.9066,8.9023,8.8779,8.8374,8.7911,8.7344,8.7228,8.7228,8.7228,8.7228,8.7228,8.7228,8.7228,8.7342,8.7724,8.779,8.7922,8.8292,8.8357,8.8357,8.8357,8.8357,8.8357,8.8357,8.75,8.6894,8.6894,8.6894,8.6894,8.6894,8.6894,8.6894,8.6894,8.6894,8.6681,8.6205,8.6205,8.5963,8.5491,8.5491,8.5491,8.5491,8.5491,8.5491,7.4039,7.4525,7.4778,7.4204,7.3898,7.3467,7.2319,7.1692,7.101,6.9898,7.0033,7.0165,6.9609,7.0509,7.1656,7.262,7.3761,7.5189,7.7223,7.8472,7.9864,8.1648,8.2576,8.3442,8.4369,8.4951,8.5641,8.6592,8.7585,8.8498,8.9327,8.9505,8.9882,9.0581,9.0581,9.0581,9.0581,9.0581,9.0578,9.0517,9.0517,9.0497,9.0437,9.0437,9.0335,9.0192,9.0192,9.0146,9.0001,9.0001,8.9959,8.9896,8.9896,8.9854,8.977,8.9564,8.95,8.9479,8.9364,8.9299,8.9299,8.9299,8.9255,8.9176,8.9176,8.9176,8.9132,8.8854,8.8743,8.8654,8.851,8.8282,8.8075,8.7948,8.7901,8.7901,8.7901,8.7901,8.7901,8.7901,8.7901,8.8064,8.851,8.8577,8.877,8.9233,8.9299,8.9299,8.9299,8.9299,8.9299,8.9299,8.8264,8.7607,8.7607,8.7607,8.7607,8.7607,8.7607,8.7607,8.7607,8.7607,8.7393,8.6913,8.6913,8.6691,8.6193,8.6193,8.6193,8.6193,8.6193,8.6193,7.272,7.2974,7.2851,7.2816,7.228,7.1745,7.1709,7.0478,6.9337,6.932,6.932,6.932,6.9284,6.9979,7.1014,7.2548,7.2798,7.3904,7.7045,7.7508,7.8401,8.0827,8.1755,8.254,8.3345,8.5049,8.6425,8.7213,8.8223,8.9138,8.9929,9.0001,9.0172,9.0598,9.0581,9.0581,9.0581,9.0581,9.0517,9.0295,9.0295,9.0192,9.0001,9.0001,9.0001,9.0001,9.0001,9.0001,9.0001,9.0001,8.9839,8.9607,8.9607,8.9479,8.932,8.9299,8.9299,8.9299,8.9299,8.9299,8.9299,8.9299,8.9132,8.8899,8.8899,8.8899,8.8854,8.8645,8.8396,8.8213,8.8213,8.8052,8.7901,8.7901,8.7901,8.7901,8.7901,8.7901,8.7901,8.7901,8.7901,8.8064,8.851,8.8577,8.877,8.9233,8.9299,8.9299,8.9299,8.9299,8.9299,8.9299,8.9299,8.9263,8.9263,8.9263,8.9263,8.9263,8.9263,8.9263,8.9263,8.9263,8.9066,8.86,8.8577,8.8351,8.7866,8.7866,8.7866,8.7866,8.7866,8.7866,7.0804,7.1481,7.1872,7.2031,7.1442,7.0728,7.0193,6.9229,6.8337,6.7838,6.8587,6.9141,6.8587,6.9586,7.1014,7.2548,7.2798,7.3904,7.7045,7.7508,7.8401,8.0791,8.2219,8.3325,8.4146,8.5243,8.6213,8.6963,8.8016,8.893,8.9698,8.9917,9.0063,9.0172,9.0172,9.0172,9.0172,9.0172,9.0167,9.0105,9.0105,9.0063,9.0001,9.0001,8.9917,8.9734,8.9734,8.9649,8.9536,8.9536,8.9493,8.9371,8.9371,8.9364,8.9299,8.9299,8.9299,8.9299,8.9299,8.9176,8.9044,8.9044,8.889,8.8667,8.8487,8.8555,8.8645,8.8396,8.8167,8.7983,8.7983,8.7948,8.7901,8.7901,8.7901,8.7901,8.7901,8.7901,8.7901,8.7901,8.7901,8.8064,8.851,8.8577,8.877,8.9233,8.9299,8.9299,8.9299,8.9299,8.9299,8.9299,8.9299,8.9299,8.9299,8.9299,8.9299,8.9299,8.9299,8.9299,8.9299,8.9299,8.9102,8.86,8.8577,8.8351,8.7901,8.7901,8.7901,8.7901,8.7901,8.7901,6.8803,6.9582,7.0007,7.0112,6.9825,6.9378,6.8879,6.8216,6.7536,6.7007,6.7881,6.8596,6.8011,6.9204,7.0805,7.2371,7.262,7.3687,7.6854,7.7338,7.8431,8.1184,8.2611,8.3718,8.4518,8.5573,8.643,8.6858,8.8077,8.8999,8.9443,8.9664,8.9749,8.9749,8.9917,9.0001,9.0001,9.0001,8.9959,8.9839,8.9839,8.9833,8.9749,8.9749,8.9628,8.9479,8.9479,8.9414,0.0,8.9299,8.9299,8.9299,8.9299,8.9299,8.9299,8.9299,8.9299,8.9299,8.9176,8.9044,8.8899,8.8788,8.8645,8.8396,8.8144,8.819,8.8317,8.8121,8.8018,8.7901,8.7901,8.7901,8.7901,8.7901,8.7901,8.7901,8.7901,8.7901,8.7901,8.7901,8.7901,8.8041,8.8373,8.851,8.8712,8.9088,8.9255,8.9299,8.9299,8.9548,8.9727,8.9727,8.9998,9.0155,9.0155,8.9905,8.9727,8.9727,8.9727,8.9641,8.9299,8.9299,8.9102,8.86,8.8577,8.8351,8.7901,8.7901,8.7901,8.7901,8.7901,8.7901,0.0,6.7425,6.7513,6.7583,6.7685,6.7785,6.7785,6.7333,0.0,6.6628,6.7289,6.7807,6.7618,6.8858,7.0416,7.2044,7.2292,7.339,7.645,7.7192,7.8594,8.1802,8.2857,8.3677,8.4569,8.6016,8.6908,8.7001,8.8407,8.9299,8.9299,8.9299,8.9299,8.9299,8.9728,8.9959,8.9959,8.9959,8.9854,8.9586,8.9586,8.9479,8.9299,8.9299,8.9299,8.9299,8.9299,8.9299,8.9299,8.9299,8.9299,8.9299,8.9299,8.9299,8.9299,8.9299,8.9299,8.9255,8.8987,8.8877,8.881,8.8622,8.8373,8.8144,8.7971,8.7901,8.7901,8.7901,8.7901,8.7901,8.7901,8.7901,8.7901,8.7901,8.7936,8.7972,8.7972,8.8007,8.8077,8.8077,8.8077,8.8112,8.8344,8.8596,8.8844,8.9054,8.9275,8.9441,8.9441,9.0141,9.0569,9.0569,9.1176,9.164,9.1675,9.0997,9.0569,9.0569,9.0569,9.0212,8.9406,8.937,8.9116,8.86,8.859,8.8363,8.7901,8.7901,8.7901,8.7901,8.7901,8.7901,6.4193,0.0,6.6686,6.7425,6.7157,6.6749,0.0,6.6197,6.5698,6.5649,6.6731,6.767,6.7601,6.8858,7.0416,7.2044,7.2292,7.339,7.645,7.8492,8.0182,8.1555,8.2407,8.3477,8.5052,8.6105,8.7009,8.775,8.8749,8.9299,8.9299,8.9299,8.9299,8.9299,8.9407,8.9471,8.9471,8.9471,8.945,8.9385,8.9385,8.9364,8.9299,8.9299,8.9299,8.9299,8.9299,8.9299,8.9299,8.9299,8.9299,8.9299,8.9299,8.9299,8.9299,8.9299,8.9154,8.8965,8.8921,8.8654,8.8351,8.8121,8.8041,8.7971,8.7925,8.7901,8.7901,8.7901,8.7901,8.7901,8.7901,8.7901,8.7901,8.7901,8.8323,8.8721,8.8721,8.9212,8.9669,8.9669,8.9669,8.9705,8.9929,9.0186,9.0474,9.0725,9.0913,9.1069,9.1069,9.1212,9.1354,9.1354,9.1497,9.1854,9.2461,9.1783,9.1354,9.1354,9.1354,9.0997,9.0248,9.0036,8.9507,8.8635,8.8272,8.8018,8.7901,8.7901,8.7901,8.7901,8.7901,8.7901,6.2862,6.4264,6.5616,6.6142,6.6016,6.5749,6.5749,6.5515,6.5389,6.5642,6.665,6.7534,6.7835,6.9122,7.0568,7.1802,7.2613,7.4204,7.7373,7.9549,8.1145,8.1992,8.2771,8.377,8.5138,8.5976,8.6822,8.7712,8.853,8.8992,8.8992,8.8992,8.8992,8.8992,8.9066,8.9176,8.9299,8.9299,8.9299,8.9299,8.9299,8.9299,8.9299,8.9299,8.9299,8.9299,8.9299,8.9299,8.9299,8.9299,8.9299,8.9299,8.9299,8.9299,8.9299,8.9154,8.9009,8.8877,8.8654,8.8351,8.8029,8.7948,8.7901,8.7901,8.7901,8.7901,8.7901,8.7901,8.7901,8.7901,8.7901,8.8147,8.8393,8.8393,8.8966,8.9563,8.9563,8.9879,9.0195,9.0195,9.0195,9.0243,9.0327,9.0658,9.096,9.1098,9.138,9.1604,9.1604,9.1925,9.2139,9.2139,9.2461,9.2808,9.3158,9.2779,9.2397,9.2175,9.2027,9.1661,9.0913,9.0595,8.9991,8.8984,8.8263,8.7901,8.7901,8.7901,8.7901,8.7901,8.7901,8.7901,6.2195,6.3442,6.4548,6.4654,6.4809,6.4999,6.5121,6.5275,6.5554,6.6196,6.6901,6.7623,6.827,6.9551,7.085,7.1903,7.3448,7.5509,7.8456,8.0203,8.1592,8.2503,8.3408,8.4314,8.5149,8.5892,8.6692,8.7528,8.8223,8.8577,8.8577,8.8577,8.8577,8.8577,8.8779,8.8978,8.9211,8.9277,8.9299,8.9299,8.9299,8.9299,8.9299,8.9299,8.9299,8.9299,8.9299,8.9299,8.9299,8.9299,8.9299,8.9299,8.9299,8.9277,8.9198,8.8965,8.8854,8.8721,8.8305,8.8029,8.7901,8.7901,8.7901,8.7901,8.7901,8.7901,8.7901,8.7901,8.7901,8.7936,8.8042,8.8533,8.9037,8.9142,8.9774,9.0371,9.0371,9.0476,9.0546,9.0546,9.0546,9.0546,9.0546,9.0893,9.1221,9.1268,9.1623,9.1916,9.1961,9.2545,9.2915,9.2915,9.3499,9.3812,9.358,9.3556,9.3365,9.2918,9.2664,9.2171,9.138,9.1031,9.0433,8.9542,8.8662,8.8253,8.8253,8.8112,8.8077,8.8077,8.7936,8.7901,6.2195,6.3073,6.3934,6.4548,6.4706,6.4916,6.5601,6.5811,6.6022,6.6708,6.7515,6.8323,6.9078,6.9902,7.1201,7.3308,7.5464,7.7275,7.8496,7.9986,8.1272,8.2088,8.3459,8.4687,8.5684,8.6483,8.7384,8.8342,8.8542,8.8577,8.8577,8.8577,8.8577,8.8577,8.8622,8.8667,8.8725,8.9102,8.9299,8.9299,8.9299,8.9299,8.9299,8.9299,8.9299,8.9299,8.9299,8.9299,8.9299,8.9299,8.9299,8.9299,8.9299,8.9154,8.8943,8.8921,8.8654,8.8282,8.8006,8.7925,8.7901,8.7901,8.7901,8.7901,8.7901,8.7901,8.7901,8.7901,8.7901,8.8042,8.865,8.8896,8.9177,8.9844,9.0581,9.1108,9.1108,9.167,9.2161,9.2161,9.2161,9.2161,9.2161,9.237,9.2659,9.2814,9.3096,9.3386,9.358,9.3527,9.3495,9.3495,9.338,9.331,9.3262,9.3262,9.3227,9.3132,9.3109,9.2637,9.167,9.0928,9.0399,9.0091,8.9938,8.9844,8.9844,8.9142,8.8826,8.8826,8.8182,8.7901,6.2195,6.3002,6.3863,6.5057,6.5338,6.5443,6.5812,6.6233,6.6707,6.7497,6.8287,6.906,6.9832,7.1307,7.3167,7.5464,7.71,7.8469,7.9662,8.0821,8.198,8.3208,8.3981,8.4904,8.6212,8.6692,8.7266,8.8155,8.8226,8.8226,8.8226,8.8226,8.8226,8.8226,8.8328,8.8373,8.8373,8.8734,8.8948,8.8948,8.8948,8.8948,8.8948,8.8948,8.8948,8.8948,8.8948,8.8948,8.8948,8.8948,8.8948,8.8948,8.8948,8.8846,8.8734,8.86,8.8328,8.8006,8.7948,8.7901,8.7901,8.7901,8.7901,8.7901,8.7901,8.7901,8.7972,8.8393,8.8498,8.8545,8.8896,8.9598,9.0336,9.0722,9.1389,9.1951,9.1951,9.2232,9.2477,9.2477,9.2477,9.2477,9.2477,9.2733,9.2951,9.3012,9.325,9.3427,9.3544,9.3451,9.338,9.338,9.3262,9.3144,9.306,9.3036,9.3036,9.3036,9.3036,9.2763,9.2145,9.1347,9.0877,9.0792,9.0406,9.0195,9.0195,8.9844,8.9633,8.9633,8.9282,8.9142,6.2062,6.2902,6.39,6.5461,6.5882,6.5987,6.6374,6.7023,6.7796,6.8603,6.9376,7.0218,7.1166,7.3238,7.5449,7.738,7.8363,7.9417,8.0961,8.1874,8.2857,8.4239,8.4696,8.542,8.6614,8.686,8.7234,8.7831,8.7901,8.7901,8.7901,8.7901,8.7901,8.7901,8.8029,8.8121,8.8121,8.8328,8.8464,8.8577,8.8577,8.8577,8.8577,8.8577,8.8577,8.8577,8.8577,8.8577,8.8577,8.8577,8.8577,8.8577,8.8577,8.8555,8.8464,8.8213,8.8029,8.7901,8.7901,8.7901,8.7901,8.7901,8.7901,8.7901,8.7901,8.8007,8.8288,8.8826,8.9247,8.9528,8.9528,9.0406,9.1378,9.1529,9.2056,9.2477,9.2477,9.2477,9.2477,9.2477,9.2477,9.2477,9.2477,9.2684,9.283,9.2903,9.3036,9.3144,9.3191,9.3144,9.312,9.312,9.3072,9.2988,9.283,9.2806,9.2806,9.2806,9.2806,9.2733,9.2502,9.1916,9.1564,9.1564,9.1038,9.0757,9.0757,9.0546,9.0476,9.0441,9.0265,9.0195,6.1726,6.2613,6.3711,6.525,6.5741,6.6251,6.7725,6.8638,6.9429,7.0183,7.0972,7.2009,7.3483,7.5605,7.743,7.8363,7.9171,8.0224,8.1791,8.2647,8.3454,8.4274,8.5666,8.6579,8.6684,8.7375,8.7831,8.7901,8.7901,8.7901,8.7901,8.7901,8.7901,8.7901,8.7925,8.7925,8.7925,8.7948,8.818,8.8577,8.8577,8.8577,8.8577,8.8577,8.8577,8.8577,8.8577,8.8577,8.8577,8.8577,8.8577,8.8577,8.8577,8.8442,8.819,8.8018,8.7925,8.7901,8.7901,8.7901,8.7901,8.7901,8.7901,8.7901,8.7901,8.8393,8.8931,8.9001,9.002,9.1108,9.1108,9.1238,9.1519,9.2232,9.2442,9.2477,9.2477,9.2477,9.2477,9.2477,9.2477,9.2477,9.2477,9.2537,9.26,9.2878,9.2927,9.2988,9.3167,9.3036,9.2927,9.2927,9.2673,9.2526,9.2502,9.2502,9.2502,9.2502,9.2502,9.2502,9.2477,9.2442,9.2407,9.2407,9.2337,9.2337,9.2337,9.1564,9.1238,9.1178,9.0511,9.0195,6.1831,6.3189,6.4792,6.5891,6.7014,6.8089,6.8795,6.9516,7.0323,7.1096,7.2254,7.3764,7.5745,7.724,7.8399,7.9227,8.0421,8.144,8.2037,8.3173,8.4227,8.4999,8.6052,8.6895,8.741,8.7726,8.7901,8.7901,8.7901,8.7901,8.7901,8.7901,8.7901,8.7901,8.7901,8.7901,8.7901,8.7901,8.7995,8.8144,8.8144,8.8144,8.8144,8.8144,8.8144,8.8144,8.8144,8.8144,8.8144,8.8144,8.8144,8.8144,8.8144,8.811,8.7983,8.7948,8.7901,8.7901,8.7901,8.7901,8.7901,8.7901,8.7901,8.7972,8.8463,8.8756,8.9212,9.016,9.0827,9.1284,9.1284,9.167,9.2126,9.2407,9.2477,9.2477,9.2477,9.2477,9.2477,9.2477,9.2477,9.2477,9.2477,9.2477,9.2526,9.266,9.266,9.2673,9.2746,9.2698,9.266,9.266,9.2586,9.2477,9.2477,9.2477,9.2477,9.2477,9.2477,9.2477,9.2477,9.2477,9.2477,9.2477,9.2477,9.2477,9.2477,9.2196,9.2056,9.2021,9.174,9.1635,6.171,6.3412,6.5393,6.6211,6.7682,6.9196,7.0062,7.0966,7.1763,7.2325,7.3834,7.5625,7.7451,7.8434,7.9332,8.0351,8.1404,8.2177,8.2401,8.377,8.4929,8.5455,8.6439,8.7281,8.7831,8.7901,8.7901,8.7901,8.7901,8.7901,8.7901,8.7901,8.7901,8.7901,8.7901,8.7901,8.7901,8.7901,8.7901,8.7901,8.7901,8.7901,8.7901,8.7901,8.7901,8.7901,8.7901,8.7901,8.7901,8.7901,8.7901,8.7901,8.7901,8.7901,8.7901,8.7901,8.7901,8.7901,8.7901,8.7901,8.7901,8.7901,8.8077,8.8358,8.8861,8.9317,8.9949,9.1003,9.1459,9.167,9.167,9.2091,9.2477,9.2477,9.2477,9.2477,9.2477,9.2477,9.2477,9.2477,9.2477,9.2477,9.2477,9.2477,9.2477,9.2477,9.2477,9.2477,9.2477,9.2477,9.2477,9.2477,9.2477,9.2477,9.2477,9.2477,9.2477,9.2477,9.2477,9.2477,9.2477,9.2477,9.2477,9.2477,9.2477,9.2477,9.2477,9.2477,9.2477,9.2477,9.2477,9.2477,6.1323,6.3141,6.519,6.6025,6.7475,6.9327,7.1678,7.3133,7.401,7.401,7.5815,7.7641,7.8469,7.9276,8.0294,8.1839,8.2085,8.2366,8.3081,8.4543,8.5491,8.5491,8.6895,8.7901,8.7901,8.7901,8.7901,8.7901,8.7901,8.7901,8.7901,8.7901,8.7901,8.7901,8.7901,8.7901,8.7901,8.7901,8.7901,8.7901,8.7901,8.7901,8.7901,8.7901,8.7901,8.7901,8.7901,8.7901,8.7901,8.7901,8.7901,8.7901,8.7901,8.7901,8.7901,8.7901,8.7901,8.7901,8.7901,8.7901,8.7901,8.7901,8.8393,8.9001,8.9001,9.009,9.1284,9.1308,9.188,9.2477,9.2477,9.2477,9.2477,9.2477,9.2477,9.2477,9.2477,9.2477,9.2477,9.2477,9.2477,9.2477,9.2477,9.2477,9.2477,9.2477,9.2477,9.2477,9.2477,9.2477,9.2477,9.2477,9.2477,9.2477,9.2477,9.2477,9.2477,9.2477,9.2477,9.2477,9.2477,9.2477,9.2477,9.2477,9.2477,9.2477,9.2477,9.2477,9.2477,9.2477,9.2477,9.2477,6.2634,6.4276,6.5937,6.7215,6.8823,7.0555,7.238,7.3139,7.4011,7.5796,7.7111,7.8195,7.9008,8.0081,8.0996,8.1472,8.2018,8.2471,8.2681,8.4042,8.5019,8.5019,8.6415,8.7357,8.7357,8.7524,8.7619,8.7619,8.7619,8.7619,8.7619,8.7453,8.7357,8.7357,8.7357,8.7357,8.7357,8.7357,8.7357,8.7357,8.7357,8.7548,8.7901,8.7714,8.7619,8.7619,8.7619,8.7619,8.7643,8.7831,8.7901,8.7901,8.7901,8.7901,8.7901,8.7901,8.7901,8.7901,8.7901,8.7901,8.7901,8.7901,8.8393,8.9107,8.9669,9.0511,9.1424,9.1986,9.2302,9.2477,9.2477,9.2477,9.2477,9.2477,9.2477,9.2477,9.2477,9.2477,9.2477,9.2477,9.2477,9.2477,9.2477,9.2477,9.2477,9.2477,9.2477,9.2477,9.2477,9.2477,9.2477,9.2477,9.2477,9.2477,9.2477,9.2477,9.2477,9.2477,9.2477,9.2477,9.2477,9.2477,9.2477,9.2477,9.2477,9.2477,9.2477,9.2477,9.2477,9.2477,9.2477,9.2477,6.3186,6.4722,6.624,6.7738,6.9563,7.16,7.3724,7.4704,7.5652,7.7486,7.8449,7.9217,8.0006,8.078,8.1421,8.1699,8.2174,8.251,8.251,8.381,8.4785,8.4785,8.6177,8.7117,8.7117,8.7261,8.7357,8.7357,8.7357,8.7357,8.7357,8.7189,8.7117,8.7117,8.7117,8.7117,8.7117,8.7117,8.7117,8.7117,8.7117,8.7285,8.7596,8.7429,8.7357,8.7357,8.7477,8.7501,8.7524,8.7808,8.7901,8.7901,8.7901,8.7901,8.7901,8.7901,8.7901,8.7901,8.7901,8.7901,8.7913,8.8135,8.8719,8.9466,9.0115,9.0826,9.155,9.2075,9.2155,9.2205,9.2304,9.2329,9.2354,9.2453,9.2477,9.2477,9.2477,9.2477,9.2477,9.2477,9.2477,9.2477,9.2477,9.2477,9.2477,9.2477,9.2477,9.2477,9.2477,9.2477,9.2477,9.2477,9.2477,9.2477,9.2477,9.2477,9.2477,9.2477,9.2477,9.2477,9.2477,9.2477,9.2477,9.2477,9.2477,9.2477,9.2477,9.2477,9.2477,9.2477,9.2477,9.2477,6.3358,6.4895,6.6378,6.7911,7.0049,7.2567,7.5511,7.7176,7.8211,7.8859,7.9659,8.0494,8.1132,8.1283,8.1561,8.2314,8.2442,8.2442,8.2442,8.374,8.4714,8.4714,8.6105,8.7044,8.7044,8.7068,8.7068,8.7068,8.7068,8.7068,8.7068,8.7044,8.7044,8.7044,8.7044,8.7044,8.7044,8.7044,8.7044,8.7044,8.7044,8.7044,8.7044,8.7068,8.7068,8.7092,8.7357,8.7477,8.7524,8.7808,8.7901,8.7901,8.7901,8.7901,8.7901,8.7901,8.7901,8.7901,8.7878,8.7913,8.8042,8.8423,8.9165,8.9919,9.0359,9.105,9.1676,9.1676,9.1676,9.1752,9.203,9.208,9.2155,9.2463,9.2477,9.2477,9.2477,9.2477,9.2477,9.2477,9.2477,9.2477,9.2477,9.2477,9.2477,9.2477,9.2477,9.2477,9.2477,9.2477,9.2477,9.2477,9.2477,9.2477,9.2477,9.2477,9.2477,9.2477,9.2477,9.2477,9.2477,9.2477,9.2477,9.2477,9.2477,9.2477,9.2477,9.2477,9.2477,9.2477,9.2477,9.2477,6.4653,6.6068,6.7275,6.938,7.205,7.4671,7.6546,7.8119,7.9084,7.8814,7.9864,8.087,8.1043,8.1401,8.1769,8.1941,8.1941,8.1941,8.1941,8.3255,8.4164,8.4164,8.5511,8.6469,8.6469,8.6667,8.6789,8.6789,8.6789,8.6789,8.6789,8.6568,8.6469,8.6469,8.6469,8.6469,8.6469,8.6469,8.6469,8.6469,8.6469,8.6469,8.6469,8.6691,8.6789,8.6789,8.7092,8.7309,8.7524,8.7808,8.7901,8.7901,8.7901,8.7901,8.7901,8.7901,8.7901,8.7878,8.7667,8.7981,8.8434,8.8307,8.9209,9.0359,9.0483,9.105,9.1676,9.1676,9.1676,9.1752,9.203,9.208,9.2155,9.2463,9.2477,9.2477,9.2477,9.2477,9.2477,9.2477,9.2477,9.2477,9.2477,9.2477,9.2477,9.2477,9.2477,9.2477,9.2477,9.2477,9.2477,9.2477,9.2477,9.2477,9.2477,9.2477,9.2477,9.2477,9.2477,9.2477,9.2477,9.2477,9.2477,9.2477,9.2477,9.2477,9.2477,9.2477,9.2477,9.2477,9.2477,9.2477,6.4916,6.637,6.7827,7.1208,7.3464,7.5373,7.7339,7.8649,7.9523,7.9568,8.0582,8.1377,8.1377,8.1629,8.181,8.181,8.181,8.181,8.181,8.3087,8.3993,8.3993,8.5363,8.6294,8.6294,8.6419,8.6518,8.6518,8.6518,8.6518,8.6518,8.6369,8.6294,8.6294,8.6294,8.6294,8.6294,8.6294,8.6294,8.6294,8.6294,8.6294,8.6294,8.6444,8.6518,8.6518,8.6946,8.7189,8.7357,8.7737,8.7901,8.7901,8.7901,8.7901,8.7901,8.7761,8.7924,8.8192,8.7929,8.8321,8.8945,8.9081,8.9666,9.0335,9.0589,9.0944,9.1291,9.1291,9.1394,9.1548,9.1828,9.198,9.2155,9.2463,9.2477,9.2477,9.2477,9.2477,9.2477,9.2477,9.2477,9.2477,9.2477,9.2477,9.2477,9.2477,9.2477,9.2477,9.2477,9.2477,9.2477,9.2477,9.2477,9.2477,9.2477,9.2477,9.2477,9.2477,9.2477,9.2477,9.2477,9.2477,9.2477,9.2477,9.2477,9.2477,9.2477,9.2477,9.2477,9.2477,9.2477,9.2477,6.4744,6.6548,6.8621,7.2912,7.4464,7.5546,7.8051,7.9086,7.9776,8.0614,8.1362,8.181,8.181,8.181,8.181,8.181,8.181,8.181,8.181,8.2983,8.3855,8.3959,8.5259,8.6156,8.6294,8.6294,8.6294,8.6294,8.6294,8.6294,8.6294,8.6294,8.6294,8.6294,8.6294,8.6294,8.6294,8.6294,8.6294,8.6294,8.6294,8.6294,8.6294,8.6294,8.6294,8.6319,8.6814,8.7068,8.7141,8.7643,8.7878,8.7901,8.7901,8.7878,8.7808,8.7736,8.8071,8.8498,8.837,8.8827,8.9507,8.9879,9.0114,9.027,9.0658,9.0812,9.0812,9.0812,9.1057,9.1377,9.1625,9.1879,9.2155,9.2463,9.2477,9.2477,9.2477,9.2477,9.2477,9.2477,9.2477,9.2477,9.2477,9.2477,9.2477,9.2477,9.2477,9.2477,9.2477,9.2477,9.2477,9.2477,9.2477,9.2477,9.2477,9.2477,9.2477,9.2477,9.2477,9.2477,9.2477,9.2477,9.2547,9.2688,9.2547,9.2477,9.2477,9.2477,9.2477,9.2477,9.2477,9.2477,6.4706,6.7738,7.0705,7.396,7.4822,7.5684,7.8649,7.9431,7.9913,8.1362,8.1741,8.181,8.181,8.181,8.181,8.181,8.181,8.181,8.181,8.2535,8.3269,8.3924,8.4811,8.5604,8.626,8.6294,8.6294,8.6294,8.6294,8.6294,8.6294,8.6294,8.6294,8.6294,8.6294,8.6294,8.6294,8.6294,8.6294,8.6294,8.6294,8.6294,8.6294,8.6294,8.6294,8.6294,8.6617,8.6887,8.7141,8.7429,8.769,8.7901,8.7901,8.7761,8.7642,8.8235,8.8369,8.83,8.8747,8.9375,8.9948,8.983,9.0175,9.0727,9.0778,9.0812,9.0812,9.0812,9.1057,9.1377,9.1625,9.1879,9.2155,9.2463,9.2477,9.2477,9.2477,9.2477,9.2477,9.2477,9.2477,9.2477,9.2477,9.2477,9.2477,9.2477,9.2477,9.2477,9.2477,9.2477,9.2477,9.2477,9.2477,9.2477,9.2477,9.2477,9.2477,9.2477,9.2477,9.2477,9.2477,9.2477,9.2793,9.3435,9.2828,9.2477,9.2477,9.2477,9.2477,9.2477,9.2477,9.2477,6.5181,6.8189,7.087,7.3615,7.458,7.5718,7.8787,7.9477,7.9948,8.1466,8.181,8.181,8.181,8.181,8.181,8.181,8.181,8.181,8.181,8.2431,8.319,8.389,8.4708,8.5501,8.6225,8.6294,8.6294,8.6294,8.6294,8.6294,8.6294,8.6294,8.6294,8.6294,8.6294,8.6294,8.6294,8.6294,8.6294,8.6294,8.6294,8.6294,8.6294,8.6294,8.6294,8.6294,8.6593,8.6765,8.6912,8.7333,8.7572,8.769,8.769,8.7619,8.7547,8.799,8.8351,8.8722,8.9232,8.989,9.0452,9.0356,9.0536,9.0812,9.0812,9.0812,9.0812,9.0812,9.1161,9.1523,9.1651,9.2005,9.2329,9.2453,9.2477,9.2477,9.2477,9.2477,9.2477,9.2477,9.2477,9.2477,9.2477,9.2477,9.2477,9.2477,9.2477,9.2477,9.2477,9.2477,9.2477,9.2477,9.2477,9.2477,9.2477,9.2477,9.2477,9.2477,9.2477,9.2477,9.2477,9.2477,9.2863,9.3576,9.326,9.3355,9.3776,9.3355,9.3144,9.3109,9.2688,9.2477,6.5573,6.815,7.0402,7.2806,7.418,7.5615,7.8304,7.9201,7.9879,8.1224,8.1672,8.181,8.181,8.181,8.181,8.181,8.181,8.181,8.181,8.2293,8.2983,8.389,8.4535,8.5259,8.6225,8.6294,8.6294,8.6294,8.6294,8.6294,8.6294,8.6294,8.6294,8.6294,8.6294,8.6294,8.6294,8.6294,8.6294,8.6294,8.6294,8.6294,8.6294,8.6294,8.6294,8.6294,8.6518,8.6642,8.674,8.713,8.7357,8.7405,8.7405,8.7381,8.7366,8.7914,8.8468,8.899,8.9752,9.0329,9.0812,9.0812,9.0812,9.0812,9.0812,9.0812,9.0812,9.0812,9.1204,9.1676,9.1676,9.208,9.2477,9.2477,9.2477,9.2477,9.2477,9.2477,9.2477,9.2477,9.2477,9.2477,9.2477,9.2477,9.2477,9.2477,9.2477,9.2477,9.2477,9.2477,9.2477,9.2477,9.2477,9.2477,9.2477,9.2477,9.2477,9.2477,9.2477,9.2453,9.2379,9.2379,9.281,9.3691,9.3691,9.4047,9.482,9.4198,9.3892,9.3917,9.3355,9.3074,6.5677,6.755,6.9571,7.1824,7.3637,7.5339,7.6959,7.8442,7.9718,8.0476,8.1293,8.181,8.181,8.181,8.181,8.181,8.181,8.181,8.181,8.1845,8.2397,8.3821,8.4028,8.4649,8.6156,8.6294,8.6294,8.6294,8.6294,8.6294,8.6294,8.6294,8.6294,8.6294,8.6294,8.6294,8.6294,8.6294,8.6294,8.6294,8.6294,8.6294,8.6294,8.6294,8.6294,8.6294,8.6294,8.6469,8.6716,8.674,8.6887,8.7117,8.7117,8.696,8.6914,8.8379,8.8791,8.8838,9.026,9.0778,9.0812,9.0812,9.0812,9.0812,9.0812,9.0812,9.0812,9.0812,9.1204,9.1676,9.1676,9.208,9.2477,9.2477,9.2477,9.2477,9.2477,9.2477,9.2477,9.2477,9.2477,9.2477,9.2477,9.2477,9.2477,9.2477,9.2477,9.2477,9.2477,9.2477,9.2477,9.2477,9.2477,9.2477,9.2477,9.2477,9.2477,9.2477,9.2477,9.2414,9.213,9.2105,9.2713,9.3956,9.3964,9.425,9.482,9.4785,9.4749,9.4749,9.4714,9.4679,6.4883,6.6575,6.8425,7.0828,7.2378,7.3959,7.6448,7.7524,7.8373,7.9614,8.05,8.1052,8.1052,8.1466,8.181,8.181,8.181,8.181,8.181,8.181,8.219,8.319,8.3683,8.4432,8.5501,8.6018,8.6294,8.6294,8.6294,8.6294,8.6294,8.6294,8.6294,8.6294,8.6294,8.6294,8.6294,8.6294,8.6294,8.6294,8.6294,8.6294,8.6294,8.6294,8.6294,8.6294,8.6294,8.6344,8.6444,8.6642,8.6765,8.6838,8.6838,8.6789,8.6795,8.7634,8.8233,8.8743,8.9743,9.0398,9.0812,9.0812,9.0812,9.0812,9.0812,9.0812,9.0812,9.0812,9.1204,9.1676,9.1676,9.208,9.2477,9.2477,9.2477,9.2477,9.2477,9.2477,9.2477,9.2477,9.2477,9.2477,9.2477,9.2477,9.2477,9.2477,9.2477,9.2477,9.2477,9.2477,9.2428,9.2255,9.223,9.2155,9.198,9.198,9.198,9.198,9.198,9.1929,9.1828,9.1828,9.2509,9.3973,9.4008,9.4565,9.5716,9.5201,9.4992,9.4992,9.4468,9.4224,6.4049,6.561,6.7311,6.9173,7.0977,7.2793,7.4816,7.6209,7.7364,7.842,7.9465,8.0235,8.0235,8.0856,8.15,8.1776,8.181,8.181,8.181,8.181,8.2086,8.2811,8.3304,8.4052,8.5087,8.5639,8.6018,8.6294,8.6294,8.6294,8.6294,8.6294,8.6294,8.6294,8.6294,8.6294,8.6294,8.6294,8.6294,8.6294,8.6294,8.6294,8.6294,8.6294,8.6294,8.6294,8.6294,8.6294,8.6294,8.6494,8.6568,8.6568,8.6568,8.6568,8.6647,8.7172,8.7743,8.8329,8.9364,9.0019,9.0467,9.0743,9.0812,9.0812,9.0812,9.0812,9.0812,9.0917,9.1317,9.1701,9.1803,9.2155,9.2477,9.2477,9.2477,9.2477,9.2477,9.2477,9.2477,9.2477,9.2477,9.2477,9.2477,9.2477,9.2453,9.2354,9.2389,9.2329,9.223,9.2205,9.2155,9.198,9.1955,9.1879,9.1736,9.1676,9.1676,9.1676,9.1676,9.1651,9.1548,9.1792,9.2504,9.3649,9.3962,9.469,9.5932,9.5607,9.547,9.547,9.4913,9.4643,0.0,0.0,0.0,6.6976,6.9527,7.1883,7.1985,7.4475,7.6782,7.685,7.8236,7.9442,7.9442,8.0063,8.0821,8.1603,8.1776,8.181,8.181,8.181,8.2086,8.2776,8.288,8.35,8.4984,8.5156,8.5466,8.6191,8.6225,8.6225,8.6225,8.6225,8.6225,8.6225,8.6225,8.626,8.626,8.626,8.6294,8.6294,8.6294,8.6294,8.6294,8.6294,8.6294,8.6294,8.6294,8.6294,8.6294,8.6294,8.6294,8.6294,8.6294,8.6294,8.6398,8.7122,8.7398,8.7605,8.9122,8.9674,8.9812,9.0536,9.0778,9.0812,9.0812,9.0812,9.0865,9.1187,9.1506,9.1752,9.203,9.228,9.2477,9.2477,9.2477,9.2477,9.2477,9.2477,9.2477,9.2477,9.2477,9.2477,9.2477,9.2477,9.2379,9.213,9.208,9.198,9.1727,9.1676,9.1711,9.1676,9.1676,9.1676,9.1651,9.1651,9.1651,9.1651,9.1651,9.1583,9.1334,9.2027,9.2623,9.3123,9.3882,9.4641,9.54,9.5905,9.6174,9.6174,9.6174,9.6174,6.3139,0.0,0.0,0.0,0.0,0.0,7.1268,7.2624,7.3849,7.5672,7.6896,7.7846,7.8557,7.9327,7.9879,8.012,8.1086,8.181,8.181,8.181,8.1879,8.2086,8.2569,8.3087,8.35,8.4018,8.4432,8.4639,8.4639,8.4639,8.4639,8.4639,8.4639,8.4639,8.4639,8.4915,8.5501,8.5501,8.5777,8.6294,8.6294,8.6294,8.6294,8.6294,8.6294,8.6294,8.6294,8.6294,8.6294,8.6294,8.6294,8.6294,8.6294,8.6294,8.6329,8.6536,8.6949,8.7467,8.7881,8.8777,8.9743,8.995,9.0364,9.0812,9.0812,9.0944,9.1161,9.1265,9.1625,9.203,9.2304,9.2428,9.2477,9.2477,9.2477,9.2477,9.2477,9.2477,9.2477,9.2477,9.2477,9.2477,9.2477,9.2329,9.218,9.2105,9.1929,9.1778,9.1701,9.1676,9.1634,9.1455,9.1429,9.1291,9.1048,9.1048,9.1048,9.1048,9.1048,9.1299,9.1807,9.2014,9.2686,9.3916,9.4185,9.4641,9.54,9.553,9.5613,9.5613,9.5613,9.5613,0.0,0.0,6.3883,6.5472,0.0,0.0,6.9635,7.1032,7.2307,7.3738,7.4979,7.6027,7.6699,7.7685,7.8454,7.8546,7.9844,8.0948,8.1259,8.1603,8.181,8.181,8.219,8.2569,8.288,8.3293,8.3649,8.3959,8.3993,8.3993,8.3993,8.3993,8.3993,8.3993,8.3993,8.4225,8.4708,8.5018,8.5432,8.5846,8.6156,8.6294,8.6294,8.6294,8.6294,8.6294,8.6294,8.6294,8.6294,8.6294,8.6294,8.6294,8.6294,8.6294,8.6294,8.6294,8.657,8.6984,8.7294,8.8226,8.9295,8.9605,9.0192,9.0812,9.0812,9.1031,9.1325,9.1455,9.1854,9.228,9.2453,9.2477,9.2477,9.2477,9.2477,9.2477,9.2477,9.2477,9.2477,9.2477,9.2477,9.2453,9.2329,9.218,9.2005,9.1778,9.1625,9.1471,9.1343,9.1343,9.1265,9.1109,9.1083,9.1031,9.0812,9.0812,9.0812,9.0812,9.1123,9.1502,9.1985,9.2606,9.3365,9.4289,9.4599,9.4951,9.54,9.54,9.54,9.54,9.54,9.54,0.0,0.0,0.0,6.4309,6.5439,0.0,6.7557,6.9524,7.1226,7.152,7.2787,7.3999,7.4336,7.5592,7.6609,7.6858,7.8166,7.9442,8.0339,8.1086,8.1569,8.1672,8.1672,8.1948,8.2707,8.2776,8.3052,8.3683,8.3752,8.3752,8.3752,8.3752,8.3752,8.3752,8.3752,8.3787,8.3855,8.4604,8.5018,8.519,8.5846,8.6225,8.6294,8.6294,8.6294,8.6294,8.6294,8.6294,8.6294,8.6294,8.6294,8.6294,8.6294,8.6294,8.6294,8.6294,8.6294,8.6398,8.7053,8.7812,8.8605,8.9329,9.0088,9.0709,9.0778,9.1057,9.1429,9.1701,9.213,9.2477,9.2477,9.2477,9.2477,9.2477,9.2477,9.2477,9.2453,9.2463,9.2463,9.2438,9.2463,9.2354,9.208,9.203,9.1828,9.1377,9.1274,9.1135,9.0839,9.0812,9.0812,9.0812,9.0812,9.0812,9.0812,9.0812,9.0812,9.0812,9.1571,9.2019,9.2123,9.3503,9.4358,9.4427,9.5055,9.54,9.54,9.54,9.54,9.54,9.54,9.54,6.24,6.2516,6.2787,6.3531,6.3917,0.0,6.6588,6.7409,6.8328,7.0342,7.0986,7.1674,7.3123,7.38,7.4366,7.5006,7.6056,7.7442,7.9442,7.9844,8.0189,8.0752,8.0821,8.1132,8.1948,8.2017,8.2086,8.2224,8.2224,8.2224,8.2224,8.2224,8.2224,8.2224,8.2224,8.2535,8.3121,8.3259,8.3983,8.519,8.5363,8.5742,8.6294,8.6294,8.6294,8.6294,8.6294,8.6294,8.6294,8.6294,8.6294,8.6294,8.6294,8.6294,8.6294,8.6294,8.6294,8.6329,8.6467,8.7018,8.7777,8.857,8.9295,9.0019,9.064,9.1178,9.1701,9.2205,9.2403,9.2477,9.2477,9.2477,9.2477,9.2477,9.2477,9.2428,9.2205,9.2155,9.2105,9.1879,9.203,9.208,9.1803,9.1574,9.1429,9.1325,9.1083,9.0865,9.0812,9.0812,9.0812,9.0812,9.0812,9.0812,9.0812,9.0812,9.0812,9.0812,9.1571,9.2261,9.2847,9.3806,9.4599,9.5158,9.5331,9.54,9.54,9.54,9.54,9.54,9.54,9.54,6.24,6.24,6.2584,6.3328,6.3511,0.0,0.0,6.6,6.6617,6.7862,6.8697,6.9508,7.0528,7.1429,7.2175,7.2672,7.3919,7.5207,7.6343,7.7914,7.9224,7.9959,8.0028,8.0201,8.0603,8.0983,8.1362,8.1776,8.181,8.181,8.181,8.181,8.181,8.181,8.181,8.1983,8.2362,8.2742,8.3466,8.4604,8.5018,8.5604,8.6294,8.6294,8.6294,8.6294,8.6294,8.6294,8.6294,8.6294,8.6294,8.6294,8.6294,8.6294,8.6294,8.6294,8.6294,8.6294,8.6294,8.6777,8.7536,8.8329,8.9088,8.9847,9.0571,9.1204,9.1778,9.218,9.2414,9.2477,9.2477,9.2379,9.228,9.228,9.218,9.2055,9.1929,9.1879,9.1803,9.1548,9.1599,9.1651,9.1497,9.1403,9.1239,9.1083,9.0891,9.0812,9.0812,9.0812,9.0812,9.0812,9.0812,9.0812,9.0812,9.0812,9.0812,9.0812,9.1916,9.2709,9.3089,9.4227,9.502,9.5365,9.54,9.54,9.54,9.54,9.54,9.54,9.54,9.54,6.2434,6.24,6.2516,6.3159,6.3274,6.3497,0.0,0.0,0.0,6.5459,6.644,6.7383,6.7743,6.8812,6.9838,7.0315,7.1611,7.2652,7.2961,7.5279,7.7444,7.8683,7.8959,7.9097,7.927,7.9959,8.0649,8.1328,8.15,8.1569,8.1569,8.1707,8.181,8.181,8.181,8.181,8.181,8.2397,8.3087,8.3787,8.4604,8.5363,8.6087,8.6225,8.6294,8.6294,8.6294,8.6294,8.6294,8.6294,8.6294,8.6294,8.6294,8.6294,8.6294,8.6294,8.6294,8.6294,8.6294,8.6708,8.7329,8.8122,8.8984,8.9847,9.0658,9.1239,9.1676,9.1929,9.2155,9.2364,9.2364,9.218,9.2005,9.2005,9.1854,9.1711,9.1625,9.1599,9.1523,9.1239,9.1187,9.1187,9.1187,9.1187,9.1109,9.0839,9.0812,9.0812,9.0812,9.0812,9.0812,9.0812,9.0812,9.0812,9.0812,9.0812,9.0812,9.0812,9.2123,9.2951,9.3089,9.4572,9.54,9.54,9.54,9.54,9.54,9.54,9.54,9.54,9.54,9.54,6.2584,6.24,6.2434,6.2482,6.2516,6.2719,6.3463,0.0,6.3917,6.458,0.0,6.5155,6.5873,0.0,0.0,6.84,6.8929,6.9622,7.1012,7.1512,7.2931,7.6088,7.7063,7.7753,7.8465,7.9189,7.9649,7.9776,8.0373,8.0718,8.0718,8.1431,8.181,8.181,8.181,8.181,8.181,8.1879,8.2293,8.3052,8.3787,8.457,8.5363,8.6018,8.6294,8.6294,8.6294,8.6294,8.6294,8.6294,8.6294,8.6294,8.6294,8.6294,8.6294,8.6294,8.6294,8.6294,8.6294,8.6363,8.657,8.7294,8.8536,8.9899,9.0953,9.13,9.1403,9.1651,9.1752,9.1778,9.1778,9.1752,9.1762,9.1762,9.1701,9.1625,9.1403,9.1351,9.1239,9.0917,9.0865,9.0865,9.0865,9.0865,9.0839,9.0812,9.0812,9.0812,9.0812,9.0812,9.0812,9.0812,9.0812,9.0812,9.0812,9.0812,9.0812,9.0812,9.164,9.2399,9.3054,9.4572,9.54,9.54,9.54,9.54,9.54,9.54,9.54,9.54,9.54,9.54,6.326,6.3057,6.2882,6.231,6.2169,6.2197,6.2414,6.2542,6.2709,6.3013,0.0,0.0,0.0,0.0,0.0,0.0,6.6725,6.74,6.8014,6.8561,7.0172,7.349,7.4578,7.5574,7.6925,7.7718,7.8339,7.8844,7.9569,7.9959,7.9959,8.0707,8.1121,8.1121,8.1569,8.181,8.181,8.181,8.219,8.2914,8.3649,8.4432,8.5225,8.5949,8.6294,8.6294,8.6294,8.6294,8.6294,8.6294,8.6294,8.6294,8.6294,8.6294,8.6294,8.6294,8.6294,8.6294,8.6294,8.6294,8.6432,8.7156,8.8433,8.9769,9.0244,9.0789,9.1325,9.1455,9.1574,9.1676,9.1676,9.1574,9.148,9.148,9.1317,9.1161,9.1057,9.1031,9.0944,9.0839,9.0812,9.0812,9.0812,9.0812,9.0812,9.0812,9.0812,9.0812,9.0812,9.0812,9.0812,9.0812,9.0812,9.0812,9.0812,9.0812,9.0812,9.0812,9.195,9.2985,9.3744,9.4813,9.54,9.54,9.54,9.54,9.54,9.54,9.54,9.54,9.54,9.54,6.3924,6.3735,6.3472,6.2461,6.2199,6.2126,6.1763,6.1797,6.1917,6.1917,6.2548,0.0,0.0,0.0,6.4072,6.4275,0.0,6.5454,6.5658,6.6276,6.7844,7.0921,7.2163,7.3473,7.5217,7.5893,7.6536,7.7373,7.8304,7.8856,7.8856,7.9787,8.0373,8.058,8.119,8.1569,8.181,8.181,8.2086,8.2604,8.3362,8.4121,8.4915,8.5639,8.6122,8.6294,8.6294,8.6294,8.6294,8.6294,8.6294,8.6294,8.6294,8.6294,8.6294,8.6294,8.6294,8.6294,8.6294,8.6294,8.6432,8.7156,8.8329,8.9433,8.964,9.0356,9.1161,9.1161,9.1291,9.1446,9.1446,9.1317,9.1161,9.1161,9.1004,9.0812,9.0812,9.0812,9.0812,9.0812,9.0812,9.0812,9.0812,9.0812,9.0812,9.0812,9.0812,9.0812,9.0812,9.0812,9.0812,9.0812,9.0812,9.0812,9.0812,9.0812,9.0812,9.0812,9.2054,9.3158,9.3916,9.4675,9.5193,9.54,9.54,9.54,9.54,9.54,9.54,9.54,9.54,9.54,6.4516,6.4285,6.4022,6.3023,6.276,6.2593,6.1856,6.1709,6.1709,6.1709,6.189,6.205,6.205,6.2296,0.0,0.0,6.3545,0.0,0.0,6.4668,6.5678,6.8411,7.0046,7.1658,7.3404,7.3597,7.4006,7.4938,7.6408,7.727,7.727,7.8718,7.9856,8.058,8.0614,8.0994,8.181,8.181,8.181,8.1845,8.2604,8.3328,8.4087,8.488,8.5639,8.6294,8.6294,8.6294,8.6294,8.6294,8.6294,8.6294,8.6294,8.6294,8.6294,8.6294,8.6294,8.6294,8.6294,8.6294,8.6432,8.7156,8.795,8.8777,8.9467,9.0226,9.0812,9.0812,9.0812,9.0839,9.0839,9.0812,9.0812,9.0812,9.0812,9.0812,9.0812,9.0812,9.0812,9.0812,9.0812,9.0812,9.0812,9.0812,9.0812,9.0812,9.0812,9.0812,9.0812,9.0812,9.0812,9.0812,9.0812,9.0812,9.0812,9.0812,9.0812,9.0812,9.1571,9.2364,9.3123,9.3916,9.4668,9.5365,9.54,9.54,9.54,9.54,9.54,9.54,9.54,9.54,6.5249,6.4921,6.4531,6.3563,6.2954,6.2512,6.212,6.177,6.1506,6.1506,6.1669,6.1817,6.1977,6.1686,0.0,0.0,0.0,6.1332,0.0,6.2482,6.3489,6.4395,6.6957,6.9054,7.013,7.1602,7.2616,7.2956,7.4515,7.5669,7.6185,7.734,7.8339,7.912,8.0097,8.0718,8.0994,8.1535,8.181,8.181,8.2569,8.3293,8.4028,8.4846,8.5604,8.6294,8.6294,8.6294,8.6294,8.6294,8.6294,8.6294,8.6294,8.6294,8.6294,8.6294,8.6294,8.6294,8.6294,8.6294,8.6329,8.6605,8.7191,8.795,8.8743,8.9502,9.0192,9.0674,9.0812,9.0812,9.0812,9.0812,9.0812,9.0812,9.0812,9.0812,9.0812,9.0812,9.0812,9.0812,9.0812,9.0812,9.0812,9.0812,9.0812,9.0812,9.0812,9.0812,9.0812,9.0812,9.0812,9.0812,9.0812,9.0812,9.0812,9.0812,9.0812,9.0812,9.1571,9.233,9.3054,9.3847,9.4668,9.5365,9.54,9.54,9.54,9.54,9.54,9.54,9.54,9.54,6.6136,6.5806,6.5399,6.4183,6.352,6.3067,6.2674,6.2306,6.2012,6.1746,6.1845,6.1929,6.1823,6.1292,0.0,0.0,0.0,0.0,0.0,6.096,6.1569,6.1569,6.4469,6.6916,6.8021,6.942,7.0554,7.1165,7.2753,7.3891,7.4459,7.5863,7.7065,7.7925,7.9408,8.0339,8.058,8.1397,8.181,8.181,8.2293,8.3052,8.3993,8.4535,8.5328,8.6294,8.6294,8.6294,8.6294,8.6294,8.6294,8.6294,8.6294,8.6294,8.6294,8.6294,8.6294,8.6294,8.6294,8.6294,8.6294,8.6294,8.6811,8.757,8.8364,8.9122,8.9847,9.0605,9.0812,9.0812,9.0812,9.0812,9.0812,9.0812,9.0812,9.0812,9.0812,9.0812,9.0812,9.0812,9.0812,9.0812,9.0812,9.0812,9.0812,9.0812,9.0812,9.0812,9.0812,9.0812,9.0812,9.0812,9.0812,9.0812,9.0812,9.0812,9.0812,9.0812,9.1295,9.2019,9.3054,9.3606,9.433,9.5365,9.54,9.54,9.54,9.54,9.54,9.54,9.54,9.54]}]]